Dirección General De Aeronáutica Civil

Dirección Meteorológica de Chile - Servicios Climáticos

Informe General de Control de Calidad de la Estación

Listado de niveles de control de calidad para algunos parámetros
Estación Ancud Pupelde Ad. (410009)
Fecha de Revisión de los datos :

Elementos

Registros Niveles de Control Total
Nivel 0 Nivel 1 Nivel 2 Nivel 3 Errores Porcentaje
01 Temperatura del Aire Seco 130.216 0 . 412 0.32 % 0 . 0 . 412 0.32 %
02 Temperatura de Rocío 123.741 1 0.00 % 0 . 0 . 0 . 1 0.00 %
03 Humedad Relativa del Aire 117.195 0 . 0 . 0 . 0 . 0 0.00 %
04 Temperatura Máxima PM 9.697 0 . 0 . 413 4.26 % 0 . 413 4.26 %
05 Temperatura Mínima AM 10.080 0 . 0 . 159 1.58 % 0 . 159 1.58 %
06 Viento a 10 m. de Altura 130.712 3 0.00 % 6 0.00 % 25 0.02 % 0 . 34 0.03 %
07 Agua Caida, Acumulada 6 Horas 39.236 0 . 413 1.05 % 0 . 0 . 413 1.05 %
08 Presión Atm. a Nivel Medio del Mar (QFF) 113.437 0 . 0 . 0 . 0 . 0 0.00 %
09 Tiempo Pasado Sinóptico 50.066 0 . 0 . 0 . 0 . 0 0.00 %
10 Tiempo Presente Sinóptico 67.892 0 . 20 0.03 % 0 . 0 . 20 0.03 %

Totales

792.272 . 0.0005 % . 0.1074 % . 0.0754 % . 0.0000 % 1,452 0.1833 %

Detalle de Errores Encontrados

Nivel Fecha del Dato Descripción Información Error Fecha Ingreso
0 1954-04-03 21:00:00 ff (Intensidad del Viento) debe ser numerico, entre 0 y 70 kt. 140 2012-11-20 19:25:00
0 1954-11-03 20:00:00 ff (Intensidad del Viento) debe ser numerico, entre 0 y 70 kt. 100 2013-01-04 15:03:00
0 1991-03-01 20:00:00 ff (Intensidad del Viento) debe ser numerico, entre 0 y 70 kt. 99 2013-07-09 05:07:00
0 1985-06-15 12:00:00 Td (Temperatura Del Punto de Rocio) debe ser numérico, entre -50.0 y 50.0 -62.3
Errores del Nivel 4
Nivel Fecha del Dato Descripción Información Error Fecha Ingreso
1 1954-06-01 18:00:00 Viento calma fue mal ingresado. dd = 360 - ff = 0 2012-11-29 15:42:00
1 1954-07-13 15:00:00 Viento calma fue mal ingresado. dd = 320 - ff = 0 2012-12-10 20:24:00
1 1954-09-15 14:00:00 Viento calma fue mal ingresado. dd = 320 - ff = 0 2012-12-19 17:38:00
1 1954-10-13 12:00:00 Viento calma fue mal ingresado. dd = 0 - ff = 3 2013-01-02 14:39:00
1 1954-10-13 13:00:00 Viento calma fue mal ingresado. dd = 0 - ff = 4 2013-01-02 14:40:00
1 1971-06-10 15:00:00 ff < 19kt y ((ww >= 31 y ww <= 35) o (ww == 37 o ww == 39 o ww >= 98))) 2013-07-09 03:54:00
1 1954-06-30 12:00:00 Ts debe ser mayor o igual a Td Ts=-2.0 - Td=2.0 2012-12-03 20:19:00
1 1954-07-01 13:00:00 Ts debe ser mayor o igual a Td Ts=-1.5 - Td=1.7 2012-12-04 14:41:00
1 1954-07-09 13:00:00 Ts debe ser mayor o igual a Td Ts=3.0 - Td=8.0 2012-12-10 16:02:00
1 1954-08-18 12:00:00 Ts debe ser mayor o igual a Td Ts=-1.7 - Td=-1.0 2012-12-17 20:09:00
1 1954-10-16 15:00:00 Ts debe ser mayor o igual a Td Ts=0.5 - Td=6.5 2013-01-02 18:01:00
1 1968-08-17 12:00:00 Ts debe ser mayor o igual a Td Ts=7.0 - Td=7.2 2013-07-08 19:55:00
1 1968-08-22 12:00:00 Ts debe ser mayor o igual a Td Ts=5.0 - Td=5.4 2013-07-08 19:55:00
1 1969-07-05 19:00:00 Ts debe ser mayor o igual a Td Ts=6.7 - Td=6.9 2013-07-08 19:56:00
1 1969-07-10 14:00:00 Ts debe ser mayor o igual a Td Ts=4.2 - Td=11.0 2013-07-08 19:56:00
1 1969-07-13 14:00:00 Ts debe ser mayor o igual a Td Ts=10.4 - Td=11.1 2013-07-08 19:56:00
1 1969-07-15 20:00:00 Ts debe ser mayor o igual a Td Ts=11.3 - Td=12.2 2013-07-08 19:56:00
1 1969-07-21 00:00:00 Ts debe ser mayor o igual a Td Ts=8.0 - Td=9.7 2013-07-08 19:56:00
1 1969-07-22 14:00:00 Ts debe ser mayor o igual a Td Ts=2.5 - Td=11.5 2013-07-08 19:56:00
1 1969-08-03 14:00:00 Ts debe ser mayor o igual a Td Ts=8.7 - Td=10.3 2013-07-08 19:56:00
1 1969-08-05 14:00:00 Ts debe ser mayor o igual a Td Ts=4.8 - Td=13.4 2013-07-08 19:56:00
1 1969-08-09 16:00:00 Ts debe ser mayor o igual a Td Ts=8.0 - Td=9.5 2013-07-08 19:56:00
1 1969-08-09 21:00:00 Ts debe ser mayor o igual a Td Ts=1.0 - Td=16.1 2013-07-08 19:56:00
1 1969-08-12 20:00:00 Ts debe ser mayor o igual a Td Ts=8.0 - Td=8.2 2013-07-08 19:56:00
1 1969-08-13 09:00:00 Ts debe ser mayor o igual a Td Ts=3.4 - Td=7.2 2013-07-08 19:56:00
1 1969-08-18 13:00:00 Ts debe ser mayor o igual a Td Ts=7.4 - Td=7.6 2013-07-08 19:56:00
1 1969-08-28 18:00:00 Ts debe ser mayor o igual a Td Ts=0.9 - Td=14.8 2013-07-08 19:56:00
1 1969-09-11 00:00:00 Ts debe ser mayor o igual a Td Ts=0.7 - Td=12.2 2013-07-08 19:56:00
1 1969-09-28 09:00:00 Ts debe ser mayor o igual a Td Ts=4.8 - Td=13.3 2013-07-08 19:56:00
1 1969-09-28 12:00:00 Ts debe ser mayor o igual a Td Ts=6.5 - Td=9.8 2013-07-08 19:56:00
1 1969-10-01 20:00:00 Ts debe ser mayor o igual a Td Ts=6.7 - Td=9.0 2013-07-08 19:56:00
1 1969-10-12 09:00:00 Ts debe ser mayor o igual a Td Ts=3.9 - Td=12.6 2013-07-08 19:56:00
1 1969-10-12 11:00:00 Ts debe ser mayor o igual a Td Ts=4.8 - Td=13.3 2013-07-08 19:56:00
1 1969-10-16 14:00:00 Ts debe ser mayor o igual a Td Ts=1.2 - Td=12.2 2013-07-08 19:56:00
1 1969-11-09 09:00:00 Ts debe ser mayor o igual a Td Ts=3.7 - Td=7.5 2013-07-08 19:57:00
1 1969-11-13 15:00:00 Ts debe ser mayor o igual a Td Ts=5.2 - Td=18.2 2013-07-08 19:57:00
1 1970-01-20 00:00:00 Ts debe ser mayor o igual a Td Ts=15.4 - Td=15.7 2013-07-08 19:57:00
1 1970-02-06 15:00:00 Ts debe ser mayor o igual a Td Ts=14.3 - Td=19.3 2013-07-08 19:58:00
1 1970-02-22 00:00:00 Ts debe ser mayor o igual a Td Ts=13.1 - Td=15.4 2013-07-08 19:58:00
1 1970-03-03 10:00:00 Ts debe ser mayor o igual a Td Ts=11.4 - Td=12.1 2013-07-08 19:58:00
1 1970-03-05 18:00:00 Ts debe ser mayor o igual a Td Ts=14.4 - Td=15.7 2013-07-08 19:58:00
1 1970-03-06 17:00:00 Ts debe ser mayor o igual a Td Ts=13.6 - Td=16.1 2013-07-08 19:58:00
1 1970-03-16 09:00:00 Ts debe ser mayor o igual a Td Ts=1.0 - Td=16.3 2013-07-08 19:58:00
1 1970-03-30 09:00:00 Ts debe ser mayor o igual a Td Ts=8.5 - Td=9.2 2013-07-08 19:58:00
1 1970-04-05 13:00:00 Ts debe ser mayor o igual a Td Ts=6.7 - Td=12.2 2013-07-08 19:58:00
1 1970-04-07 21:00:00 Ts debe ser mayor o igual a Td Ts=4.8 - Td=20.0 2013-07-08 19:58:00
1 1970-04-15 10:00:00 Ts debe ser mayor o igual a Td Ts=4.5 - Td=13.0 2013-07-08 19:58:00
1 1970-04-15 11:00:00 Ts debe ser mayor o igual a Td Ts=4.2 - Td=12.9 2013-07-08 19:58:00
1 1970-04-15 12:00:00 Ts debe ser mayor o igual a Td Ts=4.0 - Td=5.3 2013-07-08 19:58:00
1 1970-04-23 19:00:00 Ts debe ser mayor o igual a Td Ts=12.0 - Td=12.8 2013-07-08 19:58:00
1 1970-04-24 12:00:00 Ts debe ser mayor o igual a Td Ts=8.3 - Td=14.5 2013-07-08 19:58:00
1 1970-04-24 22:00:00 Ts debe ser mayor o igual a Td Ts=11.4 - Td=11.6 2013-07-08 19:58:00
1 1970-05-06 11:00:00 Ts debe ser mayor o igual a Td Ts=4.4 - Td=6.2 2013-07-08 19:58:00
1 1970-05-11 10:00:00 Ts debe ser mayor o igual a Td Ts=4.0 - Td=4.6 2013-07-08 19:58:00
1 1970-05-13 20:00:00 Ts debe ser mayor o igual a Td Ts=4.7 - Td=15.3 2013-07-08 19:58:00
1 1970-05-21 11:00:00 Ts debe ser mayor o igual a Td Ts=11.0 - Td=11.7 2013-07-08 19:58:00
1 1970-05-24 09:00:00 Ts debe ser mayor o igual a Td Ts=1.3 - Td=18.4 2013-07-08 19:58:00
1 1970-05-29 23:00:00 Ts debe ser mayor o igual a Td Ts=0.9 - Td=14.1 2013-07-08 19:59:00
1 1970-05-31 20:00:00 Ts debe ser mayor o igual a Td Ts=0.3 - Td=13.1 2013-07-08 19:59:00
1 1970-06-01 14:00:00 Ts debe ser mayor o igual a Td Ts=1.8 - Td=9.1 2013-07-08 19:59:00
1 1970-06-08 21:00:00 Ts debe ser mayor o igual a Td Ts=8.3 - Td=9.4 2013-07-08 19:59:00
1 1970-06-15 21:00:00 Ts debe ser mayor o igual a Td Ts=10.6 - Td=18.9 2013-07-08 19:59:00
1 1970-06-27 12:00:00 Ts debe ser mayor o igual a Td Ts=3.9 - Td=5.8 2013-07-08 19:59:00
1 1970-06-28 19:00:00 Ts debe ser mayor o igual a Td Ts=6.0 - Td=7.2 2013-07-08 19:59:00
1 1970-06-30 17:00:00 Ts debe ser mayor o igual a Td Ts=3.8 - Td=12.3 2013-07-08 19:59:00
1 1970-07-04 12:00:00 Ts debe ser mayor o igual a Td Ts=1.1 - Td=2.3 2013-07-08 19:59:00
1 1970-07-05 18:00:00 Ts debe ser mayor o igual a Td Ts=8.0 - Td=8.4 2013-07-08 19:59:00
1 1970-07-07 10:00:00 Ts debe ser mayor o igual a Td Ts=8.8 - Td=10.1 2013-07-08 19:59:00
1 1970-07-11 09:00:00 Ts debe ser mayor o igual a Td Ts=4.1 - Td=4.9 2013-07-08 19:59:00
1 1970-07-11 11:00:00 Ts debe ser mayor o igual a Td Ts=4.6 - Td=13.2 2013-07-08 19:59:00
1 1970-07-19 23:00:00 Ts debe ser mayor o igual a Td Ts=8.0 - Td=8.2 2013-07-08 19:59:00
1 1970-07-23 21:00:00 Ts debe ser mayor o igual a Td Ts=1.0 - Td=14.6 2013-07-08 19:59:00
1 1970-07-24 19:00:00 Ts debe ser mayor o igual a Td Ts=10.0 - Td=10.4 2013-07-08 19:59:00
1 1970-08-23 11:00:00 Ts debe ser mayor o igual a Td Ts=5.8 - Td=6.0 2013-07-08 19:59:00
1 1970-08-27 09:00:00 Ts debe ser mayor o igual a Td Ts=5.0 - Td=5.4 2013-07-08 19:59:00
1 1970-08-29 09:00:00 Ts debe ser mayor o igual a Td Ts=6.0 - Td=6.4 2013-07-08 19:59:00
1 1970-08-30 09:00:00 Ts debe ser mayor o igual a Td Ts=5.1 - Td=6.3 2013-07-08 19:59:00
1 1970-09-28 10:00:00 Ts debe ser mayor o igual a Td Ts=4.3 - Td=5.8 2013-07-08 20:00:00
1 1970-09-30 11:00:00 Ts debe ser mayor o igual a Td Ts=4.0 - Td=7.2 2013-07-08 20:00:00
1 1970-10-04 23:00:00 Ts debe ser mayor o igual a Td Ts=0.8 - Td=10.8 2013-07-08 20:00:00
1 1970-10-26 11:00:00 Ts debe ser mayor o igual a Td Ts=6.0 - Td=6.6 2013-07-08 20:00:00
1 1970-10-31 12:00:00 Ts debe ser mayor o igual a Td Ts=9.6 - Td=11.0 2013-07-08 20:00:00
1 1970-11-22 09:00:00 Ts debe ser mayor o igual a Td Ts=7.6 - Td=8.0 2013-07-08 20:00:00
1 1970-12-28 09:00:00 Ts debe ser mayor o igual a Td Ts=10.2 - Td=10.4 2013-07-08 20:01:00
1 1971-01-01 11:00:00 Ts debe ser mayor o igual a Td Ts=9.1 - Td=10.4 2013-07-08 20:01:00
1 1971-01-01 11:00:00 Ts debe ser mayor o igual a Td Ts=9.1 - Td=10.4 2013-07-08 20:01:00
1 1971-01-09 00:00:00 Ts debe ser mayor o igual a Td Ts=9.4 - Td=9.8 2013-07-08 20:01:00
1 1971-01-09 18:00:00 Ts debe ser mayor o igual a Td Ts=8.8 - Td=17.1 2013-07-08 20:01:00
1 1971-02-16 10:00:00 Ts debe ser mayor o igual a Td Ts=12.6 - Td=13.8 2013-07-08 20:01:00
1 1971-02-19 09:00:00 Ts debe ser mayor o igual a Td Ts=8.1 - Td=9.0 2013-07-08 20:01:00
1 1971-03-04 19:00:00 Ts debe ser mayor o igual a Td Ts=11.5 - Td=15.1 2013-07-08 20:01:00
1 1971-03-10 09:00:00 Ts debe ser mayor o igual a Td Ts=6.0 - Td=6.4 2013-07-08 20:01:00
1 1971-03-12 10:00:00 Ts debe ser mayor o igual a Td Ts=8.0 - Td=9.7 2013-07-08 20:01:00
1 1971-03-24 09:00:00 Ts debe ser mayor o igual a Td Ts=0.9 - Td=15.0 2013-07-08 20:01:00
1 1971-03-25 23:00:00 Ts debe ser mayor o igual a Td Ts=12.1 - Td=13.6 2013-07-08 20:01:00
1 1971-03-30 14:00:00 Ts debe ser mayor o igual a Td Ts=6.5 - Td=11.5 2013-07-08 20:01:00
1 1971-03-30 22:00:00 Ts debe ser mayor o igual a Td Ts=12.4 - Td=12.6 2013-07-08 20:01:00
1 1971-04-03 11:00:00 Ts debe ser mayor o igual a Td Ts=9.0 - Td=10.6 2013-07-08 20:01:00
1 1971-04-06 10:00:00 Ts debe ser mayor o igual a Td Ts=4.0 - Td=14.3 2013-07-08 20:02:00
1 1971-04-06 22:00:00 Ts debe ser mayor o igual a Td Ts=1.6 - Td=13.2 2013-07-08 20:02:00
1 1971-04-07 10:00:00 Ts debe ser mayor o igual a Td Ts=8.6 - Td=8.8 2013-07-08 20:02:00
1 1971-04-07 11:00:00 Ts debe ser mayor o igual a Td Ts=7.4 - Td=11.7 2013-07-08 20:02:00
1 1971-04-07 13:00:00 Ts debe ser mayor o igual a Td Ts=9.4 - Td=10.1 2013-07-08 20:02:00
1 1971-04-11 12:00:00 Ts debe ser mayor o igual a Td Ts=2.2 - Td=12.8 2013-07-08 20:02:00
1 1971-04-12 10:00:00 Ts debe ser mayor o igual a Td Ts=4.9 - Td=13.4 2013-07-08 20:02:00
1 1971-04-12 17:00:00 Ts debe ser mayor o igual a Td Ts=11.1 - Td=12.3 2013-07-08 20:02:00
1 1971-04-12 18:00:00 Ts debe ser mayor o igual a Td Ts=1.2 - Td=18.5 2013-07-08 20:02:00
1 1971-04-13 12:00:00 Ts debe ser mayor o igual a Td Ts=0.9 - Td=14.7 2013-07-08 20:02:00
1 1971-04-17 09:00:00 Ts debe ser mayor o igual a Td Ts=1.2 - Td=6.4 2013-07-08 20:02:00
1 1971-04-19 12:00:00 Ts debe ser mayor o igual a Td Ts=0.8 - Td=13.3 2013-07-08 20:02:00
1 1971-04-19 18:00:00 Ts debe ser mayor o igual a Td Ts=1.1 - Td=13.5 2013-07-08 20:02:00
1 1971-04-23 21:00:00 Ts debe ser mayor o igual a Td Ts=0.0 - Td=21.0 2013-07-08 20:02:00
1 1971-04-29 16:00:00 Ts debe ser mayor o igual a Td Ts=0.9 - Td=14.9 2013-07-08 20:02:00
1 1971-05-03 09:00:00 Ts debe ser mayor o igual a Td Ts=3.0 - Td=6.5 2013-07-08 20:02:00
1 1971-05-05 10:00:00 Ts debe ser mayor o igual a Td Ts=6.0 - Td=6.2 2013-07-08 20:02:00
1 1971-05-06 09:00:00 Ts debe ser mayor o igual a Td Ts=3.0 - Td=3.4 2013-07-08 20:02:00
1 1971-05-10 10:00:00 Ts debe ser mayor o igual a Td Ts=1.8 - Td=16.6 2013-07-08 20:02:00
1 1971-05-13 16:00:00 Ts debe ser mayor o igual a Td Ts=8.4 - Td=10.0 2013-07-08 20:02:00
1 1971-05-15 09:00:00 Ts debe ser mayor o igual a Td Ts=6.4 - Td=7.2 2013-07-08 20:02:00
1 1971-05-15 22:00:00 Ts debe ser mayor o igual a Td Ts=11.2 - Td=12.7 2013-07-08 20:02:00
1 1971-05-16 20:00:00 Ts debe ser mayor o igual a Td Ts=10.3 - Td=12.9 2013-07-08 20:02:00
1 1971-05-16 22:00:00 Ts debe ser mayor o igual a Td Ts=10.3 - Td=12.9 2013-07-08 20:02:00
1 1971-05-17 17:00:00 Ts debe ser mayor o igual a Td Ts=9.2 - Td=12.8 2013-07-08 20:02:00
1 1971-05-17 20:00:00 Ts debe ser mayor o igual a Td Ts=1.6 - Td=2.1 2013-07-08 20:02:00
1 1971-05-26 15:00:00 Ts debe ser mayor o igual a Td Ts=0.6 - Td=9.8 2013-07-08 20:02:00
1 1971-05-28 22:00:00 Ts debe ser mayor o igual a Td Ts=7.0 - Td=8.3 2013-07-08 20:02:00
1 1971-05-29 11:00:00 Ts debe ser mayor o igual a Td Ts=7.6 - Td=7.8 2013-07-08 20:02:00
1 1971-05-29 15:00:00 Ts debe ser mayor o igual a Td Ts=1.0 - Td=16.5 2013-07-08 20:02:00
1 1971-05-31 12:00:00 Ts debe ser mayor o igual a Td Ts=5.1 - Td=5.3 2013-07-08 20:02:00
1 1971-05-31 16:00:00 Ts debe ser mayor o igual a Td Ts=10.6 - Td=11.0 2013-07-08 20:02:00
1 1971-06-01 23:00:00 Ts debe ser mayor o igual a Td Ts=7.4 - Td=7.8 2013-07-08 20:02:00
1 1971-06-04 09:00:00 Ts debe ser mayor o igual a Td Ts=5.0 - Td=8.3 2013-07-08 20:02:00
1 1971-06-05 18:00:00 Ts debe ser mayor o igual a Td Ts=2.2 - Td=11.8 2013-07-08 20:02:00
1 1971-06-11 15:00:00 Ts debe ser mayor o igual a Td Ts=0.6 - Td=10.7 2013-07-08 20:02:00
1 1971-06-12 15:00:00 Ts debe ser mayor o igual a Td Ts=0.6 - Td=10.7 2013-07-08 20:02:00
1 1971-06-15 18:00:00 Ts debe ser mayor o igual a Td Ts=0.8 - Td=13.2 2013-07-08 20:02:00
1 1971-06-19 11:00:00 Ts debe ser mayor o igual a Td Ts=-3.0 - Td=3.7 2013-07-08 20:02:00
1 1971-06-19 12:00:00 Ts debe ser mayor o igual a Td Ts=-2.2 - Td=2.3 2013-07-08 20:02:00
1 1971-06-22 10:00:00 Ts debe ser mayor o igual a Td Ts=0.6 - Td=1.1 2013-07-08 20:02:00
1 1971-06-22 11:00:00 Ts debe ser mayor o igual a Td Ts=1.4 - Td=1.6 2013-07-08 20:02:00
1 1971-06-23 09:00:00 Ts debe ser mayor o igual a Td Ts=2.1 - Td=4.1 2013-07-08 20:02:00
1 1971-06-24 22:00:00 Ts debe ser mayor o igual a Td Ts=8.2 - Td=10.6 2013-07-08 20:02:00
1 1971-06-26 19:00:00 Ts debe ser mayor o igual a Td Ts=6.6 - Td=11.6 2013-07-08 20:02:00
1 1971-06-28 09:00:00 Ts debe ser mayor o igual a Td Ts=0.5 - Td=9.3 2013-07-08 20:02:00
1 1971-06-29 17:00:00 Ts debe ser mayor o igual a Td Ts=7.4 - Td=10.8 2013-07-08 20:02:00
1 1971-06-30 10:00:00 Ts debe ser mayor o igual a Td Ts=1.8 - Td=9.2 2013-07-08 20:02:00
1 1971-07-01 17:00:00 Ts debe ser mayor o igual a Td Ts=7.1 - Td=12.0 2013-07-08 20:02:00
1 1971-07-01 18:00:00 Ts debe ser mayor o igual a Td Ts=6.1 - Td=6.7 2013-07-08 20:02:00
1 1971-07-03 18:00:00 Ts debe ser mayor o igual a Td Ts=0.9 - Td=14.6 2013-07-08 20:02:00
1 1971-07-05 00:00:00 Ts debe ser mayor o igual a Td Ts=0.4 - Td=15.2 2013-07-08 20:02:00
1 1971-07-05 09:00:00 Ts debe ser mayor o igual a Td Ts=2.8 - Td=4.7 2013-07-08 20:02:00
1 1971-07-06 20:00:00 Ts debe ser mayor o igual a Td Ts=9.8 - Td=10.0 2013-07-08 20:02:00
1 1971-07-09 13:00:00 Ts debe ser mayor o igual a Td Ts=-0.8 - Td=3.1 2013-07-08 20:02:00
1 1971-07-10 19:00:00 Ts debe ser mayor o igual a Td Ts=11.2 - Td=11.4 2013-07-08 20:02:00
1 1971-07-13 15:00:00 Ts debe ser mayor o igual a Td Ts=7.6 - Td=8.0 2013-07-08 20:02:00
1 1971-07-18 17:00:00 Ts debe ser mayor o igual a Td Ts=8.1 - Td=11.3 2013-07-08 20:02:00
1 1971-07-20 20:00:00 Ts debe ser mayor o igual a Td Ts=10.8 - Td=12.3 2013-07-08 20:02:00
1 1971-07-24 16:00:00 Ts debe ser mayor o igual a Td Ts=7.8 - Td=10.0 2013-07-08 20:02:00
1 1971-08-01 17:00:00 Ts debe ser mayor o igual a Td Ts=10.1 - Td=10.5 2013-07-08 20:03:00
1 1971-08-01 21:00:00 Ts debe ser mayor o igual a Td Ts=8.0 - Td=8.4 2013-07-08 20:03:00
1 1971-08-03 13:00:00 Ts debe ser mayor o igual a Td Ts=6.1 - Td=6.5 2013-07-08 20:03:00
1 1971-08-10 18:00:00 Ts debe ser mayor o igual a Td Ts=1.0 - Td=15.8 2013-07-08 20:03:00
1 1971-08-10 21:00:00 Ts debe ser mayor o igual a Td Ts=9.7 - Td=9.9 2013-07-08 20:03:00
1 1971-08-15 12:00:00 Ts debe ser mayor o igual a Td Ts=0.0 - Td=11.1 2013-07-08 20:03:00
1 1971-08-17 11:00:00 Ts debe ser mayor o igual a Td Ts=6.2 - Td=7.4 2013-07-08 20:03:00
1 1971-08-17 21:00:00 Ts debe ser mayor o igual a Td Ts=2.3 - Td=11.3 2013-07-08 20:03:00
1 1971-08-17 23:00:00 Ts debe ser mayor o igual a Td Ts=4.8 - Td=13.3 2013-07-08 20:03:00
1 1971-08-20 13:00:00 Ts debe ser mayor o igual a Td Ts=2.0 - Td=3.8 2013-07-08 20:03:00
1 1971-08-26 11:00:00 Ts debe ser mayor o igual a Td Ts=2.9 - Td=11.8 2013-07-08 20:03:00
1 1971-09-01 15:00:00 Ts debe ser mayor o igual a Td Ts=10.3 - Td=10.5 2013-07-08 20:03:00
1 1971-09-06 00:00:00 Ts debe ser mayor o igual a Td Ts=0.7 - Td=12.5 2013-07-08 20:03:00
1 1971-09-08 11:00:00 Ts debe ser mayor o igual a Td Ts=6.0 - Td=7.8 2013-07-08 20:03:00
1 1971-09-08 15:00:00 Ts debe ser mayor o igual a Td Ts=1.0 - Td=14.8 2013-07-08 20:03:00
1 1971-09-08 19:00:00 Ts debe ser mayor o igual a Td Ts=12.4 - Td=13.4 2013-07-08 20:03:00
1 1971-09-10 18:00:00 Ts debe ser mayor o igual a Td Ts=0.4 - Td=15.4 2013-07-08 20:03:00
1 1971-09-13 17:00:00 Ts debe ser mayor o igual a Td Ts=8.3 - Td=9.6 2013-07-08 20:03:00
1 1971-09-13 18:00:00 Ts debe ser mayor o igual a Td Ts=0.6 - Td=14.7 2013-07-08 20:03:00
1 1971-09-14 16:00:00 Ts debe ser mayor o igual a Td Ts=7.8 - Td=8.0 2013-07-08 20:03:00
1 1971-09-21 18:00:00 Ts debe ser mayor o igual a Td Ts=0.8 - Td=13.2 2013-07-08 20:03:00
1 1971-09-26 09:00:00 Ts debe ser mayor o igual a Td Ts=6.7 - Td=7.7 2013-07-08 20:03:00
1 1971-09-28 15:00:00 Ts debe ser mayor o igual a Td Ts=0.6 - Td=14.4 2013-07-08 20:03:00
1 1971-10-10 11:00:00 Ts debe ser mayor o igual a Td Ts=3.7 - Td=9.3 2013-07-08 20:03:00
1 1971-10-13 11:00:00 Ts debe ser mayor o igual a Td Ts=1.4 - Td=16.3 2013-07-08 20:03:00
1 1971-10-19 19:00:00 Ts debe ser mayor o igual a Td Ts=1.6 - Td=17.3 2013-07-08 20:03:00
1 1971-10-22 10:00:00 Ts debe ser mayor o igual a Td Ts=6.2 - Td=11.4 2013-07-08 20:03:00
1 1971-10-24 09:00:00 Ts debe ser mayor o igual a Td Ts=7.2 - Td=7.6 2013-07-08 20:03:00
1 1971-10-24 12:00:00 Ts debe ser mayor o igual a Td Ts=11.0 - Td=11.2 2013-07-08 20:03:00
1 1971-10-27 09:00:00 Ts debe ser mayor o igual a Td Ts=1.8 - Td=17.2 2013-07-08 20:03:00
1 1971-10-27 18:00:00 Ts debe ser mayor o igual a Td Ts=1.5 - Td=19.6 2013-07-08 20:03:00
1 1971-10-29 09:00:00 Ts debe ser mayor o igual a Td Ts=6.8 - Td=9.4 2013-07-08 20:03:00
1 1971-10-31 00:00:00 Ts debe ser mayor o igual a Td Ts=4.9 - Td=16.7 2013-07-08 20:03:00
1 1971-11-01 15:00:00 Ts debe ser mayor o igual a Td Ts=11.5 - Td=14.2 2013-07-08 20:03:00
1 1971-11-01 16:00:00 Ts debe ser mayor o igual a Td Ts=11.9 - Td=14.1 2013-07-08 20:03:00
1 1971-11-05 20:00:00 Ts debe ser mayor o igual a Td Ts=12.2 - Td=13.5 2013-07-08 20:03:00
1 1971-11-11 09:00:00 Ts debe ser mayor o igual a Td Ts=5.9 - Td=9.5 2013-07-08 20:04:00
1 1971-11-21 14:00:00 Ts debe ser mayor o igual a Td Ts=12.1 - Td=13.3 2013-07-08 20:04:00
1 1971-11-27 09:00:00 Ts debe ser mayor o igual a Td Ts=8.2 - Td=9.9 2013-07-08 20:04:00
1 1971-11-27 16:00:00 Ts debe ser mayor o igual a Td Ts=14.6 - Td=16.0 2013-07-08 20:04:00
1 1971-11-27 21:00:00 Ts debe ser mayor o igual a Td Ts=4.9 - Td=19.4 2013-07-08 20:04:00
1 1971-11-30 22:00:00 Ts debe ser mayor o igual a Td Ts=13.0 - Td=13.3 2013-07-08 20:04:00
1 1971-12-06 11:00:00 Ts debe ser mayor o igual a Td Ts=9.2 - Td=9.8 2013-07-08 20:04:00
1 1971-12-07 09:00:00 Ts debe ser mayor o igual a Td Ts=9.0 - Td=9.4 2013-07-08 20:04:00
1 1971-12-09 00:00:00 Ts debe ser mayor o igual a Td Ts=12.0 - Td=13.7 2013-07-08 20:04:00
1 1971-12-13 15:00:00 Ts debe ser mayor o igual a Td Ts=1.0 - Td=14.3 2013-07-08 20:04:00
1 1971-12-13 21:00:00 Ts debe ser mayor o igual a Td Ts=1.2 - Td=16.1 2013-07-08 20:04:00
1 1971-12-19 23:00:00 Ts debe ser mayor o igual a Td Ts=9.1 - Td=11.9 2013-07-08 20:04:00
1 1971-12-22 18:00:00 Ts debe ser mayor o igual a Td Ts=12.0 - Td=12.7 2013-07-08 20:04:00
1 1971-12-22 20:00:00 Ts debe ser mayor o igual a Td Ts=12.6 - Td=13.9 2013-07-08 20:04:00
1 1972-01-01 19:00:00 Ts debe ser mayor o igual a Td Ts=16.4 - Td=22.8 2013-07-08 20:04:00
1 1972-01-01 19:00:00 Ts debe ser mayor o igual a Td Ts=16.4 - Td=22.8 2013-07-08 20:04:00
1 1972-01-10 18:00:00 Ts debe ser mayor o igual a Td Ts=10.0 - Td=18.6 2013-07-08 20:04:00
1 1972-01-17 13:00:00 Ts debe ser mayor o igual a Td Ts=10.1 - Td=10.8 2013-07-08 20:04:00
1 1972-01-30 11:00:00 Ts debe ser mayor o igual a Td Ts=12.0 - Td=13.7 2013-07-08 20:04:00
1 1972-03-08 17:00:00 Ts debe ser mayor o igual a Td Ts=12.2 - Td=13.7 2013-07-08 20:05:00
1 1972-03-09 14:00:00 Ts debe ser mayor o igual a Td Ts=8.9 - Td=9.3 2013-07-08 20:05:00
1 1972-03-10 19:00:00 Ts debe ser mayor o igual a Td Ts=15.0 - Td=23.2 2013-07-08 20:05:00
1 1972-03-23 15:00:00 Ts debe ser mayor o igual a Td Ts=8.5 - Td=9.8 2013-07-08 20:05:00
1 1972-03-23 17:00:00 Ts debe ser mayor o igual a Td Ts=8.5 - Td=9.8 2013-07-08 20:05:00
1 1972-03-29 11:00:00 Ts debe ser mayor o igual a Td Ts=5.6 - Td=7.4 2013-07-08 20:05:00
1 1972-04-05 11:00:00 Ts debe ser mayor o igual a Td Ts=12.0 - Td=12.8 2013-07-08 20:05:00
1 1972-04-14 18:00:00 Ts debe ser mayor o igual a Td Ts=11.0 - Td=24.3 2013-07-08 20:05:00
1 1972-04-27 15:00:00 Ts debe ser mayor o igual a Td Ts=6.8 - Td=9.3 2013-07-08 20:05:00
1 1972-05-11 22:00:00 Ts debe ser mayor o igual a Td Ts=12.6 - Td=13.1 2013-07-08 20:05:00
1 1972-05-18 21:00:00 Ts debe ser mayor o igual a Td Ts=7.0 - Td=7.8 2013-07-08 20:05:00
1 1972-05-24 22:00:00 Ts debe ser mayor o igual a Td Ts=10.4 - Td=10.6 2013-07-08 20:05:00
1 1972-06-04 12:00:00 Ts debe ser mayor o igual a Td Ts=2.1 - Td=19.2 2013-07-08 20:05:00
1 1972-06-04 15:00:00 Ts debe ser mayor o igual a Td Ts=3.2 - Td=24.5 2013-07-08 20:05:00
1 1972-06-05 12:00:00 Ts debe ser mayor o igual a Td Ts=0.6 - Td=3.7 2013-07-08 20:05:00
1 1972-06-13 18:00:00 Ts debe ser mayor o igual a Td Ts=11.8 - Td=12.3 2013-07-08 20:05:00
1 1972-06-16 11:00:00 Ts debe ser mayor o igual a Td Ts=7.7 - Td=8.1 2013-07-08 20:05:00
1 1972-06-27 11:00:00 Ts debe ser mayor o igual a Td Ts=0.0 - Td=1.9 2013-07-08 20:06:00
1 1972-06-27 13:00:00 Ts debe ser mayor o igual a Td Ts=0.0 - Td=1.9 2013-07-08 20:06:00
1 1972-06-27 14:00:00 Ts debe ser mayor o igual a Td Ts=0.0 - Td=1.9 2013-07-08 20:06:00
1 1972-07-12 11:00:00 Ts debe ser mayor o igual a Td Ts=1.2 - Td=16.1 2013-07-08 20:06:00
1 1972-07-20 11:00:00 Ts debe ser mayor o igual a Td Ts=-1.0 - Td=4.0 2013-07-08 20:06:00
1 1972-07-20 13:00:00 Ts debe ser mayor o igual a Td Ts=-1.0 - Td=4.0 2013-07-08 20:06:00
1 1972-07-23 12:00:00 Ts debe ser mayor o igual a Td Ts=2.4 - Td=11.3 2013-07-08 20:06:00
1 1972-08-20 14:00:00 Ts debe ser mayor o igual a Td Ts=0.6 - Td=10.2 2013-07-08 20:06:00
1 1972-09-25 12:00:00 Ts debe ser mayor o igual a Td Ts=0.8 - Td=13.3 2013-07-08 20:06:00
1 1972-10-04 14:00:00 Ts debe ser mayor o igual a Td Ts=6.4 - Td=7.6 2013-07-08 20:06:00
1 1972-11-02 15:00:00 Ts debe ser mayor o igual a Td Ts=7.4 - Td=7.6 2013-07-08 20:06:00
1 1972-11-17 16:00:00 Ts debe ser mayor o igual a Td Ts=4.2 - Td=15.3 2013-07-08 20:07:00
1 1973-02-09 14:00:00 Ts debe ser mayor o igual a Td Ts=10.6 - Td=10.8 2013-07-08 20:07:00
1 1973-03-04 11:00:00 Ts debe ser mayor o igual a Td Ts=12.4 - Td=18.8 2013-07-08 20:07:00
1 1973-03-10 22:00:00 Ts debe ser mayor o igual a Td Ts=13.4 - Td=15.0 2013-07-08 20:07:00
1 1973-04-16 15:00:00 Ts debe ser mayor o igual a Td Ts=10.4 - Td=10.9 2013-07-08 20:08:00
1 1973-04-29 13:00:00 Ts debe ser mayor o igual a Td Ts=0.7 - Td=7.3 2013-07-08 20:08:00
1 1973-06-04 13:00:00 Ts debe ser mayor o igual a Td Ts=6.4 - Td=7.0 2013-07-08 20:08:00
1 1973-06-12 18:00:00 Ts debe ser mayor o igual a Td Ts=8.8 - Td=9.7 2013-07-08 20:08:00
1 1973-06-17 20:00:00 Ts debe ser mayor o igual a Td Ts=5.2 - Td=5.6 2013-07-08 20:08:00
1 1973-07-13 13:00:00 Ts debe ser mayor o igual a Td Ts=3.9 - Td=11.4 2013-07-08 20:08:00
1 1973-07-18 14:00:00 Ts debe ser mayor o igual a Td Ts=-0.6 - Td=4.9 2013-07-08 20:08:00
1 1973-07-23 11:00:00 Ts debe ser mayor o igual a Td Ts=-0.6 - Td=0.4 2013-07-08 20:09:00
1 1973-08-10 16:00:00 Ts debe ser mayor o igual a Td Ts=0.3 - Td=2.0 2013-07-08 20:09:00
1 1973-08-10 19:00:00 Ts debe ser mayor o igual a Td Ts=0.9 - Td=8.9 2013-07-08 20:09:00
1 1973-08-22 16:00:00 Ts debe ser mayor o igual a Td Ts=7.9 - Td=9.2 2013-07-08 20:09:00
1 1973-09-12 12:00:00 Ts debe ser mayor o igual a Td Ts=4.2 - Td=4.8 2013-07-08 20:09:00
1 1973-10-01 13:00:00 Ts debe ser mayor o igual a Td Ts=7.8 - Td=8.0 2013-07-08 20:09:00
1 1973-10-04 23:00:00 Ts debe ser mayor o igual a Td Ts=6.5 - Td=6.7 2013-07-08 20:09:00
1 1973-10-07 13:00:00 Ts debe ser mayor o igual a Td Ts=6.8 - Td=7.4 2013-07-08 20:09:00
1 1973-10-12 11:00:00 Ts debe ser mayor o igual a Td Ts=5.7 - Td=6.1 2013-07-08 20:09:00
1 1973-10-24 11:00:00 Ts debe ser mayor o igual a Td Ts=4.6 - Td=4.8 2013-07-08 20:10:00
1 1973-11-10 11:00:00 Ts debe ser mayor o igual a Td Ts=9.5 - Td=10.2 2013-07-08 20:10:00
1 1973-11-28 22:00:00 Ts debe ser mayor o igual a Td Ts=10.3 - Td=10.5 2013-07-08 20:10:00
1 1973-12-02 18:00:00 Ts debe ser mayor o igual a Td Ts=11.5 - Td=12.2 2013-07-08 20:10:00
1 1973-12-21 19:00:00 Ts debe ser mayor o igual a Td Ts=6.0 - Td=13.5 2013-07-08 20:10:00
1 1973-12-30 12:00:00 Ts debe ser mayor o igual a Td Ts=11.7 - Td=12.0 2013-07-08 20:10:00
1 1973-12-31 11:00:00 Ts debe ser mayor o igual a Td Ts=10.8 - Td=11.0 2013-07-08 20:10:00
1 1974-02-02 21:00:00 Ts debe ser mayor o igual a Td Ts=11.6 - Td=12.1 2013-07-08 20:10:00
1 1974-02-03 00:00:00 Ts debe ser mayor o igual a Td Ts=10.8 - Td=11.0 2013-07-08 20:10:00
1 1974-02-09 13:00:00 Ts debe ser mayor o igual a Td Ts=9.6 - Td=9.8 2013-07-08 20:10:00
1 1974-02-11 11:00:00 Ts debe ser mayor o igual a Td Ts=9.8 - Td=10.0 2013-07-08 20:10:00
1 1974-02-13 18:00:00 Ts debe ser mayor o igual a Td Ts=2.0 - Td=21.6 2013-07-08 20:10:00
1 1974-03-05 14:00:00 Ts debe ser mayor o igual a Td Ts=12.8 - Td=13.0 2013-07-08 20:11:00
1 1974-03-05 17:00:00 Ts debe ser mayor o igual a Td Ts=14.7 - Td=15.0 2013-07-08 20:11:00
1 1974-03-07 11:00:00 Ts debe ser mayor o igual a Td Ts=11.5 - Td=12.2 2013-07-08 20:11:00
1 1974-03-07 14:00:00 Ts debe ser mayor o igual a Td Ts=12.7 - Td=12.9 2013-07-08 20:11:00
1 1974-03-10 13:00:00 Ts debe ser mayor o igual a Td Ts=11.5 - Td=12.2 2013-07-08 20:11:00
1 1974-03-10 14:00:00 Ts debe ser mayor o igual a Td Ts=11.6 - Td=12.1 2013-07-08 20:11:00
1 1974-03-10 21:00:00 Ts debe ser mayor o igual a Td Ts=12.8 - Td=13.0 2013-07-08 20:11:00
1 1974-03-11 00:00:00 Ts debe ser mayor o igual a Td Ts=11.6 - Td=12.1 2013-07-08 20:11:00
1 1974-03-16 15:00:00 Ts debe ser mayor o igual a Td Ts=10.0 - Td=11.1 2013-07-08 20:11:00
1 1974-03-18 12:00:00 Ts debe ser mayor o igual a Td Ts=10.1 - Td=11.0 2013-07-08 20:11:00
1 1974-03-18 15:00:00 Ts debe ser mayor o igual a Td Ts=10.8 - Td=13.2 2013-07-08 20:11:00
1 1974-03-18 18:00:00 Ts debe ser mayor o igual a Td Ts=12.1 - Td=13.3 2013-07-08 20:11:00
1 1974-03-21 12:00:00 Ts debe ser mayor o igual a Td Ts=11.4 - Td=12.4 2013-07-08 20:11:00
1 1974-03-22 13:00:00 Ts debe ser mayor o igual a Td Ts=8.6 - Td=8.8 2013-07-08 20:11:00
1 1974-03-24 11:00:00 Ts debe ser mayor o igual a Td Ts=4.6 - Td=13.8 2013-07-08 20:11:00
1 1974-03-25 11:00:00 Ts debe ser mayor o igual a Td Ts=4.6 - Td=5.2 2013-07-08 20:11:00
1 1974-03-26 23:00:00 Ts debe ser mayor o igual a Td Ts=10.8 - Td=12.5 2013-07-08 20:11:00
1 1974-03-27 12:00:00 Ts debe ser mayor o igual a Td Ts=4.6 - Td=17.5 2013-07-08 20:11:00
1 1974-03-27 15:00:00 Ts debe ser mayor o igual a Td Ts=9.6 - Td=13.4 2013-07-08 20:11:00
1 1974-03-27 18:00:00 Ts debe ser mayor o igual a Td Ts=0.9 - Td=19.2 2013-07-08 20:11:00
1 1974-03-29 12:00:00 Ts debe ser mayor o igual a Td Ts=8.2 - Td=13.7 2013-07-08 20:11:00
1 1974-03-30 12:00:00 Ts debe ser mayor o igual a Td Ts=8.0 - Td=13.5 2013-07-08 20:11:00
1 1974-04-03 11:00:00 Ts debe ser mayor o igual a Td Ts=11.5 - Td=12.2 2013-07-08 20:11:00
1 1974-04-09 11:00:00 Ts debe ser mayor o igual a Td Ts=7.8 - Td=8.0 2013-07-08 20:11:00
1 1974-04-09 14:00:00 Ts debe ser mayor o igual a Td Ts=9.5 - Td=9.7 2013-07-08 20:11:00
1 1974-04-29 21:00:00 Ts debe ser mayor o igual a Td Ts=9.6 - Td=10.0 2013-07-08 20:11:00
1 1974-05-14 14:00:00 Ts debe ser mayor o igual a Td Ts=10.5 - Td=13.7 2013-07-08 20:11:00
1 1974-06-02 16:00:00 Ts debe ser mayor o igual a Td Ts=6.4 - Td=7.6 2013-07-08 20:11:00
1 1974-06-16 13:00:00 Ts debe ser mayor o igual a Td Ts=1.6 - Td=2.3 2013-07-08 20:11:00
1 1974-06-23 18:00:00 Ts debe ser mayor o igual a Td Ts=7.0 - Td=8.2 2013-07-08 20:11:00
1 1974-07-17 19:00:00 Ts debe ser mayor o igual a Td Ts=7.6 - Td=8.0 2013-07-08 20:12:00
1 1974-07-30 12:00:00 Ts debe ser mayor o igual a Td Ts=4.8 - Td=13.2 2013-07-08 20:12:00
1 1974-08-17 00:00:00 Ts debe ser mayor o igual a Td Ts=1.0 - Td=9.7 2013-07-08 20:12:00
1 1974-08-30 12:00:00 Ts debe ser mayor o igual a Td Ts=-0.5 - Td=1.4 2013-07-08 20:12:00
1 1974-09-09 21:00:00 Ts debe ser mayor o igual a Td Ts=8.0 - Td=9.3 2013-07-08 20:12:00
1 1974-09-10 13:00:00 Ts debe ser mayor o igual a Td Ts=0.9 - Td=15.4 2013-07-08 20:12:00
1 1974-12-11 20:00:00 Ts debe ser mayor o igual a Td Ts=15.6 - Td=25.3 2013-07-08 20:13:00
1 1974-12-11 22:00:00 Ts debe ser mayor o igual a Td Ts=15.6 - Td=25.2 2013-07-08 20:13:00
1 1975-02-03 00:00:00 Ts debe ser mayor o igual a Td Ts=11.6 - Td=20.6 2013-07-08 20:13:00
1 1975-02-08 20:00:00 Ts debe ser mayor o igual a Td Ts=13.0 - Td=14.3 2013-07-08 20:13:00
1 1975-02-09 17:00:00 Ts debe ser mayor o igual a Td Ts=13.3 - Td=26.4 2013-07-08 20:13:00
1 1975-03-13 12:00:00 Ts debe ser mayor o igual a Td Ts=11.4 - Td=11.7 2013-07-08 20:14:00
1 1975-03-25 21:00:00 Ts debe ser mayor o igual a Td Ts=11.0 - Td=14.3 2013-07-08 20:14:00
1 1975-04-14 12:00:00 Ts debe ser mayor o igual a Td Ts=5.4 - Td=7.8 2013-07-08 20:14:00
1 1975-04-21 14:00:00 Ts debe ser mayor o igual a Td Ts=2.8 - Td=15.8 2013-07-08 20:14:00
1 1975-05-16 22:00:00 Ts debe ser mayor o igual a Td Ts=1.1 - Td=15.2 2013-07-08 20:15:00
1 1975-05-18 22:00:00 Ts debe ser mayor o igual a Td Ts=0.4 - Td=14.4 2013-07-08 20:15:00
1 1975-06-13 13:00:00 Ts debe ser mayor o igual a Td Ts=0.2 - Td=16.5 2013-07-08 20:16:00
1 1975-06-27 22:00:00 Ts debe ser mayor o igual a Td Ts=0.0 - Td=15.0 2013-07-08 20:16:00
1 1975-06-28 19:00:00 Ts debe ser mayor o igual a Td Ts=0.4 - Td=16.3 2013-07-08 20:16:00
1 1975-07-16 10:00:00 Ts debe ser mayor o igual a Td Ts=-2.0 - Td=9.9 2013-07-08 20:16:00
1 1975-07-16 11:00:00 Ts debe ser mayor o igual a Td Ts=-2.6 - Td=9.8 2013-07-08 20:16:00
1 1975-07-16 13:00:00 Ts debe ser mayor o igual a Td Ts=-1.6 - Td=6.6 2013-07-08 20:16:00
1 1975-07-16 14:00:00 Ts debe ser mayor o igual a Td Ts=-1.6 - Td=6.6 2013-07-08 20:16:00
1 1975-07-17 13:00:00 Ts debe ser mayor o igual a Td Ts=-0.3 - Td=4.8 2013-07-08 20:16:00
1 1975-07-17 14:00:00 Ts debe ser mayor o igual a Td Ts=0.2 - Td=2.8 2013-07-08 20:16:00
1 1975-08-06 18:00:00 Ts debe ser mayor o igual a Td Ts=1.0 - Td=8.6 2013-07-08 20:16:00
1 1975-08-23 14:00:00 Ts debe ser mayor o igual a Td Ts=5.2 - Td=19.2 2013-07-08 20:17:00
1 1975-08-25 13:00:00 Ts debe ser mayor o igual a Td Ts=5.6 - Td=9.7 2013-07-08 20:17:00
1 1975-08-29 00:00:00 Ts debe ser mayor o igual a Td Ts=6.0 - Td=7.4 2013-07-08 20:17:00
1 1975-09-14 13:00:00 Ts debe ser mayor o igual a Td Ts=0.8 - Td=12.2 2013-07-08 20:17:00
1 1975-09-23 09:00:00 Ts debe ser mayor o igual a Td Ts=6.2 - Td=8.1 2013-07-08 20:17:00
1 1975-10-05 10:00:00 Ts debe ser mayor o igual a Td Ts=7.0 - Td=8.0 2013-07-08 20:17:00
1 1975-10-06 09:00:00 Ts debe ser mayor o igual a Td Ts=0.7 - Td=10.7 2013-07-08 20:17:00
1 1975-10-11 00:00:00 Ts debe ser mayor o igual a Td Ts=0.9 - Td=13.5 2013-07-08 20:17:00
1 1975-10-12 12:00:00 Ts debe ser mayor o igual a Td Ts=0.7 - Td=9.3 2013-07-08 20:17:00
1 1975-12-16 18:00:00 Ts debe ser mayor o igual a Td Ts=7.5 - Td=13.5 2013-07-08 20:18:00
1 1975-12-22 21:00:00 Ts debe ser mayor o igual a Td Ts=14.0 - Td=20.0 2013-07-08 20:18:00
1 1976-01-21 18:00:00 Ts debe ser mayor o igual a Td Ts=9.8 - Td=14.3 2013-07-08 20:18:00
1 1976-02-21 19:00:00 Ts debe ser mayor o igual a Td Ts=9.6 - Td=18.0 2013-07-08 20:19:00
1 1976-02-23 10:00:00 Ts debe ser mayor o igual a Td Ts=10.0 - Td=13.4 2013-07-08 20:19:00
1 1976-02-23 11:00:00 Ts debe ser mayor o igual a Td Ts=10.0 - Td=13.4 2013-07-08 20:19:00
1 1976-03-25 11:00:00 Ts debe ser mayor o igual a Td Ts=10.3 - Td=11.9 2013-07-08 20:19:00
1 1976-04-15 12:00:00 Ts debe ser mayor o igual a Td Ts=0.8 - Td=10.7 2013-07-08 20:19:00
1 1976-05-01 20:00:00 Ts debe ser mayor o igual a Td Ts=1.7 - Td=15.8 2013-07-08 20:19:00
1 1976-05-07 15:00:00 Ts debe ser mayor o igual a Td Ts=11.4 - Td=15.6 2013-07-08 20:20:00
1 1976-05-10 22:00:00 Ts debe ser mayor o igual a Td Ts=11.4 - Td=15.5 2013-07-08 20:20:00
1 1976-05-19 23:00:00 Ts debe ser mayor o igual a Td Ts=8.0 - Td=21.4 2013-07-08 20:20:00
1 1976-06-12 12:00:00 Ts debe ser mayor o igual a Td Ts=3.8 - Td=8.1 2013-07-08 20:20:00
1 1976-06-26 12:00:00 Ts debe ser mayor o igual a Td Ts=4.0 - Td=9.7 2013-07-08 20:20:00
1 1976-07-24 10:00:00 Ts debe ser mayor o igual a Td Ts=-2.5 - Td=-1.2 2013-07-08 20:20:00
1 1976-07-24 11:00:00 Ts debe ser mayor o igual a Td Ts=-2.8 - Td=-0.4 2013-07-08 20:20:00
1 1976-07-24 13:00:00 Ts debe ser mayor o igual a Td Ts=-1.4 - Td=0.8 2013-07-08 20:20:00
1 1976-07-30 10:00:00 Ts debe ser mayor o igual a Td Ts=0.8 - Td=2.0 2013-07-08 20:21:00
1 1976-07-30 11:00:00 Ts debe ser mayor o igual a Td Ts=0.7 - Td=1.7 2013-07-08 20:21:00
1 1977-01-12 09:00:00 Ts debe ser mayor o igual a Td Ts=7.7 - Td=10.4 2013-07-08 20:22:00
1 1977-01-30 09:00:00 Ts debe ser mayor o igual a Td Ts=10.4 - Td=11.6 2013-07-08 20:22:00
1 1977-02-05 09:00:00 Ts debe ser mayor o igual a Td Ts=0.9 - Td=14.2 2013-07-08 20:22:00
1 1977-03-07 15:00:00 Ts debe ser mayor o igual a Td Ts=13.6 - Td=20.2 2013-07-08 20:22:00
1 1977-05-08 23:00:00 Ts debe ser mayor o igual a Td Ts=6.3 - Td=7.7 2013-07-08 20:23:00
1 1977-06-19 13:00:00 Ts debe ser mayor o igual a Td Ts=-0.1 - Td=0.6 2013-07-08 20:24:00
1 1977-06-21 11:00:00 Ts debe ser mayor o igual a Td Ts=-0.2 - Td=0.1 2013-07-08 20:24:00
1 1977-06-21 12:00:00 Ts debe ser mayor o igual a Td Ts=-0.6 - Td=-0.1 2013-07-08 20:24:00
1 1977-06-25 23:00:00 Ts debe ser mayor o igual a Td Ts=9.0 - Td=10.6 2013-07-08 20:24:00
1 1977-06-30 00:00:00 Ts debe ser mayor o igual a Td Ts=4.5 - Td=12.5 2013-07-08 20:24:00
1 1977-07-28 09:00:00 Ts debe ser mayor o igual a Td Ts=4.8 - Td=6.0 2013-07-08 20:24:00
1 1977-08-19 23:00:00 Ts debe ser mayor o igual a Td Ts=5.1 - Td=9.1 2013-07-08 20:24:00
1 1977-09-28 12:00:00 Ts debe ser mayor o igual a Td Ts=4.4 - Td=19.2 2013-07-08 20:25:00
1 1977-10-01 10:00:00 Ts debe ser mayor o igual a Td Ts=8.4 - Td=9.1 2013-07-08 20:25:00
1 1977-12-12 22:00:00 Ts debe ser mayor o igual a Td Ts=1.0 - Td=24.0 2013-07-08 20:26:00
1 1977-12-21 19:00:00 Ts debe ser mayor o igual a Td Ts=15.3 - Td=18.4 2013-07-08 20:26:00
1 1977-12-26 12:00:00 Ts debe ser mayor o igual a Td Ts=11.4 - Td=12.8 2013-07-08 20:26:00
1 1978-02-20 15:00:00 Ts debe ser mayor o igual a Td Ts=13.8 - Td=15.6 2013-07-08 20:26:00
1 1978-05-14 12:00:00 Ts debe ser mayor o igual a Td Ts=10.0 - Td=10.4 2013-07-08 20:27:00
1 1978-05-16 12:00:00 Ts debe ser mayor o igual a Td Ts=7.5 - Td=7.9 2013-07-08 20:27:00
1 1978-06-27 21:00:00 Ts debe ser mayor o igual a Td Ts=0.7 - Td=13.4 2013-07-08 20:27:00
1 1978-07-02 09:00:00 Ts debe ser mayor o igual a Td Ts=9.6 - Td=10.0 2013-07-08 20:27:00
1 1978-09-21 12:00:00 Ts debe ser mayor o igual a Td Ts=10.9 - Td=12.1 2013-07-08 20:28:00
1 1978-10-01 12:00:00 Ts debe ser mayor o igual a Td Ts=0.7 - Td=11.4 2013-07-08 20:28:00
1 1978-10-15 09:00:00 Ts debe ser mayor o igual a Td Ts=4.4 - Td=12.8 2013-07-08 20:29:00
1 1978-12-07 15:00:00 Ts debe ser mayor o igual a Td Ts=14.6 - Td=16.0 2013-07-08 20:29:00
1 1978-12-22 21:00:00 Ts debe ser mayor o igual a Td Ts=10.7 - Td=15.4 2013-07-08 20:29:00
1 1978-12-26 11:00:00 Ts debe ser mayor o igual a Td Ts=13.3 - Td=15.9 2013-07-08 20:29:00
1 1979-01-29 13:00:00 Ts debe ser mayor o igual a Td Ts=5.0 - Td=18.2 2013-07-08 20:30:00
1 1979-03-03 10:00:00 Ts debe ser mayor o igual a Td Ts=9.0 - Td=9.6 2013-07-08 20:30:00
1 1979-03-24 14:00:00 Ts debe ser mayor o igual a Td Ts=11.9 - Td=15.0 2013-07-08 20:30:00
1 1979-05-02 12:00:00 Ts debe ser mayor o igual a Td Ts=4.7 - Td=6.3 2013-07-08 20:31:00
1 1979-05-03 12:00:00 Ts debe ser mayor o igual a Td Ts=5.1 - Td=13.2 2013-07-08 20:31:00
1 1979-05-07 23:00:00 Ts debe ser mayor o igual a Td Ts=7.0 - Td=7.4 2013-07-08 20:31:00
1 1979-08-04 09:00:00 Ts debe ser mayor o igual a Td Ts=6.0 - Td=9.7 2013-07-08 20:32:00
1 1979-08-06 14:00:00 Ts debe ser mayor o igual a Td Ts=7.4 - Td=10.7 2013-07-08 20:32:00
1 1979-08-15 18:00:00 Ts debe ser mayor o igual a Td Ts=8.6 - Td=9.3 2013-07-08 20:32:00
1 1979-08-27 19:00:00 Ts debe ser mayor o igual a Td Ts=7.8 - Td=10.0 2013-07-08 20:32:00
1 1979-09-14 16:00:00 Ts debe ser mayor o igual a Td Ts=8.0 - Td=11.2 2013-07-08 20:32:00
1 1979-11-04 21:00:00 Ts debe ser mayor o igual a Td Ts=10.0 - Td=11.1 2013-07-08 20:33:00
1 1979-11-19 11:00:00 Ts debe ser mayor o igual a Td Ts=10.2 - Td=10.6 2013-07-08 20:33:00
1 1979-12-13 10:00:00 Ts debe ser mayor o igual a Td Ts=7.8 - Td=8.0 2013-07-08 20:33:00
1 1979-12-23 14:00:00 Ts debe ser mayor o igual a Td Ts=15.0 - Td=15.6 2013-07-08 20:33:00
1 1981-03-07 06:00:00 Ts debe ser mayor o igual a Td Ts=7.0 - Td=12.1 2013-07-08 20:38:00
1 1981-09-01 20:00:00 Ts debe ser mayor o igual a Td Ts=0.0 - Td=14.9 2013-07-08 20:40:00
1 1984-03-16 17:00:00 Ts debe ser mayor o igual a Td Ts=8.1 - Td=9.0 2013-07-08 20:49:00
1 1984-06-14 20:00:00 Ts debe ser mayor o igual a Td Ts=4.6 - Td=5.3 2013-07-08 20:49:00
1 1985-08-15 20:00:00 Ts debe ser mayor o igual a Td Ts=9.0 - Td=10.4 2013-07-08 20:53:00
1 1985-12-16 19:00:00 Ts debe ser mayor o igual a Td Ts=14.4 - Td=15.5 2013-07-08 20:54:00
1 1990-01-15 19:00:00 Ts debe ser mayor o igual a Td Ts=14.6 - Td=15.4 2013-07-08 21:05:00
1 1990-02-21 14:00:00 Ts debe ser mayor o igual a Td Ts=13.0 - Td=14.3 2013-07-08 21:06:00
1 1990-04-05 19:00:00 Ts debe ser mayor o igual a Td Ts=10.3 - Td=10.7 2013-07-08 21:06:00
1 1990-05-16 20:00:00 Ts debe ser mayor o igual a Td Ts=11.6 - Td=12.3 2013-07-08 21:06:00
1 1990-08-07 13:00:00 Ts debe ser mayor o igual a Td Ts=8.0 - Td=8.7 2013-07-08 21:07:00
1 1990-08-11 15:00:00 Ts debe ser mayor o igual a Td Ts=6.7 - Td=8.8 2013-07-08 21:07:00
1 1990-08-24 19:00:00 Ts debe ser mayor o igual a Td Ts=9.2 - Td=9.7 2013-07-08 21:07:00
1 1990-10-02 16:00:00 Ts debe ser mayor o igual a Td Ts=9.0 - Td=9.6 2013-07-08 21:07:00
1 1990-10-25 13:00:00 Ts debe ser mayor o igual a Td Ts=4.4 - Td=12.6 2013-07-08 21:07:00
1 1990-12-24 19:00:00 Ts debe ser mayor o igual a Td Ts=9.8 - Td=19.8 2013-07-08 21:07:00
1 1993-05-18 14:00:00 Ts debe ser mayor o igual a Td Ts=12.1 - Td=12.4 2013-07-08 21:12:00
1 1954-07-22 15:00:00 ts > 3.0 y ( (ww >= 48 y ww <= 49) o (ww >= 56 y ww <= 57) o (ww >=66 y ww <= 67)) 57 2012-12-12 13:59:00
1 1966-04-30 21:00:00 ts > 12.0 y ( (ww >= 68 y ww <= 69) o (ww >= 83 y ww <= 84)) 83 2013-07-09 01:15:00
1 1966-08-30 21:00:00 ts > 5.0 y ((ww >= 70 y ww <= 79) || (ww >= 85 y ww <= 88))) 88 2013-07-09 01:16:00
1 1967-05-24 15:00:00 ts > 5.0 y ((ww >= 70 y ww <= 79) || (ww >= 85 y ww <= 88))) 88 2013-07-09 01:17:00
1 1968-08-19 15:00:00 ts > 5.0 y ((ww >= 70 y ww <= 79) || (ww >= 85 y ww <= 88))) 88 2013-07-09 01:18:00
1 1970-08-11 09:00:00 ts > 5.0 y ((ww >= 70 y ww <= 79) || (ww >= 85 y ww <= 88))) 88 2013-07-09 01:20:00
1 1970-08-19 00:00:00 ts > 5.0 y ((ww >= 70 y ww <= 79) || (ww >= 85 y ww <= 88))) 88 2013-07-09 01:20:00
1 1970-08-19 15:00:00 ts > 5.0 y ((ww >= 70 y ww <= 79) || (ww >= 85 y ww <= 88))) 88 2013-07-09 01:20:00
1 1971-01-20 18:00:00 ts > 12.0 y ( (ww >= 68 y ww <= 69) o (ww >= 83 y ww <= 84)) 83 2013-07-09 01:21:00
1 1971-02-04 21:00:00 ts > 5.0 y ((ww >= 70 y ww <= 79) || (ww >= 85 y ww <= 88))) 88 2013-07-09 01:21:00
1 1972-07-06 18:00:00 ts > 5.0 y ((ww >= 70 y ww <= 79) || (ww >= 85 y ww <= 88))) 88 2013-07-09 01:23:00
1 1973-04-19 21:00:00 (ts - td > 5.0) y ((ww >= 40 y ww <= 49)) 47 2013-07-09 01:23:00
1 1974-06-18 12:00:00 ts > 5.0 y ((ww >= 70 y ww <= 79) || (ww >= 85 y ww <= 88))) 85 2013-07-09 01:25:00
1 1974-11-08 12:00:00 (ts - td > 5.0) y ((ww >= 40 y ww <= 49)) 41 2013-07-09 01:26:00
1 1975-07-22 09:00:00 (ts - td > 5.0) y ((ww >= 40 y ww <= 49)) 45 2013-07-09 01:26:00
1 1975-07-31 21:00:00 ts > 3.0 y ( (ww >= 48 y ww <= 49) o (ww >= 56 y ww <= 57) o (ww >=66 y ww <= 67)) 66 2013-07-09 01:26:00
1 1975-10-22 18:00:00 (ts - td > 5.0) y ((ww >= 40 y ww <= 49)) 41 2013-07-09 01:27:00
1 1976-02-23 15:00:00 (ts - td > 5.0) y ((ww >= 40 y ww <= 49)) 44 2013-07-09 01:27:00
1 1977-07-26 21:00:00 ts > 5.0 y ((ww >= 70 y ww <= 79) || (ww >= 85 y ww <= 88))) 88 2013-07-09 01:30:00
1 1981-09-09 18:00:00 ts > 5.0 y ((ww >= 70 y ww <= 79) || (ww >= 85 y ww <= 88))) 88 2013-07-09 01:36:00
1 1982-03-09 12:00:00 rrr = 8.4 y WW = 0 w1=0 w2=0 8.4 2013-07-08 18:52:00
1 1982-04-09 12:00:00 rrr = 0.1 y WW = 11 w1=4 w2=4 0.1 2013-07-08 18:52:00
1 1982-05-04 12:00:00 rrr = 21.3 y WW = 15 w1=2 w2=2 21.3 2013-07-08 18:52:00
1 1982-05-21 12:00:00 rrr = 3.3 y WW = 2 w1=2 w2=1 3.3 2013-07-08 18:52:00
1 1982-05-30 12:00:00 rrr = 16.4 y WW = 2 w1=2 w2=2 16.4 2013-07-08 18:52:00
1 1982-06-02 12:00:00 rrr = 1.3 y WW = 2 w1=2 w2=2 1.3 2013-07-08 18:52:00
1 1982-06-05 12:00:00 rrr = 0.2 y WW = 2 w1=2 w2=2 0.2 2013-07-08 18:52:00
1 1982-06-06 12:00:00 rrr = 8.6 y WW = 2 w1=2 w2=2 8.6 2013-07-08 18:52:00
1 1982-06-12 12:00:00 rrr = 1.6 y WW = 2 w1=2 w2=2 1.6 2013-07-08 18:52:00
1 1982-06-24 12:00:00 rrr = 2.6 y WW = 2 w1=2 w2=2 2.6 2013-07-08 18:52:00
1 1982-07-06 12:00:00 rrr = 8.0 y WW = 2 w1=2 w2=2 8.0 2013-07-08 18:52:00
1 1982-07-07 12:00:00 rrr = 0.3 y WW = 2 w1=2 w2=1 0.3 2013-07-08 18:52:00
1 1982-07-12 12:00:00 rrr = 14.4 y WW = 2 w1=2 w2=2 14.4 2013-07-08 18:52:00
1 1982-07-18 12:00:00 rrr = 6.3 y WW = 2 w1=2 w2=2 6.3 2013-07-08 18:52:00
1 1982-07-20 12:00:00 rrr = 0.4 y WW = 3 w1=0 w2=0 0.4 2013-07-08 18:52:00
1 1982-08-09 12:00:00 rrr = 0.1 y WW = 2 w1=2 w2=2 0.1 2013-07-08 18:52:00
1 1982-08-13 12:00:00 rrr = 1.3 y WW = 3 w1=2 w2=2 1.3 2013-07-08 18:52:00
1 1982-08-29 12:00:00 rrr = 6.4 y WW = 2 w1=2 w2=2 6.4 2013-07-08 18:52:00
1 1982-09-04 12:00:00 rrr = 3.9 y WW = 2 w1=1 w2=1 3.9 2013-07-08 18:52:00
1 1982-09-08 12:00:00 rrr = 21.0 y WW = 2 w1=2 w2=2 21.0 2013-07-08 18:52:00
1 1982-09-10 12:00:00 rrr = 4.3 y WW = 1 w1=2 w2=2 4.3 2013-07-08 18:52:00
1 1982-09-18 12:00:00 rrr = 3.3 y WW = 2 w1=2 w2=2 3.3 2013-07-08 18:52:00
1 1982-09-19 12:00:00 rrr = 2.0 y WW = 2 w1=1 w2=1 2.0 2013-07-08 18:52:00
1 1982-10-11 12:00:00 rrr = 1.0 y WW = 2 w1=2 w2=2 1.0 2013-07-08 18:52:00
1 1982-10-16 12:00:00 rrr = 1.0 y WW = 2 w1=2 w2=2 1.0 2013-07-08 18:52:00
1 1982-10-25 12:00:00 rrr = 4.6 y WW = 2 w1=2 w2=2 4.6 2013-07-08 18:52:00
1 1982-10-29 12:00:00 rrr = 3.6 y WW = 2 w1=2 w2=2 3.6 2013-07-08 18:52:00
1 1982-11-03 12:00:00 rrr = 0.2 y WW = 2 w1=2 w2=2 0.2 2013-07-08 18:52:00
1 1982-11-08 12:00:00 rrr = 0.2 y WW = 2 w1=2 w2=2 0.2 2013-07-08 18:52:00
1 1982-11-28 12:00:00 rrr = 0.6 y WW = 2 w1=1 w2=1 0.6 2013-07-08 18:52:00
1 1982-11-29 12:00:00 rrr = 0.2 y WW = 2 w1=2 w2=2 0.2 2013-07-08 18:52:00
1 1982-12-03 12:00:00 rrr = 3.1 y WW = 2 w1=0 w2=0 3.1 2013-07-08 18:52:00
1 1982-12-15 12:00:00 rrr = 0.4 y WW = 2 w1=2 w2=2 0.4 2013-07-08 18:52:00
1 1982-12-19 12:00:00 rrr = 3.0 y WW = 2 w1=2 w2=2 3.0 2013-07-08 18:52:00
1 1982-12-23 12:00:00 rrr = 1.2 y WW = 2 w1=2 w2=2 1.2 2013-07-08 18:52:00
1 1982-12-31 12:00:00 rrr = 0.9 y WW = 2 w1=4 w2=4 0.9 2013-07-08 18:52:00
1 1983-01-07 12:00:00 rrr = 0.6 y WW = 2 w1=1 w2=1 0.6 2013-07-08 18:52:00
1 1983-01-09 12:00:00 rrr = 5.3 y WW = 1 w1=2 w2=2 5.3 2013-07-08 18:52:00
1 1983-01-10 12:00:00 rrr = 0.4 y WW = 2 w1=2 w2=2 0.4 2013-07-08 18:52:00
1 1983-01-23 12:00:00 rrr = 12.5 y WW = 2 w1=2 w2=2 12.5 2013-07-08 18:52:00
1 1983-01-24 12:00:00 rrr = 0.8 y WW = 2 w1=1 w2=1 0.8 2013-07-08 18:52:00
1 1983-02-02 12:00:00 rrr = 2.3 y WW = 10 w1=4 w2=4 2.3 2013-07-08 18:52:00
1 1983-02-19 12:00:00 rrr = 0.2 y WW = 2 w1=1 w2=0 0.2 2013-07-08 18:52:00
1 1983-02-23 12:00:00 rrr = 5.9 y WW = 1 w1=1 w2=0 5.9 2013-07-08 18:52:00
1 1983-02-24 12:00:00 rrr = 4.6 y WW = 2 w1=1 w2=1 4.6 2013-07-08 18:52:00
1 1983-02-25 12:00:00 rrr = 2.6 y WW = 2 w1=0 w2=0 2.6 2013-07-08 18:52:00
1 1983-03-02 12:00:00 rrr = 1.1 y WW = 2 w1=2 w2=2 1.1 2013-07-08 18:52:00
1 1983-03-07 12:00:00 rrr = 3.3 y WW = 2 w1=4 w2=4 3.3 2013-07-08 18:52:00
1 1983-03-16 12:00:00 rrr = 1.1 y WW = 2 w1=2 w2=2 1.1 2013-07-08 18:52:00
1 1983-03-24 12:00:00 rrr = 21.1 y WW = 2 w1=2 w2=2 21.1 2013-07-08 18:52:00
1 1983-04-01 12:00:00 rrr = 0.6 y WW = 2 w1=1 w2=1 0.6 2013-07-08 18:52:00
1 1983-04-03 12:00:00 rrr = 5.1 y WW = 2 w1=4 w2=4 5.1 2013-07-08 18:52:00
1 1983-04-07 12:00:00 rrr = 0.9 y WW = 2 w1=4 w2=4 0.9 2013-07-08 18:52:00
1 1983-04-17 12:00:00 rrr = 2.3 y WW = 2 w1=4 w2=4 2.3 2013-07-08 18:52:00
1 1983-04-27 12:00:00 rrr = 4.3 y WW = 2 w1=2 w2=2 4.3 2013-07-08 18:52:00
1 1983-04-30 12:00:00 rrr = 8.3 y WW = 2 w1=2 w2=2 8.3 2013-07-08 18:52:00
1 1983-05-03 12:00:00 rrr = 8.2 y WW = 2 w1=2 w2=2 8.2 2013-07-08 18:52:00
1 1983-05-04 12:00:00 rrr = 6.2 y WW = 2 w1=2 w2=2 6.2 2013-07-08 18:52:00
1 1983-05-07 12:00:00 rrr = 3.3 y WW = 2 w1=2 w2=2 3.3 2013-07-08 18:52:00
1 1983-05-11 12:00:00 rrr = 3.6 y WW = 2 w1=2 w2=2 3.6 2013-07-08 18:52:00
1 1983-05-20 12:00:00 rrr = 0.3 y WW = 2 w1=2 w2=2 0.3 2013-07-08 18:52:00
1 1983-05-23 12:00:00 rrr = 2.4 y WW = 10 w1=4 w2=4 2.4 2013-07-08 18:52:00
1 1983-05-26 12:00:00 rrr = 8.5 y WW = 2 w1=2 w2=2 8.5 2013-07-08 18:52:00
1 1983-05-27 12:00:00 rrr = 18.1 y WW = 2 w1=2 w2=2 18.1 2013-07-08 18:52:00
1 1983-05-29 12:00:00 rrr = 1.7 y WW = 2 w1=0 w2=0 1.7 2013-07-08 18:52:00
1 1983-06-07 12:00:00 rrr = 2.1 y WW = 2 w1=0 w2=0 2.1 2013-07-08 18:52:00
1 1983-06-24 12:00:00 rrr = 0.3 y WW = 2 w1=1 w2=1 0.3 2013-07-08 18:52:00
1 1983-06-27 12:00:00 rrr = 1.3 y WW = 2 w1=2 w2=2 1.3 2013-07-08 18:52:00
1 1983-06-30 12:00:00 rrr = 0.9 y WW = 2 w1=2 w2=2 0.9 2013-07-08 18:52:00
1 1983-07-05 12:00:00 rrr = 11.3 y WW = 2 w1=2 w2=2 11.3 2013-07-08 18:52:00
1 1983-07-06 12:00:00 rrr = 3.7 y WW = 2 w1=1 w2=1 3.7 2013-07-08 18:52:00
1 1983-07-07 12:00:00 rrr = 1.1 y WW = 2 w1=1 w2=1 1.1 2013-07-08 18:52:00
1 1983-07-09 12:00:00 rrr = 1.0 y WW = 2 w1=2 w2=2 1.0 2013-07-08 18:52:00
1 1983-07-10 12:00:00 rrr = 23.2 y WW = 2 w1=2 w2=2 23.2 2013-07-08 18:52:00
1 1983-07-11 12:00:00 rrr = 15.3 y WW = 2 w1=2 w2=2 15.3 2013-07-08 18:52:00
1 1983-07-15 12:00:00 rrr = 0.9 y WW = 10 w1=4 w2=2 0.9 2013-07-08 18:52:00
1 1983-07-16 12:00:00 rrr = 1.3 y WW = 2 w1=2 w2=2 1.3 2013-07-08 18:52:00
1 1983-07-18 12:00:00 rrr = 3.4 y WW = 2 w1=2 w2=2 3.4 2013-07-08 18:52:00
1 1983-07-22 12:00:00 rrr = 0.6 y WW = 2 w1=1 w2=1 0.6 2013-07-08 18:52:00
1 1983-08-06 12:00:00 rrr = 2.8 y WW = 2 w1=1 w2=1 2.8 2013-07-08 18:52:00
1 1983-08-11 12:00:00 rrr = 19.0 y WW = 2 w1=2 w2=2 19.0 2013-07-08 18:52:00
1 1983-08-15 12:00:00 rrr = 2.3 y WW = 2 w1=1 w2=1 2.3 2013-07-08 18:52:00
1 1983-08-27 12:00:00 rrr = 10.9 y WW = 2 w1=1 w2=1 10.9 2013-07-08 18:52:00
1 1983-09-02 12:00:00 rrr = 9.8 y WW = 2 w1=2 w2=2 9.8 2013-07-08 18:52:00
1 1983-09-06 12:00:00 rrr = 0.8 y WW = 1 w1=1 w2=0 0.8 2013-07-08 18:52:00
1 1983-09-09 12:00:00 rrr = 0.2 y WW = 2 w1=0 w2=0 0.2 2013-07-08 18:52:00
1 1983-09-12 12:00:00 rrr = 0.2 y WW = 10 w1=4 w2=2 0.2 2013-07-08 18:52:00
1 1983-09-17 12:00:00 rrr = 0.1 y WW = 2 w1=0 w2=0 0.1 2013-07-08 18:52:00
1 1983-09-18 12:00:00 rrr = 1.7 y WW = 2 w1=1 w2=1 1.7 2013-07-08 18:52:00
1 1983-09-20 12:00:00 rrr = 0.4 y WW = 2 w1=2 w2=2 0.4 2013-07-08 18:52:00
1 1983-09-23 12:00:00 rrr = 21.7 y WW = 2 w1=2 w2=2 21.7 2013-07-08 18:52:00
1 1983-09-26 12:00:00 rrr = 3.2 y WW = 1 w1=2 w2=2 3.2 2013-07-08 18:52:00
1 1983-09-27 12:00:00 rrr = 0.8 y WW = 2 w1=0 w2=0 0.8 2013-07-08 18:52:00
1 1983-10-08 12:00:00 rrr = 6.3 y WW = 2 w1=2 w2=2 6.3 2013-07-08 18:52:00
1 1983-10-16 12:00:00 rrr = trazas y WW = 2 w1=2 w2=2 0.0 2013-07-08 18:52:00
1 1983-10-19 12:00:00 rrr = 4.0 y WW = 2 w1=2 w2=2 4.0 2013-07-08 18:52:00
1 1983-10-22 12:00:00 rrr = 0.6 y WW = 1 w1=2 w2=2 0.6 2013-07-08 18:52:00
1 1983-10-28 12:00:00 rrr = 1.8 y WW = 2 w1=1 w2=1 1.8 2013-07-08 18:52:00
1 1983-12-25 12:00:00 rrr = 0.3 y WW = 2 w1=2 w2=2 0.3 2013-07-08 18:53:00
1 1983-12-27 12:00:00 rrr = 0.7 y WW = 2 w1=1 w2=1 0.7 2013-07-08 18:53:00
1 1984-01-06 12:00:00 rrr = 0.1 y WW = 2 w1=1 w2=1 0.1 2013-07-08 18:53:00
1 1984-02-01 12:00:00 rrr = 7.1 y WW = 2 w1=2 w2=1 7.1 2013-07-08 18:53:00
1 1984-02-02 12:00:00 rrr = 0.3 y WW = 2 w1=0 w2=0 0.3 2013-07-08 18:53:00
1 1984-02-08 12:00:00 rrr = 0.7 y WW = 2 w1=2 w2=2 0.7 2013-07-08 18:53:00
1 1984-02-22 12:00:00 rrr = 0.8 y WW = 2 w1=4 w2=0 0.8 2013-07-08 18:53:00
1 1984-02-26 12:00:00 rrr = 2.0 y WW = 2 w1=2 w2=2 2.0 2013-07-08 18:53:00
1 1984-03-15 12:00:00 rrr = 0.5 y WW = 3 w1=2 w2=2 0.5 2013-07-08 18:53:00
1 1984-03-24 12:00:00 rrr = 9.0 y WW = 2 w1=0 w2=0 9.0 2013-07-08 18:53:00
1 1984-03-28 12:00:00 rrr = 1.1 y WW = 2 w1=2 w2=2 1.1 2013-07-08 18:53:00
1 1984-04-01 12:00:00 rrr = 7.1 y WW = 2 w1=1 w2=1 7.1 2013-07-08 18:53:00
1 1984-04-06 12:00:00 rrr = 0.3 y WW = 2 w1=2 w2=2 0.3 2013-07-08 18:53:00
1 1984-04-13 12:00:00 rrr = 0.2 y WW = 2 w1=1 w2=1 0.2 2013-07-08 18:53:00
1 1984-04-14 12:00:00 rrr = 1.4 y WW = 3 w1=1 w2=1 1.4 2013-07-08 18:53:00
1 1984-04-17 12:00:00 rrr = 0.2 y WW = 2 w1=1 w2=1 0.2 2013-07-08 18:53:00
1 1984-04-23 12:00:00 rrr = 0.1 y WW = 2 w1=0 w2=0 0.1 2013-07-08 18:53:00
1 1984-04-26 12:00:00 rrr = 0.1 y WW = 2 w1=2 w2=2 0.1 2013-07-08 18:53:00
1 1984-04-28 12:00:00 rrr = 7.9 y WW = 2 w1=0 w2=0 7.9 2013-07-08 18:53:00
1 1984-05-05 12:00:00 rrr = 1.3 y WW = 2 w1=1 w2=1 1.3 2013-07-08 18:53:00
1 1984-05-07 12:00:00 rrr = 1.1 y WW = 2 w1=2 w2=2 1.1 2013-07-08 18:53:00
1 1984-05-09 12:00:00 rrr = 4.6 y WW = 2 w1=0 w2=0 4.6 2013-07-08 18:53:00
1 1984-05-11 12:00:00 rrr = 5.5 y WW = 2 w1=1 w2=1 5.5 2013-07-08 18:53:00
1 1984-05-16 12:00:00 rrr = 26.7 y WW = 2 w1=2 w2=2 26.7 2013-07-08 18:53:00
1 1984-05-18 12:00:00 rrr = 17.4 y WW = 2 w1=1 w2=1 17.4 2013-07-08 18:53:00
1 1984-05-19 12:00:00 rrr = 19.6 y WW = 15 w1=2 w2=2 19.6 2013-07-08 18:53:00
1 1984-05-25 12:00:00 rrr = 1.9 y WW = 2 w1=2 w2=2 1.9 2013-07-08 18:53:00
1 1984-05-26 12:00:00 rrr = 8.9 y WW = 2 w1=2 w2=2 8.9 2013-07-08 18:53:00
1 1984-05-28 12:00:00 rrr = 0.4 y WW = 2 w1=2 w2=2 0.4 2013-07-08 18:53:00
1 1984-05-30 12:00:00 rrr = 0.9 y WW = 2 w1=2 w2=2 0.9 2013-07-08 18:53:00
1 1984-06-02 12:00:00 rrr = 3.5 y WW = 2 w1=0 w2=0 3.5 2013-07-08 18:53:00
1 1984-06-11 12:00:00 rrr = 3.3 y WW = 10 w1=4 w2=1 3.3 2013-07-08 18:53:00
1 1984-06-13 12:00:00 rrr = 0.2 y WW = 2 w1=0 w2=0 0.2 2013-07-08 18:53:00
1 1984-06-17 12:00:00 rrr = 5.8 y WW = 2 w1=0 w2=0 5.8 2013-07-08 18:53:00
1 1984-06-20 12:00:00 rrr = 11.8 y WW = 2 w1=2 w2=2 11.8 2013-07-08 18:53:00
1 1984-06-21 12:00:00 rrr = 3.0 y WW = 2 w1=2 w2=2 3.0 2013-07-08 18:53:00
1 1984-06-22 12:00:00 rrr = 1.1 y WW = 2 w1=0 w2=0 1.1 2013-07-08 18:53:00
1 1984-06-26 12:00:00 rrr = 1.5 y WW = 2 w1=2 w2=2 1.5 2013-07-08 18:53:00
1 1984-07-02 12:00:00 rrr = 7.0 y WW = 2 w1=2 w2=2 7.0 2013-07-08 18:53:00
1 1984-07-06 12:00:00 rrr = 11.7 y WW = 2 w1=2 w2=2 11.7 2013-07-08 18:53:00
1 1984-07-08 12:00:00 rrr = 1.1 y WW = 2 w1=0 w2=0 1.1 2013-07-08 18:53:00
1 1984-07-11 12:00:00 rrr = 5.6 y WW = 2 w1=2 w2=2 5.6 2013-07-08 18:53:00
1 1984-07-12 12:00:00 rrr = 5.0 y WW = 15 w1=2 w2=2 5.0 2013-07-08 18:53:00
1 1984-07-13 12:00:00 rrr = 5.1 y WW = 2 w1=1 w2=1 5.1 2013-07-08 18:53:00
1 1984-07-18 12:00:00 rrr = 14.2 y WW = 2 w1=2 w2=2 14.2 2013-07-08 18:53:00
1 1984-07-19 12:00:00 rrr = 8.4 y WW = 2 w1=2 w2=2 8.4 2013-07-08 18:53:00
1 1984-07-23 12:00:00 rrr = 5.4 y WW = 2 w1=2 w2=2 5.4 2013-07-08 18:53:00
1 1984-07-31 12:00:00 rrr = 10.6 y WW = 2 w1=1 w2=1 10.6 2013-07-08 18:53:00
1 1984-08-04 12:00:00 rrr = 2.6 y WW = 2 w1=0 w2=0 2.6 2013-07-08 18:53:00
1 1984-08-06 12:00:00 rrr = 3.3 y WW = 2 w1=1 w2=1 3.3 2013-07-08 18:53:00
1 1984-08-09 12:00:00 rrr = 4.3 y WW = 2 w1=2 w2=2 4.3 2013-07-08 18:53:00
1 1984-08-17 12:00:00 rrr = 12.4 y WW = 2 w1=2 w2=2 12.4 2013-07-08 18:53:00
1 1984-08-19 12:00:00 rrr = 16.7 y WW = 15 w1=2 w2=2 16.7 2013-07-08 18:53:00
1 1984-08-20 12:00:00 rrr = 2.4 y WW = 2 w1=2 w2=2 2.4 2013-07-08 18:53:00
1 1984-08-23 12:00:00 rrr = 1.3 y WW = 2 w1=0 w2=0 1.3 2013-07-08 18:53:00
1 1984-08-24 12:00:00 rrr = 0.4 y WW = 2 w1=1 w2=1 0.4 2013-07-08 18:53:00
1 1984-08-27 12:00:00 rrr = 1.1 y WW = 10 w1=1 w2=1 1.1 2013-07-08 18:53:00
1 1984-08-30 12:00:00 rrr = 3.8 y WW = 2 w1=1 w2=1 3.8 2013-07-08 18:53:00
1 1984-09-08 12:00:00 rrr = 6.4 y WW = 2 w1=2 w2=2 6.4 2013-07-08 18:53:00
1 1984-09-15 12:00:00 rrr = 2.6 y WW = 2 w1=2 w2=2 2.6 2013-07-08 18:53:00
1 1984-09-20 12:00:00 rrr = 2.1 y WW = 2 w1=1 w2=1 2.1 2013-07-08 18:53:00
1 1984-10-01 12:00:00 rrr = 1.0 y WW = 1 w1=1 w2=0 1.0 2013-07-08 18:53:00
1 1984-10-04 12:00:00 rrr = 6.2 y WW = 3 w1=2 w2=2 6.2 2013-07-08 18:53:00
1 1984-10-12 12:00:00 rrr = 0.8 y WW = 2 w1=2 w2=2 0.8 2013-07-08 18:53:00
1 1984-10-15 12:00:00 rrr = 0.4 y WW = 2 w1=2 w2=2 0.4 2013-07-08 18:53:00
1 1984-10-16 12:00:00 rrr = 11.5 y WW = 2 w1=2 w2=2 11.5 2013-07-08 18:53:00
1 1984-10-21 12:00:00 rrr = 0.1 y WW = 2 w1=2 w2=2 0.1 2013-07-08 18:53:00
1 1984-10-26 12:00:00 rrr = 0.2 y WW = 2 w1=2 w2=2 0.2 2013-07-08 18:53:00
1 1984-11-05 12:00:00 rrr = trazas y WW = 2 w1=2 w2=2 0.0 2013-07-08 18:53:00
1 1984-11-24 12:00:00 rrr = 1.0 y WW = 2 w1=2 w2=2 1.0 2013-07-08 18:53:00
1 1984-12-16 12:00:00 rrr = 1.4 y WW = 2 w1=2 w2=2 1.4 2013-07-08 18:53:00
1 1985-01-09 12:00:00 rrr = 0.8 y WW = 2 w1=2 w2=2 0.8 2013-07-08 18:53:00
1 1985-02-08 12:00:00 rrr = 2.8 y WW = 3 w1=0 w2=0 2.8 2013-07-08 18:53:00
1 1985-02-19 12:00:00 rrr = 5.9 y WW = 10 w1=4 w2=4 5.9 2013-07-08 18:53:00
1 1985-02-26 12:00:00 rrr = 0.3 y WW = 2 w1=1 w2=1 0.3 2013-07-08 18:53:00
1 1985-03-13 12:00:00 rrr = 6.6 y WW = 2 w1=2 w2=2 6.6 2013-07-08 18:53:00
1 1985-03-17 12:00:00 rrr = 3.6 y WW = 2 w1=0 w2=0 3.6 2013-07-08 18:53:00
1 1985-03-19 12:00:00 rrr = trazas y WW = 2 w1=2 w2=2 0.0 2013-07-08 18:53:00
1 1985-03-21 12:00:00 rrr = 12.6 y WW = 2 w1=2 w2=2 12.6 2013-07-08 18:53:00
1 1985-03-23 12:00:00 rrr = 3.8 y WW = 3 w1=4 w2=4 3.8 2013-07-08 18:53:00
1 1985-03-28 12:00:00 rrr = 0.1 y WW = 3 w1=0 w2=0 0.1 2013-07-08 18:53:00
1 1985-03-31 12:00:00 rrr = 11.5 y WW = 2 w1=2 w2=2 11.5 2013-07-08 18:53:00
1 1985-04-02 12:00:00 rrr = 5.5 y WW = 2 w1=2 w2=2 5.5 2013-07-08 18:53:00
1 1985-04-03 12:00:00 rrr = 0.2 y WW = 3 w1=0 w2=0 0.2 2013-07-08 18:53:00
1 1985-04-06 12:00:00 rrr = 6.2 y WW = 3 w1=2 w2=1 6.2 2013-07-08 18:53:00
1 1985-04-07 12:00:00 rrr = 0.8 y WW = 2 w1=2 w2=2 0.8 2013-07-08 18:53:00
1 1985-04-10 18:00:00 rrr = 0.3 y WW = 2 w1=2 w2=2 0.3 2013-07-08 18:53:00
1 1985-04-19 12:00:00 rrr = 3.2 y WW = 2 w1=2 w2=2 3.2 2013-07-08 18:53:00
1 1985-04-25 12:00:00 rrr = 1.2 y WW = 2 w1=2 w2=2 1.2 2013-07-08 18:53:00
1 1985-04-27 12:00:00 rrr = 6.6 y WW = 2 w1=2 w2=2 6.6 2013-07-08 18:53:00
1 1985-04-28 12:00:00 rrr = 0.8 y WW = 2 w1=2 w2=2 0.8 2013-07-08 18:53:00
1 1985-04-29 12:00:00 rrr = 0.4 y WW = 2 w1=2 w2=2 0.4 2013-07-08 18:53:00
1 1985-05-01 18:00:00 rrr = 0.2 y WW = 2 w1=4 w2=2 0.2 2013-07-08 18:53:00
1 1985-05-02 12:00:00 rrr = 0.6 y WW = 10 w1=4 w2=4 0.6 2013-07-08 18:53:00
1 1985-05-04 12:00:00 rrr = 7.1 y WW = 2 w1=2 w2=2 7.1 2013-07-08 18:53:00
1 1985-05-07 18:00:00 rrr = 0.2 y WW = 2 w1=4 w2=2 0.2 2013-07-08 18:53:00
1 1985-05-09 12:00:00 rrr = 28.1 y WW = 2 w1=2 w2=1 28.1 2013-07-08 18:53:00
1 1985-05-11 12:00:00 rrr = 1.8 y WW = 2 w1=2 w2=2 1.8 2013-07-08 18:53:00
1 1985-05-14 12:00:00 rrr = 9.8 y WW = 10 w1=4 w2=4 9.8 2013-07-08 18:53:00
1 1985-05-16 12:00:00 rrr = 28.6 y WW = 2 w1=2 w2=2 28.6 2013-07-08 18:53:00
1 1985-05-17 12:00:00 rrr = 15.2 y WW = 2 w1=2 w2=2 15.2 2013-07-08 18:53:00
1 1985-05-21 12:00:00 rrr = 1.1 y WW = 2 w1=2 w2=2 1.1 2013-07-08 18:53:00
1 1985-05-23 12:00:00 rrr = 0.6 y WW = 2 w1=2 w2=2 0.6 2013-07-08 18:53:00
1 1985-05-24 12:00:00 rrr = 20.5 y WW = 2 w1=2 w2=2 20.5 2013-07-08 18:53:00
1 1985-05-26 12:00:00 rrr = 4.4 y WW = 2 w1=2 w2=2 4.4 2013-07-08 18:53:00
1 1985-05-28 12:00:00 rrr = 1.7 y WW = 2 w1=1 w2=1 1.7 2013-07-08 18:53:00
1 1985-05-31 12:00:00 rrr = 2.3 y WW = 2 w1=1 w2=1 2.3 2013-07-08 18:53:00
1 1985-06-06 12:00:00 rrr = 0.4 y WW = 14 w1=4 w2=4 0.4 2013-07-08 18:53:00
1 1985-06-16 12:00:00 rrr = 9.6 y WW = 2 w1=2 w2=2 9.6 2013-07-08 18:53:00
1 1985-06-26 12:00:00 rrr = 8.1 y WW = 10 w1=2 w2=2 8.1 2013-07-08 18:53:00
1 1985-06-27 12:00:00 rrr = 1.3 y WW = 10 w1=4 w2=4 1.3 2013-07-08 18:53:00
1 1985-07-03 12:00:00 rrr = trazas y WW = 2 w1=1 w2=1 0.0 2013-07-08 18:53:00
1 1985-07-04 12:00:00 rrr = 0.3 y WW = 2 w1=0 w2=0 0.3 2013-07-08 18:53:00
1 1985-07-09 12:00:00 rrr = 1.6 y WW = 2 w1=1 w2=1 1.6 2013-07-08 18:53:00
1 1985-07-14 12:00:00 rrr = 6.0 y WW = 2 w1=2 w2=2 6.0 2013-07-08 18:53:00
1 1985-07-20 12:00:00 rrr = 0.3 y WW = 2 w1=2 w2=2 0.3 2013-07-08 18:53:00
1 1985-08-03 12:00:00 rrr = 26.4 y WW = 2 w1=2 w2=2 26.4 2013-07-08 18:53:00
1 1985-08-05 12:00:00 rrr = 2.1 y WW = 2 w1=0 w2=0 2.1 2013-07-08 18:53:00
1 1985-08-15 12:00:00 rrr = 5.6 y WW = 2 w1=2 w2=2 5.6 2013-07-08 18:54:00
1 1985-08-17 12:00:00 rrr = 1.2 y WW = 2 w1=2 w2=2 1.2 2013-07-08 18:54:00
1 1985-08-18 12:00:00 rrr = trazas y WW = 2 w1=2 w2=2 0.0 2013-07-08 18:54:00
1 1985-08-23 12:00:00 rrr = 8.4 y WW = 2 w1=2 w2=2 8.4 2013-07-08 18:54:00
1 1985-09-08 12:00:00 rrr = 27.3 y WW = 3 w1=0 w2=0 27.3 2013-07-08 18:54:00
1 1985-09-13 12:00:00 rrr = 3.9 y WW = 2 w1=1 w2=1 3.9 2013-07-08 18:54:00
1 1985-09-17 12:00:00 rrr = 0.3 y WW = 16 w1=4 w2=4 0.3 2013-07-08 18:54:00
1 1985-09-20 12:00:00 rrr = 38.1 y WW = 2 w1=1 w2=1 38.1 2013-07-08 18:54:00
1 1985-09-21 12:00:00 rrr = 0.8 y WW = 3 w1=1 w2=1 0.8 2013-07-08 18:54:00
1 1985-09-25 12:00:00 rrr = 6.7 y WW = 1 w1=2 w2=2 6.7 2013-07-08 18:54:00
1 1985-10-02 12:00:00 rrr = 0.3 y WW = 2 w1=0 w2=0 0.3 2013-07-08 18:54:00
1 1985-10-03 12:00:00 rrr = trazas y WW = 2 w1=0 w2=0 0.0 2013-07-08 18:54:00
1 1985-10-09 12:00:00 rrr = 4.2 y WW = 2 w1=2 w2=2 4.2 2013-07-08 18:54:00
1 1985-10-11 12:00:00 rrr = 53.3 y WW = 2 w1=2 w2=2 53.3 2013-07-08 18:54:00
1 1985-10-13 12:00:00 rrr = 2.3 y WW = 2 w1=2 w2=2 2.3 2013-07-08 18:54:00
1 1985-10-16 12:00:00 rrr = 0.1 y WW = 3 w1=1 w2=0 0.1 2013-07-08 18:54:00
1 1985-10-21 12:00:00 rrr = 0.9 y WW = 3 w1=1 w2=1 0.9 2013-07-08 18:54:00
1 1985-10-22 12:00:00 rrr = trazas y WW = 2 w1=0 w2=0 0.0 2013-07-08 18:54:00
1 1985-10-26 12:00:00 rrr = trazas y WW = 2 w1=2 w2=2 0.0 2013-07-08 18:54:00
1 1985-11-10 12:00:00 rrr = 3.3 y WW = 2 w1=0 w2=0 3.3 2013-07-08 18:54:00
1 1985-11-16 12:00:00 rrr = 0.5 y WW = 2 w1=1 w2=1 0.5 2013-07-08 18:54:00
1 1985-12-03 12:00:00 rrr = 0.3 y WW = 2 w1=0 w2=0 0.3 2013-07-08 18:54:00
1 1985-12-05 12:00:00 rrr = 9.3 y WW = 2 w1=1 w2=1 9.3 2013-07-08 18:54:00
1 1985-12-07 12:00:00 rrr = 3.6 y WW = 2 w1=2 w2=2 3.6 2013-07-08 18:54:00
1 1985-12-18 12:00:00 rrr = 6.3 y WW = 2 w1=1 w2=0 6.3 2013-07-08 18:54:00
1 1986-01-03 12:00:00 rrr = 1.6 y WW = 2 w1=2 w2=2 1.6 2013-07-08 18:54:00
1 1986-01-12 12:00:00 rrr = trazas y WW = 3 w1=2 w2=1 0.0 2013-07-08 18:54:00
1 1986-01-15 12:00:00 rrr = 0.3 y WW = 1 w1=0 w2=0 0.3 2013-07-08 18:54:00
1 1986-01-25 12:00:00 rrr = 11.8 y WW = 1 w1=1 w2=0 11.8 2013-07-08 18:54:00
1 1986-01-26 12:00:00 rrr = 2.9 y WW = 1 w1=2 w2=1 2.9 2013-07-08 18:54:00
1 1986-01-27 12:00:00 rrr = 5.4 y WW = 3 w1=1 w2=0 5.4 2013-07-08 18:54:00
1 1986-01-29 12:00:00 rrr = 16.5 y WW = 2 w1=2 w2=2 16.5 2013-07-08 18:54:00
1 1986-02-04 12:00:00 rrr = 3.1 y WW = 2 w1=2 w2=1 3.1 2013-07-08 18:54:00
1 1986-02-12 12:00:00 rrr = 4.3 y WW = 2 w1=2 w2=2 4.3 2013-07-08 18:54:00
1 1986-02-26 12:00:00 rrr = 1.4 y WW = 3 w1=1 w2=0 1.4 2013-07-08 18:54:00
1 1986-03-02 12:00:00 rrr = 0.5 y WW = 2 w1=2 w2=2 0.5 2013-07-08 18:54:00
1 1986-03-07 12:00:00 rrr = 0.3 y WW = 2 w1=2 w2=1 0.3 2013-07-08 18:54:00
1 1986-03-08 12:00:00 rrr = 7.2 y WW = 1 w1=1 w2=0 7.2 2013-07-08 18:54:00
1 1986-03-10 12:00:00 rrr = 0.9 y WW = 2 w1=0 w2=0 0.9 2013-07-08 18:54:00
1 1986-03-14 12:00:00 rrr = 0.4 y WW = 2 w1=2 w2=2 0.4 2013-07-08 18:54:00
1 1986-03-20 12:00:00 rrr = 4.2 y WW = 2 w1=2 w2=2 4.2 2013-07-08 18:54:00
1 1986-04-04 12:00:00 rrr = 3.9 y WW = 1 w1=2 w2=2 3.9 2013-07-08 18:54:00
1 1986-04-07 12:00:00 rrr = 8.5 y WW = 3 w1=2 w2=2 8.5 2013-07-08 18:54:00
1 1986-04-10 12:00:00 rrr = 3.4 y WW = 2 w1=2 w2=2 3.4 2013-07-08 18:54:00
1 1986-04-16 12:00:00 rrr = 0.1 y WW = 2 w1=2 w2=2 0.1 2013-07-08 18:54:00
1 1986-04-19 12:00:00 rrr = 1.3 y WW = 2 w1=2 w2=2 1.3 2013-07-08 18:54:00
1 1986-04-22 12:00:00 rrr = 3.7 y WW = 2 w1=2 w2=2 3.7 2013-07-08 18:54:00
1 1986-04-27 12:00:00 rrr = 5.9 y WW = 2 w1=1 w2=0 5.9 2013-07-08 18:54:00
1 1986-05-02 12:00:00 rrr = 8.6 y WW = 2 w1=2 w2=2 8.6 2013-07-08 18:54:00
1 1986-05-04 12:00:00 rrr = 7.5 y WW = 2 w1=0 w2=0 7.5 2013-07-08 18:54:00
1 1986-05-11 12:00:00 rrr = 0.6 y WW = 2 w1=1 w2=1 0.6 2013-07-08 18:54:00
1 1986-05-18 12:00:00 rrr = 11.3 y WW = 2 w1=2 w2=2 11.3 2013-07-08 18:54:00
1 1986-05-19 12:00:00 rrr = 15.2 y WW = 2 w1=2 w2=2 15.2 2013-07-08 18:54:00
1 1986-05-21 12:00:00 rrr = 58.2 y WW = 2 w1=1 w2=1 58.2 2013-07-08 18:54:00
1 1986-05-23 12:00:00 rrr = 27.8 y WW = 2 w1=2 w2=2 27.8 2013-07-08 18:54:00
1 1986-05-25 12:00:00 rrr = 27.5 y WW = 2 w1=2 w2=2 27.5 2013-07-08 18:54:00
1 1986-05-27 12:00:00 rrr = 48.2 y WW = 2 w1=2 w2=2 48.2 2013-07-08 18:54:00
1 1986-05-28 12:00:00 rrr = 10.1 y WW = 2 w1=2 w2=2 10.1 2013-07-08 18:54:00
1 1986-05-29 12:00:00 rrr = 1.9 y WW = 2 w1=2 w2=2 1.9 2013-07-08 18:54:00
1 1986-06-03 12:00:00 rrr = 22.5 y WW = 2 w1=0 w2=0 22.5 2013-07-08 18:54:00
1 1986-06-04 12:00:00 rrr = 0.3 y WW = 2 w1=2 w2=2 0.3 2013-07-08 18:54:00
1 1986-06-05 12:00:00 rrr = 0.4 y WW = 2 w1=1 w2=1 0.4 2013-07-08 18:54:00
1 1986-06-09 12:00:00 rrr = 0.6 y WW = 2 w1=0 w2=0 0.6 2013-07-08 18:54:00
1 1986-06-11 12:00:00 rrr = 1.0 y WW = 2 w1=1 w2=1 1.0 2013-07-08 18:54:00
1 1986-06-12 12:00:00 rrr = 19.3 y WW = 2 w1=2 w2=2 19.3 2013-07-08 18:54:00
1 1986-06-13 12:00:00 rrr = 20.7 y WW = 2 w1=1 w2=1 20.7 2013-07-08 18:54:00
1 1986-06-14 12:00:00 rrr = 5.2 y WW = 2 w1=2 w2=2 5.2 2013-07-08 18:54:00
1 1986-06-16 12:00:00 rrr = 5.1 y WW = 2 w1=2 w2=2 5.1 2013-07-08 18:54:00
1 1986-06-18 12:00:00 rrr = 1.4 y WW = 2 w1=2 w2=2 1.4 2013-07-08 18:54:00
1 1986-06-24 12:00:00 rrr = 1.7 y WW = 2 w1=0 w2=0 1.7 2013-07-08 18:54:00
1 1986-06-27 12:00:00 rrr = 22.1 y WW = 2 w1=2 w2=2 22.1 2013-07-08 18:54:00
1 1986-07-03 12:00:00 rrr = 1.2 y WW = 2 w1=2 w2=2 1.2 2013-07-08 18:54:00
1 1986-07-06 12:00:00 rrr = trazas y WW = 2 w1=2 w2=2 0.0 2013-07-08 18:54:00
1 1986-07-09 12:00:00 rrr = 1.4 y WW = 2 w1=1 w2=1 1.4 2013-07-08 18:54:00
1 1986-07-11 12:00:00 rrr = 15.3 y WW = 2 w1=1 w2=1 15.3 2013-07-08 18:54:00
1 1986-07-22 12:00:00 rrr = 7.2 y WW = 2 w1=2 w2=2 7.2 2013-07-08 18:55:00
1 1986-07-23 12:00:00 rrr = 24.7 y WW = 2 w1=2 w2=2 24.7 2013-07-08 18:55:00
1 1986-07-26 12:00:00 rrr = 0.5 y WW = 2 w1=2 w2=2 0.5 2013-07-08 18:55:00
1 1986-07-28 12:00:00 rrr = 0.2 y WW = 2 w1=2 w2=2 0.2 2013-07-08 18:55:00
1 1986-07-30 12:00:00 rrr = 0.6 y WW = 2 w1=0 w2=0 0.6 2013-07-08 18:55:00
1 1986-08-05 12:00:00 rrr = 5.3 y WW = 2 w1=2 w2=2 5.3 2013-07-08 18:55:00
1 1986-08-09 12:00:00 rrr = 1.0 y WW = 2 w1=2 w2=2 1.0 2013-07-08 18:55:00
1 1986-08-10 12:00:00 rrr = 1.3 y WW = 2 w1=2 w2=2 1.3 2013-07-08 18:55:00
1 1986-08-21 12:00:00 rrr = 8.2 y WW = 2 w1=2 w2=2 8.2 2013-07-08 18:55:00
1 1986-09-03 12:00:00 rrr = 0.3 y WW = 2 w1=2 w2=2 0.3 2013-07-08 18:55:00
1 1986-09-08 12:00:00 rrr = 15.0 y WW = 2 w1=2 w2=2 15.0 2013-07-08 18:55:00
1 1986-09-14 12:00:00 rrr = 5.7 y WW = 2 w1=0 w2=0 5.7 2013-07-08 18:55:00
1 1986-09-20 12:00:00 rrr = 15.7 y WW = 5 w1=2 w2=2 15.7 2013-07-08 18:55:00
1 1986-10-07 12:00:00 rrr = 7.3 y WW = 2 w1=2 w2=2 7.3 2013-07-08 18:55:00
1 1986-10-08 12:00:00 rrr = 2.3 y WW = 2 w1=2 w2=2 2.3 2013-07-08 18:55:00
1 1986-10-10 12:00:00 rrr = 1.7 y WW = 2 w1=0 w2=0 1.7 2013-07-08 18:55:00
1 1986-10-15 12:00:00 rrr = 0.6 y WW = 2 w1=2 w2=2 0.6 2013-07-08 18:55:00
1 1986-10-16 12:00:00 rrr = 4.7 y WW = 2 w1=2 w2=2 4.7 2013-07-08 18:55:00
1 1986-10-17 12:00:00 rrr = 8.9 y WW = 1 w1=2 w2=0 8.9 2013-07-08 18:55:00
1 1986-10-27 12:00:00 rrr = 13.7 y WW = 2 w1=4 w2=4 13.7 2013-07-08 18:55:00
1 1986-11-20 12:00:00 rrr = 2.9 y WW = 2 w1=4 w2=2 2.9 2013-07-08 18:55:00
1 1986-11-28 12:00:00 rrr = 1.2 y WW = 2 w1=2 w2=2 1.2 2013-07-08 18:55:00
1 1986-11-29 12:00:00 rrr = 0.7 y WW = 2 w1=2 w2=2 0.7 2013-07-08 18:55:00
1 1986-12-04 12:00:00 rrr = 1.1 y WW = 1 w1=1 w2=0 1.1 2013-07-08 18:55:00
1 1986-12-23 12:00:00 rrr = 1.4 y WW = 10 w1=4 w2=4 1.4 2013-07-08 18:55:00
1 1987-01-24 12:00:00 rrr = 0.2 y WW = 3 w1=4 w2=4 0.2 2013-07-08 18:55:00
1 1987-01-31 12:00:00 rrr = 0.1 y WW = 15 w1=2 w2=2 0.1 2013-07-08 18:55:00
1 1987-02-04 12:00:00 rrr = 0.4 y WW = 3 w1=0 w2=0 0.4 2013-07-08 18:55:00
1 1987-02-21 12:00:00 rrr = 0.2 y WW = 2 w1=0 w2=0 0.2 2013-07-08 18:55:00
1 1987-03-23 12:00:00 rrr = 10.0 y WW = 10 w1=4 w2=4 10.0 2013-07-08 18:55:00
1 1987-03-24 12:00:00 rrr = 0.1 y WW = 2 w1=2 w2=2 0.1 2013-07-08 18:55:00
1 1987-03-26 12:00:00 rrr = 36.7 y WW = 2 w1=2 w2=2 36.7 2013-07-08 18:55:00
1 1987-03-28 12:00:00 rrr = 0.3 y WW = 3 w1=2 w2=2 0.3 2013-07-08 18:55:00
1 1987-04-01 12:00:00 rrr = 10.5 y WW = 10 w1=2 w2=2 10.5 2013-07-08 18:55:00
1 1987-04-08 12:00:00 rrr = 3.6 y WW = 2 w1=2 w2=1 3.6 2013-07-08 18:55:00
1 1987-04-10 12:00:00 rrr = 1.8 y WW = 1 w1=2 w2=2 1.8 2013-07-08 18:55:00
1 1987-04-16 12:00:00 rrr = 0.2 y WW = 2 w1=1 w2=1 0.2 2013-07-08 18:55:00
1 1987-04-17 12:00:00 rrr = 0.8 y WW = 2 w1=0 w2=0 0.8 2013-07-08 18:55:00
1 1987-05-07 12:00:00 rrr = 7.2 y WW = 2 w1=1 w2=1 7.2 2013-07-08 18:55:00
1 1987-05-08 12:00:00 rrr = 0.2 y WW = 2 w1=2 w2=2 0.2 2013-07-08 18:55:00
1 1987-05-11 12:00:00 rrr = 8.1 y WW = 2 w1=0 w2=0 8.1 2013-07-08 18:55:00
1 1987-05-16 12:00:00 rrr = 24.7 y WW = 10 w1=4 w2=1 24.7 2013-07-08 18:55:00
1 1987-06-01 12:00:00 rrr = 6.5 y WW = 10 w1=4 w2=4 6.5 2013-07-08 18:55:00
1 1987-06-05 12:00:00 rrr = 4.0 y WW = 10 w1=2 w2=2 4.0 2013-07-08 18:55:00
1 1987-06-06 12:00:00 rrr = 31.8 y WW = 2 w1=2 w2=2 31.8 2013-07-08 18:55:00
1 1987-06-09 12:00:00 rrr = 19.4 y WW = 2 w1=2 w2=2 19.4 2013-07-08 18:55:00
1 1987-06-12 12:00:00 rrr = 1.6 y WW = 2 w1=0 w2=0 1.6 2013-07-08 18:55:00
1 1987-06-15 12:00:00 rrr = 2.0 y WW = 2 w1=2 w2=2 2.0 2013-07-08 18:55:00
1 1987-06-16 12:00:00 rrr = 0.6 y WW = 2 w1=1 w2=1 0.6 2013-07-08 18:55:00
1 1987-06-17 12:00:00 rrr = 0.5 y WW = 2 w1=1 w2=1 0.5 2013-07-08 18:55:00
1 1987-06-25 12:00:00 rrr = 1.6 y WW = 10 w1=4 w2=2 1.6 2013-07-08 18:55:00
1 1987-07-10 12:00:00 rrr = 10.3 y WW = 1 w1=2 w2=2 10.3 2013-07-08 18:55:00
1 1987-07-14 12:00:00 rrr = 8.3 y WW = 2 w1=2 w2=2 8.3 2013-07-08 18:55:00
1 1987-07-16 12:00:00 rrr = 10.6 y WW = 2 w1=2 w2=2 10.6 2013-07-08 18:55:00
1 1987-07-20 12:00:00 rrr = 1.5 y WW = 10 w1=4 w2=1 1.5 2013-07-08 18:55:00
1 1987-07-26 12:00:00 rrr = 7.3 y WW = 2 w1=2 w2=2 7.3 2013-07-08 18:55:00
1 1987-07-30 12:00:00 rrr = 2.4 y WW = 10 w1=4 w2=4 2.4 2013-07-08 18:55:00
1 1987-08-04 12:00:00 rrr = 0.5 y WW = 2 w1=0 w2=0 0.5 2013-07-08 18:55:00
1 1987-08-16 12:00:00 rrr = 4.6 y WW = 2 w1=1 w2=1 4.6 2013-07-08 18:55:00
1 1987-08-25 12:00:00 rrr = 4.3 y WW = 2 w1=2 w2=2 4.3 2013-07-08 18:55:00
1 1987-08-28 12:00:00 rrr = 9.2 y WW = 2 w1=1 w2=1 9.2 2013-07-08 18:55:00
1 1987-08-29 12:00:00 rrr = 11.2 y WW = 2 w1=2 w2=2 11.2 2013-07-08 18:55:00
1 1987-08-31 12:00:00 rrr = 12.2 y WW = 2 w1=2 w2=2 12.2 2013-07-08 18:55:00
1 1987-09-04 12:00:00 rrr = 0.4 y WW = 10 w1=4 w2=4 0.4 2013-07-08 18:55:00
1 1987-09-07 12:00:00 rrr = 32.5 y WW = 2 w1=1 w2=1 32.5 2013-07-08 18:55:00
1 1987-09-09 12:00:00 rrr = 2.5 y WW = 3 w1=1 w2=1 2.5 2013-07-08 18:55:00
1 1987-09-10 12:00:00 rrr = 0.5 y WW = 2 w1=2 w2=2 0.5 2013-07-08 18:55:00
1 1987-09-14 12:00:00 rrr = 6.4 y WW = 1 w1=1 w2=0 6.4 2013-07-08 18:55:00
1 1987-09-15 12:00:00 rrr = 2.8 y WW = 2 w1=2 w2=1 2.8 2013-07-08 18:55:00
1 1987-09-26 12:00:00 rrr = 0.1 y WW = 10 w1=4 w2=4 0.1 2013-07-08 18:55:00
1 1987-09-29 12:00:00 rrr = 0.1 y WW = 2 w1=1 w2=0 0.1 2013-07-08 18:55:00
1 1987-11-07 12:00:00 rrr = 16.3 y WW = 3 w1=2 w2=2 16.3 2013-07-08 18:56:00
1 1987-11-08 12:00:00 rrr = 2.1 y WW = 2 w1=1 w2=1 2.1 2013-07-08 18:56:00
1 1987-11-28 12:00:00 rrr = 2.5 y WW = 10 w1=4 w2=4 2.5 2013-07-08 18:56:00
1 1987-12-01 12:00:00 rrr = 0.5 y WW = 2 w1=2 w2=2 0.5 2013-07-08 18:56:00
1 1987-12-18 12:00:00 rrr = 0.6 y WW = 10 w1=4 w2=4 0.6 2013-07-08 18:56:00
1 1988-05-11 18:00:00 rrr = 3.4 y WW = 2 w1=0 w2=0 3.4 2013-07-08 18:56:00
1 1988-05-15 18:00:00 rrr = 0.4 y WW = 2 w1=2 w2=2 0.4 2013-07-08 18:56:00
1 1988-06-16 18:00:00 rrr = 0.4 y WW = 2 w1=2 w2=2 0.4 2013-07-08 18:56:00
1 1988-11-01 12:00:00 rrr = 0.3 y WW = 2 w1=2 w2=2 0.3 2013-07-08 18:56:00
1 1988-11-06 12:00:00 rrr = 7.4 y WW = 2 w1=1 w2=1 7.4 2013-07-08 18:56:00
1 1988-11-07 12:00:00 rrr = 0.2 y WW = 1 w1=0 w2=0 0.2 2013-07-08 18:56:00
1 1988-11-13 12:00:00 rrr = 1.6 y WW = 2 w1=1 w2=1 1.6 2013-07-08 18:56:00
1 1988-11-17 12:00:00 rrr = 1.0 y WW = 1 w1=1 w2=0 1.0 2013-07-08 18:56:00
1 1988-11-25 12:00:00 rrr = 0.5 y WW = 2 w1=1 w2=1 0.5 2013-07-08 18:56:00
1 1988-12-04 12:00:00 rrr = 7.6 y WW = 2 w1=2 w2=2 7.6 2013-07-08 18:56:00
1 1988-12-07 12:00:00 rrr = 7.6 y WW = 2 w1=1 w2=1 7.6 2013-07-08 18:56:00
1 1988-12-15 12:00:00 rrr = 0.4 y WW = 2 w1=2 w2=2 0.4 2013-07-08 18:56:00
1 1988-12-19 12:00:00 rrr = 2.7 y WW = 2 w1=1 w2=1 2.7 2013-07-08 18:56:00
1 1988-12-23 12:00:00 rrr = 6.2 y WW = 2 w1=2 w2=2 6.2 2013-07-08 18:56:00
1 1989-01-17 12:00:00 rrr = 0.4 y WW = 1 w1=2 w2=2 0.4 2013-07-08 18:56:00
1 1989-01-18 12:00:00 rrr = 4.5 y WW = 2 w1=2 w2=2 4.5 2013-07-08 18:56:00
1 1989-01-19 12:00:00 rrr = 3.0 y WW = 2 w1=2 w2=2 3.0 2013-07-08 18:56:00
1 1989-02-23 12:00:00 rrr = 2.3 y WW = 2 w1=2 w2=2 2.3 2013-07-08 18:56:00
1 1989-02-27 12:00:00 rrr = 1.2 y WW = 10 w1=4 w2=4 1.2 2013-07-08 18:56:00
1 1989-06-24 12:00:00 rrr = 10.4 y WW = 10 w1=2 w2=2 10.4 2013-07-08 18:57:00
1 1989-10-29 12:00:00 rrr = 0.2 y WW = 2 w1=1 w2=1 0.2 2013-07-08 18:57:00
1 1989-11-08 12:00:00 rrr = 7.8 y WW = 2 w1=1 w2=1 7.8 2013-07-08 18:57:00
1 1989-11-15 12:00:00 rrr = trazas y WW = 2 w1=2 w2=2 0.0 2013-07-08 18:57:00
1 1989-11-16 12:00:00 rrr = 0.6 y WW = 2 w1=2 w2=2 0.6 2013-07-08 18:57:00
1 1989-11-24 12:00:00 rrr = 1.6 y WW = 2 w1=2 w2=2 1.6 2013-07-08 18:57:00
1 1989-12-13 12:00:00 rrr = trazas y WW = 2 w1=1 w2=1 0.0 2013-07-08 18:57:00
1 1989-12-19 12:00:00 rrr = 0.2 y WW = 2 w1=2 w2=2 0.2 2013-07-08 18:57:00
1 1989-12-30 12:00:00 rrr = 2.4 y WW = 2 w1=1 w2=1 2.4 2013-07-08 18:57:00
1 1990-01-29 12:00:00 rrr = 15.8 y WW = 1 w1=2 w2=2 15.8 2013-07-08 18:57:00
1 1990-03-07 12:00:00 rrr = 7.6 y WW = 11 w1=4 w2=4 7.6 2013-07-08 18:57:00
1 1990-03-20 18:00:00 rrr = 2.0 y WW = 2 w1=0 w2=0 2.0 2013-07-08 18:57:00
1 1990-07-27 18:00:00 rrr = trazas y WW = 16 w1=2 w2=2 0.0 2013-07-08 18:57:00
1 1990-09-21 12:00:00 rrr = 5.2 y WW = 2 w1=2 w2=2 5.2 2013-07-08 18:57:00
1 1990-10-08 12:00:00 rrr = 36.8 y WW = 10 w1=4 w2=4 36.8 2013-07-08 18:57:00
1 1990-11-06 12:00:00 rrr = 0.4 y WW = 2 w1=0 w2=0 0.4 2013-07-08 18:57:00
1 1990-11-10 12:00:00 rrr = 3.8 y WW = 2 w1=2 w2=2 3.8 2013-07-08 18:57:00
1 1990-11-19 12:00:00 rrr = 0.6 y WW = 3 w1=2 w2=2 0.6 2013-07-08 18:57:00
1 1990-11-20 12:00:00 rrr = 2.1 y WW = 2 w1=0 w2=0 2.1 2013-07-08 18:57:00
1 1990-11-22 12:00:00 rrr = 0.7 y WW = 2 w1=2 w2=2 0.7 2013-07-08 18:57:00
1 1991-10-15 12:00:00 rrr = 3.0 y WW = 2 w1=1 w2=1 3.0 2013-07-08 18:58:00
1 1991-11-08 12:00:00 rrr = 1.0 y WW = 2 w1=2 w2=2 1.0 2013-07-08 18:58:00
1 1991-11-11 18:00:00 rrr = 0.3 y WW = 3 w1=1 w2=0 0.3 2013-07-08 18:58:00
1 1991-12-07 12:00:00 rrr = 4.2 y WW = 2 w1=2 w2=2 4.2 2013-07-08 18:58:00
1 1991-12-26 12:00:00 rrr = 6.0 y WW = 2 w1=2 w2=2 6.0 2013-07-08 18:58:00
1 1991-12-27 12:00:00 rrr = 0.7 y WW = 15 w1=2 w2=2 0.7 2013-07-08 18:58:00
1 1994-10-26 12:00:00 rrr = 0.1 y WW = 2 w1=0 w2=0 0.1 2013-07-08 19:00:00
Errores del Nivel 851
Nivel Fecha del Dato Descripción Información Error Fecha Ingreso
2 1954-04-03 21:00:00 Variación horaria de Intensidad del viento fuera de rango (1 hora Antes) 140 - 10 2012-11-20 19:25:00
2 1954-04-03 21:00:00 Variación Tri-horaria de Intensidad del viento fuera de rango (3 hora Antes) 140 - 8 2012-11-20 19:25:00
2 1954-04-03 22:00:00 Variación horaria de Intensidad del viento fuera de rango (1 hora Antes) 6 - 140 2012-11-20 19:25:00
2 1954-11-03 20:00:00 Variación horaria de Intensidad del viento fuera de rango (1 hora Antes) 100 - 18 2013-01-04 15:03:00
2 1954-11-03 21:00:00 Variación horaria de Intensidad del viento fuera de rango (1 hora Antes) 10 - 100 2013-01-04 15:03:00
2 1970-01-21 18:00:00 Variación horaria de Intensidad del viento fuera de rango (1 hora Antes) 55 - 15 2013-07-09 03:49:00
2 1970-01-21 19:00:00 Variación horaria de Intensidad del viento fuera de rango (1 hora Antes) 12 - 55 2013-07-09 03:49:00
2 1970-05-16 10:00:00 Variación horaria de Intensidad del viento fuera de rango (1 hora Antes) 4 - 52 2013-07-09 03:50:00
2 1971-03-12 20:00:00 Variación horaria de Intensidad del viento fuera de rango (1 hora Antes) 8 - 50 2013-07-09 03:53:00
2 1971-07-07 18:00:00 Variación horaria de Intensidad del viento fuera de rango (1 hora Antes) 40 - 3 2013-07-09 03:54:00
2 1971-12-08 10:00:00 Variación horaria de Intensidad del viento fuera de rango (1 hora Antes) 12 - 52 2013-07-09 03:56:00
2 1973-12-25 00:00:00 Variación horaria de Intensidad del viento fuera de rango (1 hora Antes) 60 - 5 2013-07-09 04:03:00
2 1976-06-27 20:00:00 Variación horaria de Intensidad del viento fuera de rango (1 hora Antes) 51 - 8 2013-07-09 04:12:00
2 1976-06-27 21:00:00 Variación horaria de Intensidad del viento fuera de rango (1 hora Antes) 5 - 51 2013-07-09 04:12:00
2 1978-03-20 18:00:00 Variación horaria de Intensidad del viento fuera de rango (1 hora Antes) 50 - 5 2013-07-09 04:20:00
2 1978-03-20 19:00:00 Variación horaria de Intensidad del viento fuera de rango (1 hora Antes) 8 - 50 2013-07-09 04:20:00
2 1979-03-09 14:00:00 Variación horaria de Intensidad del viento fuera de rango (1 hora Antes) 50 - 0 2013-07-09 04:25:00
2 1979-03-09 15:00:00 Variación horaria de Intensidad del viento fuera de rango (1 hora Antes) 4 - 50 2013-07-09 04:25:00
2 1979-11-27 17:00:00 Variación horaria de Intensidad del viento fuera de rango (1 hora Antes) 40 - 0 2013-07-09 04:28:00
2 1979-11-27 18:00:00 Variación horaria de Intensidad del viento fuera de rango (1 hora Antes) 3 - 40 2013-07-09 04:28:00
2 1980-08-08 10:00:00 Variación horaria de Intensidad del viento fuera de rango (1 hora Antes) 5 - 40 2013-07-09 04:31:00
2 1981-10-08 18:00:00 Variación horaria de Intensidad del viento fuera de rango (1 hora Antes) 53 - 10 2013-07-09 04:37:00
2 1981-10-08 19:00:00 Variación horaria de Intensidad del viento fuera de rango (1 hora Antes) 0 - 53 2013-07-09 04:37:00
2 1985-11-08 12:00:00 Variación horaria de Intensidad del viento fuera de rango (1 hora Antes) 35 - 0 2013-07-09 04:52:00
2 1991-03-01 20:00:00 Variación horaria de Intensidad del viento fuera de rango (1 hora Antes) 99 - 12 2013-07-09 05:07:00
2 1954-04-10 00:00:00 Temperatura 13.0 del 09-04-1954 17:00, Mayor que la Máxima 12.1 10-04-1954 00:00 13.0 -- 12.1 2012-12-20 17:12:00
2 1954-04-20 00:00:00 Temperatura 14.6 del 19-04-1954 17:00, Mayor que la Máxima 14.2 20-04-1954 00:00 14.6 -- 14.2 2012-12-20 17:14:00
2 1954-04-21 00:00:00 Temperatura 14.0 del 20-04-1954 18:00, Mayor que la Máxima 13.5 21-04-1954 00:00 14.0 -- 13.5 2012-12-20 17:14:00
2 1954-05-02 00:00:00 Temperatura 14.0 del 01-05-1954 17:00, Mayor que la Máxima 13.8 02-05-1954 00:00 14.0 -- 13.8 2012-12-20 17:27:00
2 1954-11-16 00:00:00 Temperatura 15.5 del 15-11-1954 20:00, Mayor que la Máxima 15.4 16-11-1954 00:00 15.5 -- 15.4 2013-01-16 14:40:00
2 1954-12-13 00:00:00 Temperatura 15.3 del 12-12-1954 19:00, Mayor que la Máxima 13.0 13-12-1954 00:00 15.3 -- 13.0 2013-01-16 15:44:00
2 1954-12-15 00:00:00 Temperatura 14.2 del 14-12-1954 17:00, Mayor que la Máxima 13.6 15-12-1954 00:00 14.2 -- 13.6 2013-01-16 15:44:00
2 1965-10-31 00:00:00 Temperatura 16.8 del 30-10-1965 21:00, Mayor que la Máxima 16.7 31-10-1965 00:00 16.8 -- 16.7 2013-07-09 05:14:00
2 1965-11-15 00:00:00 Temperatura 12.5 del 14-11-1965 21:00, Mayor que la Máxima 12.3 15-11-1965 00:00 12.5 -- 12.3 2013-07-09 05:14:00
2 1965-12-02 00:00:00 Temperatura 12.5 del 01-12-1965 18:00, Mayor que la Máxima 12.4 02-12-1965 00:00 12.5 -- 12.4 2013-07-09 05:14:00
2 1965-12-31 00:00:00 Temperatura 18.6 del 30-12-1965 21:00, Mayor que la Máxima 18.4 31-12-1965 00:00 18.6 -- 18.4 2013-07-09 05:14:00
2 1966-01-09 00:00:00 Temperatura 18.1 del 08-01-1966 21:00, Mayor que la Máxima 18.0 09-01-1966 00:00 18.1 -- 18.0 2013-07-09 05:14:00
2 1966-01-26 00:00:00 Temperatura 26.0 del 25-01-1966 18:00, Mayor que la Máxima 23.3 26-01-1966 00:00 26.0 -- 23.3 2013-07-09 05:14:00
2 1966-02-04 00:00:00 Temperatura 13.8 del 03-02-1966 21:00, Mayor que la Máxima 13.4 04-02-1966 00:00 13.8 -- 13.4 2013-07-09 05:14:00
2 1966-03-08 00:00:00 Temperatura 14.5 del 07-03-1966 18:00, Mayor que la Máxima 14.2 08-03-1966 00:00 14.5 -- 14.2 2013-07-09 05:14:00
2 1966-05-24 00:00:00 Temperatura 11.2 del 23-05-1966 15:00, Mayor que la Máxima 10.2 24-05-1966 00:00 11.2 -- 10.2 2013-07-09 05:14:00
2 1966-06-07 00:00:00 Temperatura 7.8 del 06-06-1966 21:00, Mayor que la Máxima 7.6 07-06-1966 00:00 7.8 -- 7.6 2013-07-09 05:14:00
2 1966-08-02 00:00:00 Temperatura 8.3 del 01-08-1966 15:00, Mayor que la Máxima 7.4 02-08-1966 00:00 8.3 -- 7.4 2013-07-09 05:14:00
2 1966-09-06 00:00:00 Temperatura 7.5 del 05-09-1966 18:00, Mayor que la Máxima 7.4 06-09-1966 00:00 7.5 -- 7.4 2013-07-09 05:14:00
2 1966-09-08 00:00:00 Temperatura 7.9 del 07-09-1966 21:00, Mayor que la Máxima 7.8 08-09-1966 00:00 7.9 -- 7.8 2013-07-09 05:14:00
2 1966-10-31 00:00:00 Temperatura 17.9 del 30-10-1966 21:00, Mayor que la Máxima 17.8 31-10-1966 00:00 17.9 -- 17.8 2013-07-09 05:14:00
2 1966-11-13 00:00:00 Temperatura 13.9 del 12-11-1966 18:00, Mayor que la Máxima 12.7 13-11-1966 00:00 13.9 -- 12.7 2013-07-09 05:14:00
2 1966-12-10 00:00:00 Temperatura 13.4 del 09-12-1966 18:00, Mayor que la Máxima 13.3 10-12-1966 00:00 13.4 -- 13.3 2013-07-09 05:14:00
2 1966-12-29 00:00:00 Temperatura 19.4 del 28-12-1966 21:00, Mayor que la Máxima 18.8 29-12-1966 00:00 19.4 -- 18.8 2013-07-09 05:14:00
2 1967-02-19 00:00:00 Temperatura 18.1 del 18-02-1967 18:00, Mayor que la Máxima 17.8 19-02-1967 00:00 18.1 -- 17.8 2013-07-09 05:14:00
2 1967-03-19 00:00:00 Temperatura 15.4 del 18-03-1967 18:00, Mayor que la Máxima 15.0 19-03-1967 00:00 15.4 -- 15.0 2013-07-09 05:14:00
2 1967-05-10 00:00:00 Temperatura 14.2 del 09-05-1967 15:00, Mayor que la Máxima 14.1 10-05-1967 00:00 14.2 -- 14.1 2013-07-09 05:14:00
2 1967-07-09 00:00:00 Temperatura 10.7 del 08-07-1967 18:00, Mayor que la Máxima 10.4 09-07-1967 00:00 10.7 -- 10.4 2013-07-09 05:15:00
2 1967-07-13 00:00:00 Temperatura 8.4 del 12-07-1967 18:00, Mayor que la Máxima 7.9 13-07-1967 00:00 8.4 -- 7.9 2013-07-09 05:15:00
2 1967-08-28 00:00:00 Temperatura 8.0 del 27-08-1967 18:00, Mayor que la Máxima 7.1 28-08-1967 00:00 8.0 -- 7.1 2013-07-09 05:15:00
2 1967-10-25 00:00:00 Temperatura 18.1 del 24-10-1967 21:00, Mayor que la Máxima 17.9 25-10-1967 00:00 18.1 -- 17.9 2013-07-09 05:15:00
2 1967-10-31 00:00:00 Temperatura 13.0 del 30-10-1967 21:00, Mayor que la Máxima 10.9 31-10-1967 00:00 13.0 -- 10.9 2013-07-09 05:15:00
2 1967-12-02 00:00:00 Temperatura 11.5 del 01-12-1967 21:00, Mayor que la Máxima 11.4 02-12-1967 00:00 11.5 -- 11.4 2013-07-09 05:15:00
2 1967-12-06 00:00:00 Temperatura 19.5 del 05-12-1967 15:00, Mayor que la Máxima 18.8 06-12-1967 00:00 19.5 -- 18.8 2013-07-09 05:15:00
2 1967-12-16 00:00:00 Temperatura 16.0 del 15-12-1967 21:00, Mayor que la Máxima 15.8 16-12-1967 00:00 16.0 -- 15.8 2013-07-09 05:15:00
2 1968-01-04 00:00:00 Temperatura 26.0 del 03-01-1968 21:00, Mayor que la Máxima 25.2 04-01-1968 00:00 26.0 -- 25.2 2013-07-09 05:15:00
2 1968-02-10 00:00:00 Temperatura 17.8 del 10-02-1968 00:00, Mayor que la Máxima 14.9 10-02-1968 00:00 17.8 -- 14.9 2013-07-09 05:15:00
2 1968-03-13 00:00:00 Temperatura 14.8 del 12-03-1968 21:00, Mayor que la Máxima 14.7 13-03-1968 00:00 14.8 -- 14.7 2013-07-09 05:15:00
2 1968-03-23 00:00:00 Temperatura 13.0 del 23-03-1968 00:00, Mayor que la Máxima 12.8 23-03-1968 00:00 13.0 -- 12.8 2013-07-09 05:15:00
2 1968-04-03 00:00:00 Temperatura 16.5 del 02-04-1968 21:00, Mayor que la Máxima 16.0 03-04-1968 00:00 16.5 -- 16.0 2013-07-09 05:15:00
2 1968-05-13 00:00:00 Temperatura 14.4 del 12-05-1968 15:00, Mayor que la Máxima 14.2 13-05-1968 00:00 14.4 -- 14.2 2013-07-09 05:15:00
2 1968-05-27 00:00:00 Temperatura 14.3 del 26-05-1968 15:00, Mayor que la Máxima 12.4 27-05-1968 00:00 14.3 -- 12.4 2013-07-09 05:15:00
2 1969-04-07 00:00:00 Temperatura 16.6 del 06-04-1969 20:00, Mayor que la Máxima 16.1 07-04-1969 00:00 16.6 -- 16.1 2013-07-09 05:15:00
2 1969-04-23 00:00:00 Temperatura 16.6 del 22-04-1969 19:00, Mayor que la Máxima 16.4 23-04-1969 00:00 16.6 -- 16.4 2013-07-09 05:15:00
2 1969-04-30 00:00:00 Temperatura 13.4 del 29-04-1969 16:00, Mayor que la Máxima 13.3 30-04-1969 00:00 13.4 -- 13.3 2013-07-09 05:15:00
2 1969-05-07 00:00:00 Temperatura 11.9 del 06-05-1969 18:00, Mayor que la Máxima 11.8 07-05-1969 00:00 11.9 -- 11.8 2013-07-09 05:16:00
2 1969-06-02 00:00:00 Temperatura 10.4 del 01-06-1969 19:00, Mayor que la Máxima 10.2 02-06-1969 00:00 10.4 -- 10.2 2013-07-09 05:16:00
2 1969-06-19 00:00:00 Temperatura 8.8 del 18-06-1969 20:00, Mayor que la Máxima 8.7 19-06-1969 00:00 8.8 -- 8.7 2013-07-09 05:16:00
2 1969-10-02 00:00:00 Temperatura 11.0 del 01-10-1969 21:00, Mayor que la Máxima 1.7 02-10-1969 00:00 11.0 -- 1.7 2013-07-09 05:16:00
2 1969-10-27 00:00:00 Temperatura 11.4 del 26-10-1969 18:00, Mayor que la Máxima 11.3 27-10-1969 00:00 11.4 -- 11.3 2013-07-09 05:16:00
2 1969-11-15 00:00:00 Temperatura 14.0 del 14-11-1969 16:00, Mayor que la Máxima 13.1 15-11-1969 00:00 14.0 -- 13.1 2013-07-09 05:16:00
2 1969-11-21 00:00:00 Temperatura 19.0 del 20-11-1969 17:00, Mayor que la Máxima 18.8 21-11-1969 00:00 19.0 -- 18.8 2013-07-09 05:16:00
2 1969-11-25 00:00:00 Temperatura 14.9 del 24-11-1969 15:00, Mayor que la Máxima 12.3 25-11-1969 00:00 14.9 -- 12.3 2013-07-09 05:16:00
2 1969-12-09 00:00:00 Temperatura 18.0 del 08-12-1969 18:00, Mayor que la Máxima 17.0 09-12-1969 00:00 18.0 -- 17.0 2013-07-09 05:16:00
2 1969-12-21 00:00:00 Temperatura 16.9 del 20-12-1969 21:00, Mayor que la Máxima 16.4 21-12-1969 00:00 16.9 -- 16.4 2013-07-09 05:16:00
2 1970-01-30 00:00:00 Temperatura 18.6 del 29-01-1970 19:00, Mayor que la Máxima 16.8 30-01-1970 00:00 18.6 -- 16.8 2013-07-09 05:16:00
2 1970-03-13 00:00:00 Temperatura 16.3 del 12-03-1970 20:00, Mayor que la Máxima 16.0 13-03-1970 00:00 16.3 -- 16.0 2013-07-09 05:16:00
2 1970-04-16 00:00:00 Temperatura 13.9 del 15-04-1970 21:00, Mayor que la Máxima 13.7 16-04-1970 00:00 13.9 -- 13.7 2013-07-09 05:16:00
2 1970-04-18 00:00:00 Temperatura 16.6 del 17-04-1970 16:00, Mayor que la Máxima 16.4 18-04-1970 00:00 16.6 -- 16.4 2013-07-09 05:16:00
2 1970-04-19 00:00:00 Temperatura 22.8 del 18-04-1970 23:00, Mayor que la Máxima 16.0 19-04-1970 00:00 22.8 -- 16.0 2013-07-09 05:16:00
2 1970-04-28 00:00:00 Temperatura 21.3 del 27-04-1970 18:00, Mayor que la Máxima 14.0 28-04-1970 00:00 21.3 -- 14.0 2013-07-09 05:16:00
2 1970-05-12 00:00:00 Temperatura 15.0 del 11-05-1970 21:00, Mayor que la Máxima 14.3 12-05-1970 00:00 15.0 -- 14.3 2013-07-09 05:16:00
2 1970-05-18 00:00:00 Temperatura 12.9 del 17-05-1970 19:00, Mayor que la Máxima 12.4 18-05-1970 00:00 12.9 -- 12.4 2013-07-09 05:16:00
2 1970-05-21 00:00:00 Temperatura 11.3 del 20-05-1970 16:00, Mayor que la Máxima 11.2 21-05-1970 00:00 11.3 -- 11.2 2013-07-09 05:16:00
2 1970-05-22 00:00:00 Temperatura 12.1 del 21-05-1970 13:00, Mayor que la Máxima 12.0 22-05-1970 00:00 12.1 -- 12.0 2013-07-09 05:16:00
2 1970-06-02 00:00:00 Temperatura 10.2 del 01-06-1970 19:00, Mayor que la Máxima 1.1 02-06-1970 00:00 10.2 -- 1.1 2013-07-09 05:16:00
2 1970-06-16 00:00:00 Temperatura 11.2 del 15-06-1970 14:00, Mayor que la Máxima 10.9 16-06-1970 00:00 11.2 -- 10.9 2013-07-09 05:16:00
2 1970-06-21 00:00:00 Temperatura 10.8 del 20-06-1970 19:00, Mayor que la Máxima 10.6 21-06-1970 00:00 10.8 -- 10.6 2013-07-09 05:16:00
2 1970-06-27 00:00:00 Temperatura 8.6 del 26-06-1970 15:00, Mayor que la Máxima 8.2 27-06-1970 00:00 8.6 -- 8.2 2013-07-09 05:16:00
2 1970-07-01 00:00:00 Temperatura 29.0 del 30-06-1970 23:00, Mayor que la Máxima 5.3 01-07-1970 00:00 29.0 -- 5.3 2013-07-09 05:16:00
2 1970-07-04 00:00:00 Temperatura 6.4 del 03-07-1970 16:00, Mayor que la Máxima 6.1 04-07-1970 00:00 6.4 -- 6.1 2013-07-09 05:16:00
2 1970-07-11 00:00:00 Temperatura 10.2 del 10-07-1970 20:00, Mayor que la Máxima 9.1 11-07-1970 00:00 10.2 -- 9.1 2013-07-09 05:16:00
2 1970-07-12 00:00:00 Temperatura 7.2 del 11-07-1970 20:00, Mayor que la Máxima 7.1 12-07-1970 00:00 7.2 -- 7.1 2013-07-09 05:16:00
2 1970-07-18 00:00:00 Temperatura 9.4 del 17-07-1970 16:00, Mayor que la Máxima 9.1 18-07-1970 00:00 9.4 -- 9.1 2013-07-09 05:16:00
2 1970-07-20 00:00:00 Temperatura 9.9 del 19-07-1970 15:00, Mayor que la Máxima 9.3 20-07-1970 00:00 9.9 -- 9.3 2013-07-09 05:16:00
2 1970-07-22 00:00:00 Temperatura 10.5 del 21-07-1970 18:00, Mayor que la Máxima 10.2 22-07-1970 00:00 10.5 -- 10.2 2013-07-09 05:16:00
2 1970-08-01 00:00:00 Temperatura 10.9 del 31-07-1970 17:00, Mayor que la Máxima 10.6 01-08-1970 00:00 10.9 -- 10.6 2013-07-09 05:16:00
2 1970-08-03 00:00:00 Temperatura 9.7 del 02-08-1970 20:00, Mayor que la Máxima 9.6 03-08-1970 00:00 9.7 -- 9.6 2013-07-09 05:16:00
2 1970-08-07 00:00:00 Temperatura 9.8 del 06-08-1970 18:00, Mayor que la Máxima 9.3 07-08-1970 00:00 9.8 -- 9.3 2013-07-09 05:16:00
2 1970-08-09 00:00:00 Temperatura 11.3 del 08-08-1970 20:00, Mayor que la Máxima 11.2 09-08-1970 00:00 11.3 -- 11.2 2013-07-09 05:16:00
2 1970-08-11 00:00:00 Temperatura 9.5 del 10-08-1970 18:00, Mayor que la Máxima 9.3 11-08-1970 00:00 9.5 -- 9.3 2013-07-09 05:16:00
2 1970-08-17 00:00:00 Temperatura 9.8 del 16-08-1970 17:00, Mayor que la Máxima 9.4 17-08-1970 00:00 9.8 -- 9.4 2013-07-09 05:16:00
2 1970-08-31 00:00:00 Temperatura 9.6 del 30-08-1970 20:00, Mayor que la Máxima 8.7 31-08-1970 00:00 9.6 -- 8.7 2013-07-09 05:16:00
2 1970-09-23 00:00:00 Temperatura 9.8 del 22-09-1970 17:00, Mayor que la Máxima 9.6 23-09-1970 00:00 9.8 -- 9.6 2013-07-09 05:16:00
2 1970-09-24 00:00:00 Temperatura 11.1 del 23-09-1970 17:00, Mayor que la Máxima 10.2 24-09-1970 00:00 11.1 -- 10.2 2013-07-09 05:16:00
2 1970-09-30 00:00:00 Temperatura 15.0 del 29-09-1970 20:00, Mayor que la Máxima 14.3 30-09-1970 00:00 15.0 -- 14.3 2013-07-09 05:16:00
2 1970-10-05 00:00:00 Temperatura 10.0 del 04-10-1970 17:00, Mayor que la Máxima 1.1 05-10-1970 00:00 10.0 -- 1.1 2013-07-09 05:16:00
2 1970-10-22 00:00:00 Temperatura 18.6 del 21-10-1970 20:00, Mayor que la Máxima 18.2 22-10-1970 00:00 18.6 -- 18.2 2013-07-09 05:16:00
2 1970-12-10 00:00:00 Temperatura 11.9 del 09-12-1970 16:00, Mayor que la Máxima 11.5 10-12-1970 00:00 11.9 -- 11.5 2013-07-09 05:16:00
2 1970-12-11 00:00:00 Temperatura 9.8 del 10-12-1970 15:00, Mayor que la Máxima 1.5 11-12-1970 00:00 9.8 -- 1.5 2013-07-09 05:16:00
2 1970-12-29 00:00:00 Temperatura 13.4 del 28-12-1970 17:00, Mayor que la Máxima 13.0 29-12-1970 00:00 13.4 -- 13.0 2013-07-09 05:16:00
2 1971-01-05 00:00:00 Temperatura 13.2 del 04-01-1971 20:00, Mayor que la Máxima 13.1 05-01-1971 00:00 13.2 -- 13.1 2013-07-09 05:16:00
2 1971-03-29 00:00:00 Temperatura 14.3 del 28-03-1971 21:00, Mayor que la Máxima 14.1 29-03-1971 00:00 14.3 -- 14.1 2013-07-09 05:16:00
2 1971-04-09 00:00:00 Temperatura 12.5 del 08-04-1971 15:00, Mayor que la Máxima 10.8 09-04-1971 00:00 12.5 -- 10.8 2013-07-09 05:16:00
2 1971-04-24 00:00:00 Temperatura 21.4 del 23-04-1971 19:00, Mayor que la Máxima 20.2 24-04-1971 00:00 21.4 -- 20.2 2013-07-09 05:16:00
2 1971-05-07 00:00:00 Temperatura 13.9 del 06-05-1971 19:00, Mayor que la Máxima 13.5 07-05-1971 00:00 13.9 -- 13.5 2013-07-09 05:16:00
2 1971-05-13 00:00:00 Temperatura 12.0 del 12-05-1971 21:00, Mayor que la Máxima 11.0 13-05-1971 00:00 12.0 -- 11.0 2013-07-09 05:16:00
2 1971-05-25 00:00:00 Temperatura 9.4 del 24-05-1971 20:00, Mayor que la Máxima 9.2 25-05-1971 00:00 9.4 -- 9.2 2013-07-09 05:16:00
2 1971-05-29 00:00:00 Temperatura 9.6 del 28-05-1971 21:00, Mayor que la Máxima 8.7 29-05-1971 00:00 9.6 -- 8.7 2013-07-09 05:16:00
2 1971-06-01 00:00:00 Temperatura 10.6 del 31-05-1971 16:00, Mayor que la Máxima 10.3 01-06-1971 00:00 10.6 -- 10.3 2013-07-09 05:16:00
2 1971-06-04 00:00:00 Temperatura 12.4 del 03-06-1971 18:00, Mayor que la Máxima 10.1 04-06-1971 00:00 12.4 -- 10.1 2013-07-09 05:16:00
2 1971-06-14 00:00:00 Temperatura 8.4 del 13-06-1971 18:00, Mayor que la Máxima 1.0 14-06-1971 00:00 8.4 -- 1.0 2013-07-09 05:16:00
2 1971-06-18 00:00:00 Temperatura 9.0 del 17-06-1971 19:00, Mayor que la Máxima 8.3 18-06-1971 00:00 9.0 -- 8.3 2013-07-09 05:16:00
2 1971-06-29 00:00:00 Temperatura 15.8 del 28-06-1971 15:00, Mayor que la Máxima 8.4 29-06-1971 00:00 15.8 -- 8.4 2013-07-09 05:16:00
2 1971-07-14 00:00:00 Temperatura 10.1 del 13-07-1971 17:00, Mayor que la Máxima 8.3 14-07-1971 00:00 10.1 -- 8.3 2013-07-09 05:16:00
2 1971-07-17 00:00:00 Temperatura 20.0 del 16-07-1971 20:00, Mayor que la Máxima 10.0 17-07-1971 00:00 20.0 -- 10.0 2013-07-09 05:16:00
2 1971-08-04 00:00:00 Temperatura 7.8 del 03-08-1971 17:00, Mayor que la Máxima 7.0 04-08-1971 00:00 7.8 -- 7.0 2013-07-09 05:16:00
2 1971-08-18 00:00:00 Temperatura 7.5 del 17-08-1971 15:00, Mayor que la Máxima 7.4 18-08-1971 00:00 7.5 -- 7.4 2013-07-09 05:16:00
2 1971-09-06 00:00:00 Temperatura 10.2 del 05-09-1971 18:00, Mayor que la Máxima 1.2 06-09-1971 00:00 10.2 -- 1.2 2013-07-09 05:16:00
2 1971-09-07 00:00:00 Temperatura 9.8 del 06-09-1971 17:00, Mayor que la Máxima 9.3 07-09-1971 00:00 9.8 -- 9.3 2013-07-09 05:16:00
2 1971-09-21 00:00:00 Temperatura 9.6 del 20-09-1971 21:00, Mayor que la Máxima 9.4 21-09-1971 00:00 9.6 -- 9.4 2013-07-09 05:16:00
2 1971-09-26 00:00:00 Temperatura 11.5 del 25-09-1971 20:00, Mayor que la Máxima 10.1 26-09-1971 00:00 11.5 -- 10.1 2013-07-09 05:16:00
2 1971-10-27 00:00:00 Temperatura 20.3 del 26-10-1971 18:00, Mayor que la Máxima 20.0 27-10-1971 00:00 20.3 -- 20.0 2013-07-09 05:16:00
2 1971-11-14 00:00:00 Temperatura 21.4 del 13-11-1971 13:00, Mayor que la Máxima 13.4 14-11-1971 00:00 21.4 -- 13.4 2013-07-09 05:16:00
2 1971-12-03 00:00:00 Temperatura 13.0 del 02-12-1971 18:00, Mayor que la Máxima 0.0 03-12-1971 00:00 13.0 -- 0.0 2013-07-09 05:16:00
2 1972-01-29 00:00:00 Temperatura 16.4 del 28-01-1972 20:00, Mayor que la Máxima 16.3 29-01-1972 00:00 16.4 -- 16.3 2013-07-09 05:16:00
2 1972-02-02 00:00:00 Temperatura 14.4 del 01-02-1972 19:00, Mayor que la Máxima 14.0 02-02-1972 00:00 14.4 -- 14.0 2013-07-09 05:16:00
2 1972-04-08 00:00:00 Temperatura 16.4 del 08-04-1972 00:00, Mayor que la Máxima 16.2 08-04-1972 00:00 16.4 -- 16.2 2013-07-09 05:16:00
2 1972-04-19 00:00:00 Temperatura 15.4 del 18-04-1972 19:00, Mayor que la Máxima 15.2 19-04-1972 00:00 15.4 -- 15.2 2013-07-09 05:16:00
2 1972-05-03 00:00:00 Temperatura 11.3 del 02-05-1972 16:00, Mayor que la Máxima 10.8 03-05-1972 00:00 11.3 -- 10.8 2013-07-09 05:16:00
2 1972-06-18 00:00:00 Temperatura 13.6 del 17-06-1972 18:00, Mayor que la Máxima 13.0 18-06-1972 00:00 13.6 -- 13.0 2013-07-09 05:16:00
2 1972-06-27 00:00:00 Temperatura 16.4 del 26-06-1972 18:00, Mayor que la Máxima 8.0 27-06-1972 00:00 16.4 -- 8.0 2013-07-09 05:16:00
2 1972-06-29 00:00:00 Temperatura 8.6 del 28-06-1972 19:00, Mayor que la Máxima 7.4 29-06-1972 00:00 8.6 -- 7.4 2013-07-09 05:16:00
2 1972-07-12 00:00:00 Temperatura 10.6 del 11-07-1972 13:00, Mayor que la Máxima 8.6 12-07-1972 00:00 10.6 -- 8.6 2013-07-09 05:16:00
2 1972-07-20 00:00:00 Temperatura 5.8 del 19-07-1972 20:00, Mayor que la Máxima 5.6 20-07-1972 00:00 5.8 -- 5.6 2013-07-09 05:16:00
2 1972-07-25 00:00:00 Temperatura 6.9 del 24-07-1972 20:00, Mayor que la Máxima 6.5 25-07-1972 00:00 6.9 -- 6.5 2013-07-09 05:16:00
2 1972-08-01 00:00:00 Temperatura 12.5 del 31-07-1972 16:00, Mayor que la Máxima 12.4 01-08-1972 00:00 12.5 -- 12.4 2013-07-09 05:16:00
2 1972-08-13 00:00:00 Temperatura 11.4 del 12-08-1972 18:00, Mayor que la Máxima 1.3 13-08-1972 00:00 11.4 -- 1.3 2013-07-09 05:16:00
2 1972-09-13 00:00:00 Temperatura 11.6 del 12-09-1972 20:00, Mayor que la Máxima 11.4 13-09-1972 00:00 11.6 -- 11.4 2013-07-09 05:16:00
2 1972-11-19 00:00:00 Temperatura 19.2 del 18-11-1972 17:00, Mayor que la Máxima 2.4 19-11-1972 00:00 19.2 -- 2.4 2013-07-09 05:16:00
2 1972-12-10 00:00:00 Temperatura 16.2 del 09-12-1972 18:00, Mayor que la Máxima 16.0 10-12-1972 00:00 16.2 -- 16.0 2013-07-09 05:16:00
2 1973-04-29 00:00:00 Temperatura 10.4 del 28-04-1973 21:00, Mayor que la Máxima 10.0 29-04-1973 00:00 10.4 -- 10.0 2013-07-09 05:16:00
2 1973-04-30 00:00:00 Temperatura 11.2 del 29-04-1973 20:00, Mayor que la Máxima 11.0 30-04-1973 00:00 11.2 -- 11.0 2013-07-09 05:16:00
2 1973-05-04 00:00:00 Temperatura 10.2 del 03-05-1973 19:00, Mayor que la Máxima 10.0 04-05-1973 00:00 10.2 -- 10.0 2013-07-09 05:16:00
2 1973-05-27 00:00:00 Temperatura 12.0 del 26-05-1973 19:00, Mayor que la Máxima 11.4 27-05-1973 00:00 12.0 -- 11.4 2013-07-09 05:16:00
2 1973-06-28 00:00:00 Temperatura 10.5 del 27-06-1973 18:00, Mayor que la Máxima 9.4 28-06-1973 00:00 10.5 -- 9.4 2013-07-09 05:16:00
2 1973-07-10 00:00:00 Temperatura 10.3 del 09-07-1973 15:00, Mayor que la Máxima 10.0 10-07-1973 00:00 10.3 -- 10.0 2013-07-09 05:16:00
2 1973-07-17 00:00:00 Temperatura 9.3 del 16-07-1973 19:00, Mayor que la Máxima 8.2 17-07-1973 00:00 9.3 -- 8.2 2013-07-09 05:17:00
2 1973-08-28 00:00:00 Temperatura 10.2 del 27-08-1973 20:00, Mayor que la Máxima 10.0 28-08-1973 00:00 10.2 -- 10.0 2013-07-09 05:17:00
2 1973-08-31 00:00:00 Temperatura 10.5 del 30-08-1973 20:00, Mayor que la Máxima 10.0 31-08-1973 00:00 10.5 -- 10.0 2013-07-09 05:17:00
2 1973-09-03 00:00:00 Temperatura 11.2 del 02-09-1973 18:00, Mayor que la Máxima 11.0 03-09-1973 00:00 11.2 -- 11.0 2013-07-09 05:17:00
2 1973-09-04 00:00:00 Temperatura 8.7 del 03-09-1973 15:00, Mayor que la Máxima 8.0 04-09-1973 00:00 8.7 -- 8.0 2013-07-09 05:17:00
2 1973-09-10 00:00:00 Temperatura 11.0 del 09-09-1973 15:00, Mayor que la Máxima 10.8 10-09-1973 00:00 11.0 -- 10.8 2013-07-09 05:17:00
2 1973-09-20 00:00:00 Temperatura 12.0 del 19-09-1973 20:00, Mayor que la Máxima 11.4 20-09-1973 00:00 12.0 -- 11.4 2013-07-09 05:17:00
2 1973-09-29 00:00:00 Temperatura 12.4 del 28-09-1973 15:00, Mayor que la Máxima 11.6 29-09-1973 00:00 12.4 -- 11.6 2013-07-09 05:17:00
2 1973-10-09 00:00:00 Temperatura 10.7 del 08-10-1973 17:00, Mayor que la Máxima 10.4 09-10-1973 00:00 10.7 -- 10.4 2013-07-09 05:17:00
2 1973-10-11 00:00:00 Temperatura 9.4 del 10-10-1973 15:00, Mayor que la Máxima 8.0 11-10-1973 00:00 9.4 -- 8.0 2013-07-09 05:17:00
2 1973-10-12 00:00:00 Temperatura 10.5 del 11-10-1973 17:00, Mayor que la Máxima 10.4 12-10-1973 00:00 10.5 -- 10.4 2013-07-09 05:17:00
2 1973-10-23 00:00:00 Temperatura 10.0 del 22-10-1973 18:00, Mayor que la Máxima 9.8 23-10-1973 00:00 10.0 -- 9.8 2013-07-09 05:17:00
2 1973-11-10 00:00:00 Temperatura 15.0 del 09-11-1973 19:00, Mayor que la Máxima 14.8 10-11-1973 00:00 15.0 -- 14.8 2013-07-09 05:17:00
2 1973-11-13 00:00:00 Temperatura 15.2 del 12-11-1973 19:00, Mayor que la Máxima 14.8 13-11-1973 00:00 15.2 -- 14.8 2013-07-09 05:17:00
2 1973-11-15 00:00:00 Temperatura 14.0 del 14-11-1973 19:00, Mayor que la Máxima 13.6 15-11-1973 00:00 14.0 -- 13.6 2013-07-09 05:17:00
2 1973-11-19 00:00:00 Temperatura 14.7 del 18-11-1973 17:00, Mayor que la Máxima 14.0 19-11-1973 00:00 14.7 -- 14.0 2013-07-09 05:17:00
2 1973-11-28 00:00:00 Temperatura 16.5 del 27-11-1973 20:00, Mayor que la Máxima 15.8 28-11-1973 00:00 16.5 -- 15.8 2013-07-09 05:17:00
2 1973-12-01 00:00:00 Temperatura 13.6 del 30-11-1973 23:00, Mayor que la Máxima 13.4 01-12-1973 00:00 13.6 -- 13.4 2013-07-09 05:17:00
2 1973-12-02 00:00:00 Temperatura 15.8 del 01-12-1973 20:00, Mayor que la Máxima 15.5 02-12-1973 00:00 15.8 -- 15.5 2013-07-09 05:17:00
2 1973-12-05 00:00:00 Temperatura 15.4 del 04-12-1973 20:00, Mayor que la Máxima 14.2 05-12-1973 00:00 15.4 -- 14.2 2013-07-09 05:17:00
2 1973-12-10 00:00:00 Temperatura 14.8 del 09-12-1973 19:00, Mayor que la Máxima 14.6 10-12-1973 00:00 14.8 -- 14.6 2013-07-09 05:17:00
2 1973-12-13 00:00:00 Temperatura 14.0 del 12-12-1973 21:00, Mayor que la Máxima 13.8 13-12-1973 00:00 14.0 -- 13.8 2013-07-09 05:17:00
2 1973-12-22 00:00:00 Temperatura 16.0 del 21-12-1973 20:00, Mayor que la Máxima 15.8 22-12-1973 00:00 16.0 -- 15.8 2013-07-09 05:17:00
2 1974-01-07 00:00:00 Temperatura 13.8 del 06-01-1974 20:00, Mayor que la Máxima 13.2 07-01-1974 00:00 13.8 -- 13.2 2013-07-09 05:17:00
2 1974-01-09 00:00:00 Temperatura 13.0 del 08-01-1974 16:00, Mayor que la Máxima 12.8 09-01-1974 00:00 13.0 -- 12.8 2013-07-09 05:17:00
2 1974-01-11 00:00:00 Temperatura 15.4 del 10-01-1974 22:00, Mayor que la Máxima 15.2 11-01-1974 00:00 15.4 -- 15.2 2013-07-09 05:17:00
2 1974-01-13 00:00:00 Temperatura 13.2 del 12-01-1974 20:00, Mayor que la Máxima 12.8 13-01-1974 00:00 13.2 -- 12.8 2013-07-09 05:17:00
2 1974-01-15 00:00:00 Temperatura 16.8 del 14-01-1974 20:00, Mayor que la Máxima 16.4 15-01-1974 00:00 16.8 -- 16.4 2013-07-09 05:17:00
2 1974-01-17 00:00:00 Temperatura 15.4 del 16-01-1974 17:00, Mayor que la Máxima 1.5 17-01-1974 00:00 15.4 -- 1.5 2013-07-09 05:17:00
2 1974-02-01 00:00:00 Temperatura 17.2 del 31-01-1974 19:00, Mayor que la Máxima 16.9 01-02-1974 00:00 17.2 -- 16.9 2013-07-09 05:17:00
2 1974-02-04 00:00:00 Temperatura 14.0 del 03-02-1974 17:00, Mayor que la Máxima 13.6 04-02-1974 00:00 14.0 -- 13.6 2013-07-09 05:17:00
2 1974-02-05 00:00:00 Temperatura 14.0 del 04-02-1974 20:00, Mayor que la Máxima 13.6 05-02-1974 00:00 14.0 -- 13.6 2013-07-09 05:17:00
2 1974-02-09 00:00:00 Temperatura 17.4 del 08-02-1974 19:00, Mayor que la Máxima 17.2 09-02-1974 00:00 17.4 -- 17.2 2013-07-09 05:17:00
2 1974-02-15 00:00:00 Temperatura 25.8 del 14-02-1974 21:00, Mayor que la Máxima 2.6 15-02-1974 00:00 25.8 -- 2.6 2013-07-09 05:17:00
2 1974-02-16 00:00:00 Temperatura 26.6 del 15-02-1974 21:00, Mayor que la Máxima 26.2 16-02-1974 00:00 26.6 -- 26.2 2013-07-09 05:17:00
2 1974-03-13 00:00:00 Temperatura 14.4 del 12-03-1974 19:00, Mayor que la Máxima 14.2 13-03-1974 00:00 14.4 -- 14.2 2013-07-09 05:17:00
2 1974-03-15 00:00:00 Temperatura 12.4 del 14-03-1974 22:00, Mayor que la Máxima 10.0 15-03-1974 00:00 12.4 -- 10.0 2013-07-09 05:17:00
2 1974-03-21 00:00:00 Temperatura 21.2 del 20-03-1974 18:00, Mayor que la Máxima 19.6 21-03-1974 00:00 21.2 -- 19.6 2013-07-09 05:17:00
2 1974-03-28 00:00:00 Temperatura 13.6 del 27-03-1974 14:00, Mayor que la Máxima 12.3 28-03-1974 00:00 13.6 -- 12.3 2013-07-09 05:17:00
2 1974-04-30 00:00:00 Temperatura 10.8 del 29-04-1974 20:00, Mayor que la Máxima 9.7 30-04-1974 00:00 10.8 -- 9.7 2013-07-09 05:17:00
2 1974-05-01 00:00:00 Temperatura 13.8 del 30-04-1974 16:00, Mayor que la Máxima 12.8 01-05-1974 00:00 13.8 -- 12.8 2013-07-09 05:17:00
2 1974-05-06 00:00:00 Temperatura 12.4 del 05-05-1974 16:00, Mayor que la Máxima 11.8 06-05-1974 00:00 12.4 -- 11.8 2013-07-09 05:17:00
2 1974-05-07 00:00:00 Temperatura 11.6 del 06-05-1974 20:00, Mayor que la Máxima 11.3 07-05-1974 00:00 11.6 -- 11.3 2013-07-09 05:17:00
2 1974-05-10 00:00:00 Temperatura 13.8 del 09-05-1974 19:00, Mayor que la Máxima 13.6 10-05-1974 00:00 13.8 -- 13.6 2013-07-09 05:17:00
2 1974-05-22 00:00:00 Temperatura 10.0 del 21-05-1974 19:00, Mayor que la Máxima 9.9 22-05-1974 00:00 10.0 -- 9.9 2013-07-09 05:17:00
2 1974-06-03 00:00:00 Temperatura 9.1 del 02-06-1974 19:00, Mayor que la Máxima 8.6 03-06-1974 00:00 9.1 -- 8.6 2013-07-09 05:17:00
2 1974-06-25 00:00:00 Temperatura 11.0 del 24-06-1974 16:00, Mayor que la Máxima 9.2 25-06-1974 00:00 11.0 -- 9.2 2013-07-09 05:17:00
2 1974-06-26 00:00:00 Temperatura 9.3 del 25-06-1974 14:00, Mayor que la Máxima 9.2 26-06-1974 00:00 9.3 -- 9.2 2013-07-09 05:17:00
2 1974-07-05 00:00:00 Temperatura 9.4 del 04-07-1974 20:00, Mayor que la Máxima 9.1 05-07-1974 00:00 9.4 -- 9.1 2013-07-09 05:17:00
2 1974-07-22 00:00:00 Temperatura 7.2 del 21-07-1974 20:00, Mayor que la Máxima 7.1 22-07-1974 00:00 7.2 -- 7.1 2013-07-09 05:17:00
2 1974-07-26 00:00:00 Temperatura 9.6 del 25-07-1974 20:00, Mayor que la Máxima 9.2 26-07-1974 00:00 9.6 -- 9.2 2013-07-09 05:17:00
2 1974-07-28 00:00:00 Temperatura 10.0 del 27-07-1974 19:00, Mayor que la Máxima 9.6 28-07-1974 00:00 10.0 -- 9.6 2013-07-09 05:17:00
2 1974-07-31 00:00:00 Temperatura 9.3 del 30-07-1974 20:00, Mayor que la Máxima 9.2 31-07-1974 00:00 9.3 -- 9.2 2013-07-09 05:17:00
2 1974-08-13 00:00:00 Temperatura 11.2 del 12-08-1974 18:00, Mayor que la Máxima 11.0 13-08-1974 00:00 11.2 -- 11.0 2013-07-09 05:17:00
2 1974-08-20 00:00:00 Temperatura 11.0 del 19-08-1974 17:00, Mayor que la Máxima 10.7 20-08-1974 00:00 11.0 -- 10.7 2013-07-09 05:17:00
2 1974-08-21 00:00:00 Temperatura 10.0 del 20-08-1974 16:00, Mayor que la Máxima 9.9 21-08-1974 00:00 10.0 -- 9.9 2013-07-09 05:17:00
2 1974-09-05 00:00:00 Temperatura 12.0 del 04-09-1974 21:00, Mayor que la Máxima 11.9 05-09-1974 00:00 12.0 -- 11.9 2013-07-09 05:17:00
2 1974-09-08 00:00:00 Temperatura 11.0 del 07-09-1974 21:00, Mayor que la Máxima 10.4 08-09-1974 00:00 11.0 -- 10.4 2013-07-09 05:17:00
2 1974-09-14 00:00:00 Temperatura 10.7 del 13-09-1974 16:00, Mayor que la Máxima 10.4 14-09-1974 00:00 10.7 -- 10.4 2013-07-09 05:17:00
2 1974-09-23 00:00:00 Temperatura 16.8 del 22-09-1974 20:00, Mayor que la Máxima 12.6 23-09-1974 00:00 16.8 -- 12.6 2013-07-09 05:17:00
2 1974-09-30 00:00:00 Temperatura 14.2 del 29-09-1974 19:00, Mayor que la Máxima 14.0 30-09-1974 00:00 14.2 -- 14.0 2013-07-09 05:17:00
2 1974-10-08 00:00:00 Temperatura 17.1 del 07-10-1974 20:00, Mayor que la Máxima 15.2 08-10-1974 00:00 17.1 -- 15.2 2013-07-09 05:17:00
2 1974-10-17 00:00:00 Temperatura 12.2 del 16-10-1974 21:00, Mayor que la Máxima 12.0 17-10-1974 00:00 12.2 -- 12.0 2013-07-09 05:17:00
2 1974-10-24 00:00:00 Temperatura 7.5 del 23-10-1974 19:00, Mayor que la Máxima 7.0 24-10-1974 00:00 7.5 -- 7.0 2013-07-09 05:17:00
2 1974-11-01 00:00:00 Temperatura 17.2 del 31-10-1974 19:00, Mayor que la Máxima 17.0 01-11-1974 00:00 17.2 -- 17.0 2013-07-09 05:17:00
2 1974-11-28 00:00:00 Temperatura 11.4 del 27-11-1974 22:00, Mayor que la Máxima 11.2 28-11-1974 00:00 11.4 -- 11.2 2013-07-09 05:17:00
2 1974-12-04 00:00:00 Temperatura 19.0 del 03-12-1974 23:00, Mayor que la Máxima 18.8 04-12-1974 00:00 19.0 -- 18.8 2013-07-09 05:17:00
2 1974-12-25 00:00:00 Temperatura 15.0 del 24-12-1974 20:00, Mayor que la Máxima 14.2 25-12-1974 00:00 15.0 -- 14.2 2013-07-09 05:17:00
2 1974-12-27 00:00:00 Temperatura 14.6 del 26-12-1974 20:00, Mayor que la Máxima 5.5 27-12-1974 00:00 14.6 -- 5.5 2013-07-09 05:17:00
2 1974-12-29 00:00:00 Temperatura 14.0 del 28-12-1974 17:00, Mayor que la Máxima 4.0 29-12-1974 00:00 14.0 -- 4.0 2013-07-09 05:17:00
2 1975-01-01 00:00:00 Temperatura 21.4 del 31-12-1974 22:00, Mayor que la Máxima 21.0 01-01-1975 00:00 21.4 -- 21.0 2013-07-09 05:17:00
2 1975-01-03 00:00:00 Temperatura 17.7 del 02-01-1975 13:00, Mayor que la Máxima 17.0 03-01-1975 00:00 17.7 -- 17.0 2013-07-09 05:17:00
2 1975-01-12 00:00:00 Temperatura 19.4 del 11-01-1975 20:00, Mayor que la Máxima 2.0 12-01-1975 00:00 19.4 -- 2.0 2013-07-09 05:17:00
2 1975-01-22 00:00:00 Temperatura 13.3 del 21-01-1975 21:00, Mayor que la Máxima 13.2 22-01-1975 00:00 13.3 -- 13.2 2013-07-09 05:17:00
2 1975-01-30 00:00:00 Temperatura 21.0 del 29-01-1975 22:00, Mayor que la Máxima 2.1 30-01-1975 00:00 21.0 -- 2.1 2013-07-09 05:17:00
2 1975-02-10 00:00:00 Temperatura 14.4 del 09-02-1975 19:00, Mayor que la Máxima 14.3 10-02-1975 00:00 14.4 -- 14.3 2013-07-09 05:17:00
2 1975-03-02 00:00:00 Temperatura 15.4 del 01-03-1975 21:00, Mayor que la Máxima 15.2 02-03-1975 00:00 15.4 -- 15.2 2013-07-09 05:17:00
2 1975-03-13 00:00:00 Temperatura 15.0 del 12-03-1975 20:00, Mayor que la Máxima 14.8 13-03-1975 00:00 15.0 -- 14.8 2013-07-09 05:17:00
2 1975-03-20 00:00:00 Temperatura 18.6 del 19-03-1975 21:00, Mayor que la Máxima 17.6 20-03-1975 00:00 18.6 -- 17.6 2013-07-09 05:17:00
2 1975-04-01 00:00:00 Temperatura 13.0 del 31-03-1975 17:00, Mayor que la Máxima 12.4 01-04-1975 00:00 13.0 -- 12.4 2013-07-09 05:17:00
2 1975-04-07 00:00:00 Temperatura 11.3 del 06-04-1975 13:00, Mayor que la Máxima 10.6 07-04-1975 00:00 11.3 -- 10.6 2013-07-09 05:17:00
2 1975-04-08 00:00:00 Temperatura 12.0 del 07-04-1975 20:00, Mayor que la Máxima 11.8 08-04-1975 00:00 12.0 -- 11.8 2013-07-09 05:17:00
2 1975-04-14 00:00:00 Temperatura 14.4 del 13-04-1975 13:00, Mayor que la Máxima 13.1 14-04-1975 00:00 14.4 -- 13.1 2013-07-09 05:17:00
2 1975-04-17 00:00:00 Temperatura 12.8 del 16-04-1975 15:00, Mayor que la Máxima 12.5 17-04-1975 00:00 12.8 -- 12.5 2013-07-09 05:17:00
2 1975-04-20 00:00:00 Temperatura 15.0 del 19-04-1975 20:00, Mayor que la Máxima 14.8 20-04-1975 00:00 15.0 -- 14.8 2013-07-09 05:17:00
2 1975-05-03 00:00:00 Temperatura 12.2 del 02-05-1975 14:00, Mayor que la Máxima 12.1 03-05-1975 00:00 12.2 -- 12.1 2013-07-09 05:17:00
2 1975-05-17 00:00:00 Temperatura 13.0 del 16-05-1975 21:00, Mayor que la Máxima 3.0 17-05-1975 00:00 13.0 -- 3.0 2013-07-09 05:17:00
2 1975-05-22 00:00:00 Temperatura 13.3 del 21-05-1975 16:00, Mayor que la Máxima 13.1 22-05-1975 00:00 13.3 -- 13.1 2013-07-09 05:17:00
2 1975-05-30 00:00:00 Temperatura 12.0 del 29-05-1975 19:00, Mayor que la Máxima 11.6 30-05-1975 00:00 12.0 -- 11.6 2013-07-09 05:17:00
2 1975-05-31 00:00:00 Temperatura 8.2 del 30-05-1975 13:00, Mayor que la Máxima 7.6 31-05-1975 00:00 8.2 -- 7.6 2013-07-09 05:17:00
2 1975-06-02 00:00:00 Temperatura 8.2 del 01-06-1975 21:00, Mayor que la Máxima 8.0 02-06-1975 00:00 8.2 -- 8.0 2013-07-09 05:17:00
2 1975-06-14 00:00:00 Temperatura 11.6 del 13-06-1975 20:00, Mayor que la Máxima 11.3 14-06-1975 00:00 11.6 -- 11.3 2013-07-09 05:17:00
2 1975-06-18 00:00:00 Temperatura 10.9 del 17-06-1975 16:00, Mayor que la Máxima 10.4 18-06-1975 00:00 10.9 -- 10.4 2013-07-09 05:17:00
2 1975-06-30 00:00:00 Temperatura 11.4 del 29-06-1975 17:00, Mayor que la Máxima 11.2 30-06-1975 00:00 11.4 -- 11.2 2013-07-09 05:17:00
2 1975-07-01 00:00:00 Temperatura 11.4 del 30-06-1975 19:00, Mayor que la Máxima 11.0 01-07-1975 00:00 11.4 -- 11.0 2013-07-09 05:17:00
2 1975-07-04 00:00:00 Temperatura 11.0 del 03-07-1975 14:00, Mayor que la Máxima 9.9 04-07-1975 00:00 11.0 -- 9.9 2013-07-09 05:17:00
2 1975-07-10 00:00:00 Temperatura 6.0 del 09-07-1975 20:00, Mayor que la Máxima 5.8 10-07-1975 00:00 6.0 -- 5.8 2013-07-09 05:17:00
2 1975-07-14 00:00:00 Temperatura 8.4 del 13-07-1975 20:00, Mayor que la Máxima 8.3 14-07-1975 00:00 8.4 -- 8.3 2013-07-09 05:17:00
2 1975-07-20 00:00:00 Temperatura 9.8 del 19-07-1975 20:00, Mayor que la Máxima 9.0 20-07-1975 00:00 9.8 -- 9.0 2013-07-09 05:17:00
2 1975-07-28 00:00:00 Temperatura 7.8 del 27-07-1975 17:00, Mayor que la Máxima 7.5 28-07-1975 00:00 7.8 -- 7.5 2013-07-09 05:17:00
2 1975-08-01 00:00:00 Temperatura 10.5 del 31-07-1975 16:00, Mayor que la Máxima 10.3 01-08-1975 00:00 10.5 -- 10.3 2013-07-09 05:17:00
2 1975-08-06 00:00:00 Temperatura 7.3 del 05-08-1975 20:00, Mayor que la Máxima 7.0 06-08-1975 00:00 7.3 -- 7.0 2013-07-09 05:17:00
2 1975-08-11 00:00:00 Temperatura 10.5 del 10-08-1975 21:00, Mayor que la Máxima 10.4 11-08-1975 00:00 10.5 -- 10.4 2013-07-09 05:17:00
2 1975-08-16 00:00:00 Temperatura 10.2 del 15-08-1975 22:00, Mayor que la Máxima 9.7 16-08-1975 00:00 10.2 -- 9.7 2013-07-09 05:17:00
2 1975-08-19 00:00:00 Temperatura 9.2 del 18-08-1975 17:00, Mayor que la Máxima 8.0 19-08-1975 00:00 9.2 -- 8.0 2013-07-09 05:17:00
2 1975-08-22 00:00:00 Temperatura 7.2 del 21-08-1975 19:00, Mayor que la Máxima 7.0 22-08-1975 00:00 7.2 -- 7.0 2013-07-09 05:17:00
2 1975-08-24 00:00:00 Temperatura 7.2 del 23-08-1975 21:00, Mayor que la Máxima 7.0 24-08-1975 00:00 7.2 -- 7.0 2013-07-09 05:17:00
2 1975-08-25 00:00:00 Temperatura 6.7 del 24-08-1975 18:00, Mayor que la Máxima 6.1 25-08-1975 00:00 6.7 -- 6.1 2013-07-09 05:17:00
2 1975-08-27 00:00:00 Temperatura 8.4 del 26-08-1975 19:00, Mayor que la Máxima 8.2 27-08-1975 00:00 8.4 -- 8.2 2013-07-09 05:17:00
2 1975-08-30 00:00:00 Temperatura 9.8 del 29-08-1975 17:00, Mayor que la Máxima 9.3 30-08-1975 00:00 9.8 -- 9.3 2013-07-09 05:17:00
2 1975-09-03 00:00:00 Temperatura 9.5 del 02-09-1975 16:00, Mayor que la Máxima 9.4 03-09-1975 00:00 9.5 -- 9.4 2013-07-09 05:17:00
2 1975-09-04 00:00:00 Temperatura 10.8 del 03-09-1975 20:00, Mayor que la Máxima 0.8 04-09-1975 00:00 10.8 -- 0.8 2013-07-09 05:17:00
2 1975-09-11 00:00:00 Temperatura 8.4 del 10-09-1975 17:00, Mayor que la Máxima 7.6 11-09-1975 00:00 8.4 -- 7.6 2013-07-09 05:17:00
2 1975-09-15 00:00:00 Temperatura 11.2 del 14-09-1975 18:00, Mayor que la Máxima 11.0 15-09-1975 00:00 11.2 -- 11.0 2013-07-09 05:17:00
2 1975-09-21 00:00:00 Temperatura 13.4 del 20-09-1975 22:00, Mayor que la Máxima 13.0 21-09-1975 00:00 13.4 -- 13.0 2013-07-09 05:17:00
2 1975-09-23 00:00:00 Temperatura 15.0 del 22-09-1975 19:00, Mayor que la Máxima 14.6 23-09-1975 00:00 15.0 -- 14.6 2013-07-09 05:17:00
2 1975-09-24 00:00:00 Temperatura 14.0 del 23-09-1975 18:00, Mayor que la Máxima 11.0 24-09-1975 00:00 14.0 -- 11.0 2013-07-09 05:17:00
2 1975-09-26 00:00:00 Temperatura 11.0 del 25-09-1975 18:00, Mayor que la Máxima 10.7 26-09-1975 00:00 11.0 -- 10.7 2013-07-09 05:17:00
2 1975-10-05 00:00:00 Temperatura 9.6 del 04-10-1975 16:00, Mayor que la Máxima 9.0 05-10-1975 00:00 9.6 -- 9.0 2013-07-09 05:17:00
2 1975-10-15 00:00:00 Temperatura 10.8 del 14-10-1975 16:00, Mayor que la Máxima 10.6 15-10-1975 00:00 10.8 -- 10.6 2013-07-09 05:17:00
2 1975-10-20 00:00:00 Temperatura 11.0 del 19-10-1975 16:00, Mayor que la Máxima 10.8 20-10-1975 00:00 11.0 -- 10.8 2013-07-09 05:17:00
2 1975-11-11 00:00:00 Temperatura 13.3 del 10-11-1975 19:00, Mayor que la Máxima 13.0 11-11-1975 00:00 13.3 -- 13.0 2013-07-09 05:17:00
2 1975-11-14 00:00:00 Temperatura 13.0 del 13-11-1975 14:00, Mayor que la Máxima 12.2 14-11-1975 00:00 13.0 -- 12.2 2013-07-09 05:17:00
2 1975-11-22 00:00:00 Temperatura 12.4 del 21-11-1975 18:00, Mayor que la Máxima 12.0 22-11-1975 00:00 12.4 -- 12.0 2013-07-09 05:17:00
2 1975-11-23 00:00:00 Temperatura 11.4 del 22-11-1975 17:00, Mayor que la Máxima 11.2 23-11-1975 00:00 11.4 -- 11.2 2013-07-09 05:17:00
2 1975-11-28 00:00:00 Temperatura 12.3 del 27-11-1975 13:00, Mayor que la Máxima 12.0 28-11-1975 00:00 12.3 -- 12.0 2013-07-09 05:17:00
2 1976-02-02 00:00:00 Temperatura 15.4 del 01-02-1976 19:00, Mayor que la Máxima 15.0 02-02-1976 00:00 15.4 -- 15.0 2013-07-09 05:17:00
2 1976-02-17 00:00:00 Temperatura 17.9 del 16-02-1976 21:00, Mayor que la Máxima 17.4 17-02-1976 00:00 17.9 -- 17.4 2013-07-09 05:17:00
2 1976-02-27 00:00:00 Temperatura 14.2 del 26-02-1976 17:00, Mayor que la Máxima 14.0 27-02-1976 00:00 14.2 -- 14.0 2013-07-09 05:17:00
2 1976-03-05 00:00:00 Temperatura 14.4 del 04-03-1976 19:00, Mayor que la Máxima 14.2 05-03-1976 00:00 14.4 -- 14.2 2013-07-09 05:17:00
2 1976-03-07 00:00:00 Temperatura 12.3 del 06-03-1976 22:00, Mayor que la Máxima 12.2 07-03-1976 00:00 12.3 -- 12.2 2013-07-09 05:17:00
2 1976-03-10 00:00:00 Temperatura 14.7 del 09-03-1976 19:00, Mayor que la Máxima 14.6 10-03-1976 00:00 14.7 -- 14.6 2013-07-09 05:17:00
2 1976-03-21 00:00:00 Temperatura 14.1 del 20-03-1976 20:00, Mayor que la Máxima 12.6 21-03-1976 00:00 14.1 -- 12.6 2013-07-09 05:17:00
2 1976-03-30 00:00:00 Temperatura 15.1 del 29-03-1976 18:00, Mayor que la Máxima 15.0 30-03-1976 00:00 15.1 -- 15.0 2013-07-09 05:17:00
2 1976-05-06 00:00:00 Temperatura 12.2 del 05-05-1976 18:00, Mayor que la Máxima 1.3 06-05-1976 00:00 12.2 -- 1.3 2013-07-09 05:17:00
2 1976-05-26 00:00:00 Temperatura 12.4 del 25-05-1976 20:00, Mayor que la Máxima 12.0 26-05-1976 00:00 12.4 -- 12.0 2013-07-09 05:17:00
2 1976-05-28 00:00:00 Temperatura 12.9 del 27-05-1976 13:00, Mayor que la Máxima 12.7 28-05-1976 00:00 12.9 -- 12.7 2013-07-09 05:17:00
2 1976-08-04 00:00:00 Temperatura 10.1 del 03-08-1976 17:00, Mayor que la Máxima 10.0 04-08-1976 00:00 10.1 -- 10.0 2013-07-09 05:17:00
2 1976-10-08 00:00:00 Temperatura 11.4 del 07-10-1976 21:00, Mayor que la Máxima 11.0 08-10-1976 00:00 11.4 -- 11.0 2013-07-09 05:17:00
2 1976-12-03 00:00:00 Temperatura 14.0 del 02-12-1976 19:00, Mayor que la Máxima 13.6 03-12-1976 00:00 14.0 -- 13.6 2013-07-09 05:17:00
2 1976-12-06 00:00:00 Temperatura 18.0 del 05-12-1976 19:00, Mayor que la Máxima 17.8 06-12-1976 00:00 18.0 -- 17.8 2013-07-09 05:17:00
2 1977-01-16 00:00:00 Temperatura 21.0 del 15-01-1977 19:00, Mayor que la Máxima 20.6 16-01-1977 00:00 21.0 -- 20.6 2013-07-09 05:17:00
2 1977-03-22 00:00:00 Temperatura 14.8 del 21-03-1977 16:00, Mayor que la Máxima 13.7 22-03-1977 00:00 14.8 -- 13.7 2013-07-09 05:17:00
2 1977-04-16 00:00:00 Temperatura 11.0 del 15-04-1977 21:00, Mayor que la Máxima 10.8 16-04-1977 00:00 11.0 -- 10.8 2013-07-09 05:17:00
2 1977-05-06 00:00:00 Temperatura 11.6 del 05-05-1977 20:00, Mayor que la Máxima 11.0 06-05-1977 00:00 11.6 -- 11.0 2013-07-09 05:17:00
2 1977-05-31 00:00:00 Temperatura 13.0 del 30-05-1977 13:00, Mayor que la Máxima 12.8 31-05-1977 00:00 13.0 -- 12.8 2013-07-09 05:17:00
2 1977-07-03 00:00:00 Temperatura 8.7 del 02-07-1977 20:00, Mayor que la Máxima 8.6 03-07-1977 00:00 8.7 -- 8.6 2013-07-09 05:17:00
2 1977-07-11 00:00:00 Temperatura 10.6 del 10-07-1977 19:00, Mayor que la Máxima 10.2 11-07-1977 00:00 10.6 -- 10.2 2013-07-09 05:17:00
2 1977-10-06 00:00:00 Temperatura 11.7 del 05-10-1977 18:00, Mayor que la Máxima 11.6 06-10-1977 00:00 11.7 -- 11.6 2013-07-09 05:18:00
2 1977-11-24 00:00:00 Temperatura 22.9 del 23-11-1977 22:00, Mayor que la Máxima 13.6 24-11-1977 00:00 22.9 -- 13.6 2013-07-09 05:18:00
2 1978-01-18 00:00:00 Temperatura 13.5 del 17-01-1978 20:00, Mayor que la Máxima 13.3 18-01-1978 00:00 13.5 -- 13.3 2013-07-09 05:18:00
2 1978-02-07 00:00:00 Temperatura 19.1 del 06-02-1978 15:00, Mayor que la Máxima 18.0 07-02-1978 00:00 19.1 -- 18.0 2013-07-09 05:18:00
2 1978-03-27 00:00:00 Temperatura 15.0 del 26-03-1978 17:00, Mayor que la Máxima 14.7 27-03-1978 00:00 15.0 -- 14.7 2013-07-09 05:18:00
2 1978-04-16 00:00:00 Temperatura 16.6 del 15-04-1978 20:00, Mayor que la Máxima 16.4 16-04-1978 00:00 16.6 -- 16.4 2013-07-09 05:18:00
2 1978-05-03 00:00:00 Temperatura 14.3 del 02-05-1978 19:00, Mayor que la Máxima 13.6 03-05-1978 00:00 14.3 -- 13.6 2013-07-09 05:18:00
2 1978-05-09 00:00:00 Temperatura 14.1 del 08-05-1978 14:00, Mayor que la Máxima 14.0 09-05-1978 00:00 14.1 -- 14.0 2013-07-09 05:18:00
2 1978-05-18 00:00:00 Temperatura 11.4 del 17-05-1978 20:00, Mayor que la Máxima 11.3 18-05-1978 00:00 11.4 -- 11.3 2013-07-09 05:18:00
2 1978-05-21 00:00:00 Temperatura 10.8 del 20-05-1978 22:00, Mayor que la Máxima 10.7 21-05-1978 00:00 10.8 -- 10.7 2013-07-09 05:18:00
2 1978-07-10 00:00:00 Temperatura 13.1 del 09-07-1978 17:00, Mayor que la Máxima 13.0 10-07-1978 00:00 13.1 -- 13.0 2013-07-09 05:18:00
2 1978-07-28 00:00:00 Temperatura 11.2 del 27-07-1978 19:00, Mayor que la Máxima 11.0 28-07-1978 00:00 11.2 -- 11.0 2013-07-09 05:18:00
2 1978-07-31 00:00:00 Temperatura 10.0 del 30-07-1978 19:00, Mayor que la Máxima 9.9 31-07-1978 00:00 10.0 -- 9.9 2013-07-09 05:18:00
2 1978-08-18 00:00:00 Temperatura 10.0 del 17-08-1978 18:00, Mayor que la Máxima 9.9 18-08-1978 00:00 10.0 -- 9.9 2013-07-09 05:18:00
2 1978-10-15 00:00:00 Temperatura 14.1 del 14-10-1978 17:00, Mayor que la Máxima 14.0 15-10-1978 00:00 14.1 -- 14.0 2013-07-09 05:18:00
2 1979-01-02 00:00:00 Temperatura 16.5 del 01-01-1979 17:00, Mayor que la Máxima 16.4 02-01-1979 00:00 16.5 -- 16.4 2013-07-09 05:18:00
2 1979-01-02 00:00:00 Temperatura 16.5 del 01-01-1979 17:00, Mayor que la Máxima 16.4 02-01-1979 00:00 16.5 -- 16.4 2013-07-09 05:18:00
2 1979-01-12 00:00:00 Temperatura 17.4 del 11-01-1979 20:00, Mayor que la Máxima 17.2 12-01-1979 00:00 17.4 -- 17.2 2013-07-09 05:18:00
2 1979-01-13 00:00:00 Temperatura 16.7 del 12-01-1979 17:00, Mayor que la Máxima 16.2 13-01-1979 00:00 16.7 -- 16.2 2013-07-09 05:18:00
2 1979-06-06 00:00:00 Temperatura 10.8 del 05-06-1979 19:00, Mayor que la Máxima 10.1 06-06-1979 00:00 10.8 -- 10.1 2013-07-09 05:18:00
2 1979-06-14 00:00:00 Temperatura 9.0 del 13-06-1979 19:00, Mayor que la Máxima 0.0 14-06-1979 00:00 9.0 -- 0.0 2013-07-09 05:18:00
2 1979-06-15 00:00:00 Temperatura 11.8 del 14-06-1979 19:00, Mayor que la Máxima 11.7 15-06-1979 00:00 11.8 -- 11.7 2013-07-09 05:18:00
2 1979-07-25 00:00:00 Temperatura 11.8 del 24-07-1979 16:00, Mayor que la Máxima 11.2 25-07-1979 00:00 11.8 -- 11.2 2013-07-09 05:18:00
2 1979-08-25 00:00:00 Temperatura 12.3 del 24-08-1979 16:00, Mayor que la Máxima 11.8 25-08-1979 00:00 12.3 -- 11.8 2013-07-09 05:18:00
2 1979-09-19 00:00:00 Temperatura 10.4 del 18-09-1979 18:00, Mayor que la Máxima 10.1 19-09-1979 00:00 10.4 -- 10.1 2013-07-09 05:18:00
2 1979-10-19 00:00:00 Temperatura 15.5 del 18-10-1979 20:00, Mayor que la Máxima 15.3 19-10-1979 00:00 15.5 -- 15.3 2013-07-09 05:18:00
2 1979-12-31 00:00:00 Temperatura 27.6 del 30-12-1979 18:00, Mayor que la Máxima 25.0 31-12-1979 00:00 27.6 -- 25.0 2013-07-09 05:18:00
2 1980-02-20 00:00:00 Temperatura 19.7 del 19-02-1980 19:00, Mayor que la Máxima 19.2 20-02-1980 00:00 19.7 -- 19.2 2013-07-09 05:18:00
2 1980-04-03 00:00:00 Temperatura 15.0 del 02-04-1980 19:00, Mayor que la Máxima 14.6 03-04-1980 00:00 15.0 -- 14.6 2013-07-09 05:18:00
2 1980-04-15 00:00:00 Temperatura 12.0 del 14-04-1980 20:00, Mayor que la Máxima 11.4 15-04-1980 00:00 12.0 -- 11.4 2013-07-09 05:18:00
2 1980-04-21 00:00:00 Temperatura 16.0 del 20-04-1980 20:00, Mayor que la Máxima 15.7 21-04-1980 00:00 16.0 -- 15.7 2013-07-09 05:18:00
2 1980-06-06 00:00:00 Temperatura 12.2 del 05-06-1980 17:00, Mayor que la Máxima 12.1 06-06-1980 00:00 12.2 -- 12.1 2013-07-09 05:18:00
2 1980-07-20 00:00:00 Temperatura 10.0 del 19-07-1980 16:00, Mayor que la Máxima 9.4 20-07-1980 00:00 10.0 -- 9.4 2013-07-09 05:18:00
2 1980-08-04 00:00:00 Temperatura 12.4 del 03-08-1980 17:00, Mayor que la Máxima 12.2 04-08-1980 00:00 12.4 -- 12.2 2013-07-09 05:18:00
2 1980-08-07 00:00:00 Temperatura 8.6 del 06-08-1980 16:00, Mayor que la Máxima 8.4 07-08-1980 00:00 8.6 -- 8.4 2013-07-09 05:18:00
2 1980-08-31 00:00:00 Temperatura 11.0 del 30-08-1980 19:00, Mayor que la Máxima 10.6 31-08-1980 00:00 11.0 -- 10.6 2013-07-09 05:18:00
2 1980-09-06 00:00:00 Temperatura 11.8 del 05-09-1980 20:00, Mayor que la Máxima 11.4 06-09-1980 00:00 11.8 -- 11.4 2013-07-09 05:18:00
2 1980-11-02 00:00:00 Temperatura 13.3 del 01-11-1980 16:00, Mayor que la Máxima 13.0 02-11-1980 00:00 13.3 -- 13.0 2013-07-09 05:18:00
2 1980-12-09 00:00:00 Temperatura 15.6 del 08-12-1980 17:00, Mayor que la Máxima 15.4 09-12-1980 00:00 15.6 -- 15.4 2013-07-09 05:18:00
2 1981-03-16 00:00:00 Temperatura 16.0 del 15-03-1981 19:00, Mayor que la Máxima 15.4 16-03-1981 00:00 16.0 -- 15.4 2013-07-09 05:18:00
2 1981-03-26 00:00:00 Temperatura 16.0 del 25-03-1981 20:00, Mayor que la Máxima 15.6 26-03-1981 00:00 16.0 -- 15.6 2013-07-09 05:18:00
2 1981-04-01 00:00:00 Temperatura 15.0 del 31-03-1981 20:00, Mayor que la Máxima 14.8 01-04-1981 00:00 15.0 -- 14.8 2013-07-09 05:18:00
2 1981-04-03 00:00:00 Temperatura 17.7 del 02-04-1981 20:00, Mayor que la Máxima 17.6 03-04-1981 00:00 17.7 -- 17.6 2013-07-09 05:18:00
2 1981-04-27 00:00:00 Temperatura 13.4 del 26-04-1981 17:00, Mayor que la Máxima 13.3 27-04-1981 00:00 13.4 -- 13.3 2013-07-09 05:18:00
2 1981-05-05 00:00:00 Temperatura 11.2 del 04-05-1981 16:00, Mayor que la Máxima 11.1 05-05-1981 00:00 11.2 -- 11.1 2013-07-09 05:18:00
2 1981-05-20 00:00:00 Temperatura 11.6 del 19-05-1981 16:00, Mayor que la Máxima 11.4 20-05-1981 00:00 11.6 -- 11.4 2013-07-09 05:18:00
2 1981-05-23 00:00:00 Temperatura 13.3 del 22-05-1981 13:00, Mayor que la Máxima 12.6 23-05-1981 00:00 13.3 -- 12.6 2013-07-09 05:18:00
2 1981-05-29 00:00:00 Temperatura 14.0 del 28-05-1981 16:00, Mayor que la Máxima 13.6 29-05-1981 00:00 14.0 -- 13.6 2013-07-09 05:18:00
2 1981-06-25 00:00:00 Temperatura 9.4 del 24-06-1981 13:00, Mayor que la Máxima 9.2 25-06-1981 00:00 9.4 -- 9.2 2013-07-09 05:18:00
2 1981-08-04 00:00:00 Temperatura 9.1 del 03-08-1981 20:00, Mayor que la Máxima 9.0 04-08-1981 00:00 9.1 -- 9.0 2013-07-09 05:18:00
2 1981-08-27 00:00:00 Temperatura 11.0 del 26-08-1981 20:00, Mayor que la Máxima 10.8 27-08-1981 00:00 11.0 -- 10.8 2013-07-09 05:18:00
2 1981-09-09 00:00:00 Temperatura 8.2 del 08-09-1981 19:00, Mayor que la Máxima 8.0 09-09-1981 00:00 8.2 -- 8.0 2013-07-09 05:18:00
2 1981-09-24 00:00:00 Temperatura 11.6 del 23-09-1981 20:00, Mayor que la Máxima 11.0 24-09-1981 00:00 11.6 -- 11.0 2013-07-09 05:18:00
2 1981-11-11 00:00:00 Temperatura 12.6 del 10-11-1981 20:00, Mayor que la Máxima 12.4 11-11-1981 00:00 12.6 -- 12.4 2013-07-09 05:18:00
2 1981-11-20 00:00:00 Temperatura 14.0 del 19-11-1981 14:00, Mayor que la Máxima 13.8 20-11-1981 00:00 14.0 -- 13.8 2013-07-09 05:18:00
2 1982-01-12 00:00:00 Temperatura 17.3 del 11-01-1982 15:00, Mayor que la Máxima 16.8 12-01-1982 00:00 17.3 -- 16.8 2013-07-09 05:18:00
2 1982-01-30 00:00:00 Temperatura 17.2 del 29-01-1982 20:00, Mayor que la Máxima 16.0 30-01-1982 00:00 17.2 -- 16.0 2013-07-09 05:18:00
2 1982-02-14 00:00:00 Temperatura 16.4 del 13-02-1982 21:00, Mayor que la Máxima 16.3 14-02-1982 00:00 16.4 -- 16.3 2013-07-09 05:19:00
2 1982-02-18 00:00:00 Temperatura 17.8 del 17-02-1982 21:00, Mayor que la Máxima 17.4 18-02-1982 00:00 17.8 -- 17.4 2013-07-09 05:19:00
2 1982-02-20 00:00:00 Temperatura 21.0 del 19-02-1982 17:00, Mayor que la Máxima 20.4 20-02-1982 00:00 21.0 -- 20.4 2013-07-09 05:19:00
2 1982-04-01 00:00:00 Temperatura 15.9 del 31-03-1982 19:00, Mayor que la Máxima 15.6 01-04-1982 00:00 15.9 -- 15.6 2013-07-09 05:19:00
2 1982-06-03 00:00:00 Temperatura 13.1 del 02-06-1982 17:00, Mayor que la Máxima 13.0 03-06-1982 00:00 13.1 -- 13.0 2013-07-09 05:19:00
2 1982-06-15 00:00:00 Temperatura 8.0 del 14-06-1982 19:00, Mayor que la Máxima 7.8 15-06-1982 00:00 8.0 -- 7.8 2013-07-09 05:19:00
2 1982-06-27 00:00:00 Temperatura 8.1 del 26-06-1982 20:00, Mayor que la Máxima 7.4 27-06-1982 00:00 8.1 -- 7.4 2013-07-09 05:19:00
2 1982-11-09 00:00:00 Temperatura 12.0 del 08-11-1982 21:00, Mayor que la Máxima 11.7 09-11-1982 00:00 12.0 -- 11.7 2013-07-09 05:19:00
2 1982-12-22 00:00:00 Temperatura 17.0 del 21-12-1982 18:00, Mayor que la Máxima 16.8 22-12-1982 00:00 17.0 -- 16.8 2013-07-09 05:19:00
2 1983-05-30 00:00:00 Temperatura 13.0 del 29-05-1983 20:00, Mayor que la Máxima 12.2 30-05-1983 00:00 13.0 -- 12.2 2013-07-09 05:19:00
2 1983-07-01 00:00:00 Temperatura 8.8 del 30-06-1983 21:00, Mayor que la Máxima 8.6 01-07-1983 00:00 8.8 -- 8.6 2013-07-09 05:19:00
2 1983-08-17 00:00:00 Temperatura 9.2 del 16-08-1983 18:00, Mayor que la Máxima 8.8 17-08-1983 00:00 9.2 -- 8.8 2013-07-09 05:19:00
2 1983-08-30 00:00:00 Temperatura 14.0 del 29-08-1983 20:00, Mayor que la Máxima 13.9 30-08-1983 00:00 14.0 -- 13.9 2013-07-09 05:19:00
2 1983-12-25 00:00:00 Temperatura 15.1 del 24-12-1983 17:00, Mayor que la Máxima 15.0 25-12-1983 00:00 15.1 -- 15.0 2013-07-09 05:19:00
2 1984-03-30 00:00:00 Temperatura 17.4 del 29-03-1984 17:00, Mayor que la Máxima 15.8 30-03-1984 00:00 17.4 -- 15.8 2013-07-09 05:19:00
2 1984-07-23 00:00:00 Temperatura 11.0 del 22-07-1984 18:00, Mayor que la Máxima 10.0 23-07-1984 00:00 11.0 -- 10.0 2013-07-09 05:19:00
2 1985-07-12 00:00:00 Temperatura 10.3 del 11-07-1985 21:00, Mayor que la Máxima 8.9 12-07-1985 00:00 10.3 -- 8.9 2013-07-09 05:19:00
2 1985-10-11 00:00:00 Temperatura 12.2 del 10-10-1985 17:00, Mayor que la Máxima 11.2 11-10-1985 00:00 12.2 -- 11.2 2013-07-09 05:19:00
2 1986-03-05 00:00:00 Temperatura 16.0 del 04-03-1986 19:00, Mayor que la Máxima 15.2 05-03-1986 00:00 16.0 -- 15.2 2013-07-09 05:19:00
2 1986-03-27 00:00:00 Temperatura 18.4 del 26-03-1986 21:00, Mayor que la Máxima 18.2 27-03-1986 00:00 18.4 -- 18.2 2013-07-09 05:20:00
2 1986-05-11 00:00:00 Temperatura 11.1 del 10-05-1986 16:00, Mayor que la Máxima 10.3 11-05-1986 00:00 11.1 -- 10.3 2013-07-09 05:20:00
2 1986-06-26 00:00:00 Temperatura 10.4 del 25-06-1986 14:00, Mayor que la Máxima 10.3 26-06-1986 00:00 10.4 -- 10.3 2013-07-09 05:20:00
2 1986-11-11 00:00:00 Temperatura 17.0 del 10-11-1986 19:00, Mayor que la Máxima 16.2 11-11-1986 00:00 17.0 -- 16.2 2013-07-09 05:20:00
2 1986-12-02 00:00:00 Temperatura 14.4 del 01-12-1986 17:00, Mayor que la Máxima 14.2 02-12-1986 00:00 14.4 -- 14.2 2013-07-09 05:20:00
2 1987-06-13 00:00:00 Temperatura 7.0 del 12-06-1987 18:00, Mayor que la Máxima 6.8 13-06-1987 00:00 7.0 -- 6.8 2013-07-09 05:20:00
2 1987-11-08 00:00:00 Temperatura 11.8 del 07-11-1987 15:00, Mayor que la Máxima 11.4 08-11-1987 00:00 11.8 -- 11.4 2013-07-09 05:20:00
2 1988-01-07 00:00:00 Temperatura 21.4 del 06-01-1988 16:00, Mayor que la Máxima 20.2 07-01-1988 00:00 21.4 -- 20.2 2013-07-09 05:20:00
2 1988-04-02 00:00:00 Temperatura 15.7 del 01-04-1988 18:00, Mayor que la Máxima 15.3 02-04-1988 00:00 15.7 -- 15.3 2013-07-09 05:20:00
2 1988-05-11 00:00:00 Temperatura 11.4 del 10-05-1988 19:00, Mayor que la Máxima 11.2 11-05-1988 00:00 11.4 -- 11.2 2013-07-09 05:20:00
2 1988-05-16 00:00:00 Temperatura 13.0 del 15-05-1988 13:00, Mayor que la Máxima 12.6 16-05-1988 00:00 13.0 -- 12.6 2013-07-09 05:20:00
2 1988-05-22 00:00:00 Temperatura 11.3 del 21-05-1988 18:00, Mayor que la Máxima 10.8 22-05-1988 00:00 11.3 -- 10.8 2013-07-09 05:20:00
2 1988-10-05 00:00:00 Temperatura 12.8 del 04-10-1988 20:00, Mayor que la Máxima 12.4 05-10-1988 00:00 12.8 -- 12.4 2013-07-09 05:20:00
2 1988-10-14 00:00:00 Temperatura 12.8 del 13-10-1988 19:00, Mayor que la Máxima 12.6 14-10-1988 00:00 12.8 -- 12.6 2013-07-09 05:20:00
2 1988-11-04 00:00:00 Temperatura 18.4 del 03-11-1988 19:00, Mayor que la Máxima 18.2 04-11-1988 00:00 18.4 -- 18.2 2013-07-09 05:20:00
2 1988-12-06 00:00:00 Temperatura 16.0 del 05-12-1988 17:00, Mayor que la Máxima 15.6 06-12-1988 00:00 16.0 -- 15.6 2013-07-09 05:20:00
2 1989-01-24 00:00:00 Temperatura 17.6 del 23-01-1989 19:00, Mayor que la Máxima 17.4 24-01-1989 00:00 17.6 -- 17.4 2013-07-09 05:20:00
2 1989-04-01 00:00:00 Temperatura 17.6 del 31-03-1989 15:00, Mayor que la Máxima 17.2 01-04-1989 00:00 17.6 -- 17.2 2013-07-09 05:20:00
2 1989-05-02 00:00:00 Temperatura 17.8 del 01-05-1989 20:00, Mayor que la Máxima 12.8 02-05-1989 00:00 17.8 -- 12.8 2013-07-09 05:20:00
2 1989-05-13 00:00:00 Temperatura 12.2 del 12-05-1989 15:00, Mayor que la Máxima 11.8 13-05-1989 00:00 12.2 -- 11.8 2013-07-09 05:20:00
2 1989-07-23 00:00:00 Temperatura 11.0 del 22-07-1989 18:00, Mayor que la Máxima 10.8 23-07-1989 00:00 11.0 -- 10.8 2013-07-09 05:20:00
2 1989-07-30 00:00:00 Temperatura 13.0 del 29-07-1989 13:00, Mayor que la Máxima 9.1 30-07-1989 00:00 13.0 -- 9.1 2013-07-09 05:20:00
2 1989-08-07 00:00:00 Temperatura 10.8 del 06-08-1989 16:00, Mayor que la Máxima 10.7 07-08-1989 00:00 10.8 -- 10.7 2013-07-09 05:20:00
2 1989-10-11 00:00:00 Temperatura 14.2 del 10-10-1989 18:00, Mayor que la Máxima 13.4 11-10-1989 00:00 14.2 -- 13.4 2013-07-09 05:20:00
2 1989-10-14 00:00:00 Temperatura 15.5 del 13-10-1989 17:00, Mayor que la Máxima 15.4 14-10-1989 00:00 15.5 -- 15.4 2013-07-09 05:20:00
2 1989-11-10 00:00:00 Temperatura 12.2 del 09-11-1989 18:00, Mayor que la Máxima 11.2 10-11-1989 00:00 12.2 -- 11.2 2013-07-09 05:20:00
2 1989-11-26 00:00:00 Temperatura 15.0 del 25-11-1989 17:00, Mayor que la Máxima 14.2 26-11-1989 00:00 15.0 -- 14.2 2013-07-09 05:20:00
2 1990-03-29 00:00:00 Temperatura 11.8 del 28-03-1990 14:00, Mayor que la Máxima 11.7 29-03-1990 00:00 11.8 -- 11.7 2013-07-09 05:20:00
2 1990-05-19 00:00:00 Temperatura 12.5 del 18-05-1990 20:00, Mayor que la Máxima 12.2 19-05-1990 00:00 12.5 -- 12.2 2013-07-09 05:21:00
2 1990-06-21 00:00:00 Temperatura 6.2 del 20-06-1990 13:00, Mayor que la Máxima 6.1 21-06-1990 00:00 6.2 -- 6.1 2013-07-09 05:21:00
2 1990-08-11 00:00:00 Temperatura 11.2 del 10-08-1990 17:00, Mayor que la Máxima 10.8 11-08-1990 00:00 11.2 -- 10.8 2013-07-09 05:21:00
2 1990-10-20 00:00:00 Temperatura 18.1 del 19-10-1990 20:00, Mayor que la Máxima 13.1 20-10-1990 00:00 18.1 -- 13.1 2013-07-09 05:21:00
2 1990-12-06 00:00:00 Temperatura 14.7 del 05-12-1990 19:00, Mayor que la Máxima 14.2 06-12-1990 00:00 14.7 -- 14.2 2013-07-09 05:21:00
2 1991-01-09 00:00:00 Temperatura 17.8 del 08-01-1991 20:00, Mayor que la Máxima 17.0 09-01-1991 00:00 17.8 -- 17.0 2013-07-09 05:21:00
2 1991-01-29 00:00:00 Temperatura 15.2 del 28-01-1991 15:00, Mayor que la Máxima 14.7 29-01-1991 00:00 15.2 -- 14.7 2013-07-09 05:21:00
2 1991-08-19 00:00:00 Temperatura 10.2 del 18-08-1991 14:00, Mayor que la Máxima 10.0 19-08-1991 00:00 10.2 -- 10.0 2013-07-09 05:21:00
2 1991-10-13 00:00:00 Temperatura 9.4 del 12-10-1991 14:00, Mayor que la Máxima 9.0 13-10-1991 00:00 9.4 -- 9.0 2013-07-09 05:21:00
2 1991-12-19 00:00:00 Temperatura 13.8 del 18-12-1991 17:00, Mayor que la Máxima 13.0 19-12-1991 00:00 13.8 -- 13.0 2013-07-09 05:21:00
2 1991-12-21 00:00:00 Temperatura 14.8 del 20-12-1991 17:00, Mayor que la Máxima 0.1 21-12-1991 00:00 14.8 -- 0.1 2013-07-09 05:21:00
2 1991-12-27 00:00:00 Temperatura 15.8 del 26-12-1991 18:00, Mayor que la Máxima 15.6 27-12-1991 00:00 15.8 -- 15.6 2013-07-09 05:21:00
2 1992-01-23 00:00:00 Temperatura 17.6 del 22-01-1992 15:00, Mayor que la Máxima 17.4 23-01-1992 00:00 17.6 -- 17.4 2013-07-09 05:21:00
2 1992-06-24 00:00:00 Temperatura 9.5 del 23-06-1992 17:00, Mayor que la Máxima 5.4 24-06-1992 00:00 9.5 -- 5.4 2013-07-09 05:21:00
2 1992-12-24 00:00:00 Temperatura 16.9 del 23-12-1992 17:00, Mayor que la Máxima 16.8 24-12-1992 00:00 16.9 -- 16.8 2013-07-09 05:21:00
2 1993-03-13 00:00:00 Temperatura 12.2 del 12-03-1993 15:00, Mayor que la Máxima 11.8 13-03-1993 00:00 12.2 -- 11.8 2013-07-09 05:21:00
2 1993-04-14 00:00:00 Temperatura 10.1 del 13-04-1993 21:00, Mayor que la Máxima 10.0 14-04-1993 00:00 10.1 -- 10.0 2013-07-09 05:21:00
2 1993-06-17 00:00:00 Temperatura 9.7 del 16-06-1993 14:00, Mayor que la Máxima 6.8 17-06-1993 00:00 9.7 -- 6.8 2013-07-09 05:21:00
2 1993-07-16 00:00:00 Temperatura 9.5 del 15-07-1993 19:00, Mayor que la Máxima 9.4 16-07-1993 00:00 9.5 -- 9.4 2013-07-09 05:21:00
2 1993-09-30 00:00:00 Temperatura 10.8 del 29-09-1993 16:00, Mayor que la Máxima 10.6 30-09-1993 00:00 10.8 -- 10.6 2013-07-09 05:21:00
2 1994-04-09 00:00:00 Temperatura 14.2 del 08-04-1994 18:00, Mayor que la Máxima 12.4 09-04-1994 00:00 14.2 -- 12.4 2013-07-09 05:21:00
2 1994-08-13 00:00:00 Temperatura 9.6 del 12-08-1994 18:00, Mayor que la Máxima 1.0 13-08-1994 00:00 9.6 -- 1.0 2013-07-09 05:21:00
2 1994-08-26 00:00:00 Temperatura 11.0 del 25-08-1994 16:00, Mayor que la Máxima 10.9 26-08-1994 00:00 11.0 -- 10.9 2013-07-09 05:21:00
2 1994-10-04 00:00:00 Temperatura 9.6 del 03-10-1994 19:00, Mayor que la Máxima 9.0 04-10-1994 00:00 9.6 -- 9.0 2013-07-09 05:21:00
2 1954-09-08 12:00:00 Temperatura 0.0 del 08-09-1954 11:00, Menor que la Mínima 1.0 08-09-1954 12:00 0.0 -- 1.0 2012-12-19 13:48:00
2 1966-03-28 12:00:00 Temperatura 6.7 del 28-03-1966 09:00, Menor que la Mínima 7.3 28-03-1966 12:00 6.7 -- 7.3 2013-07-09 05:22:00
2 1966-04-12 12:00:00 Temperatura 6.3 del 12-04-1966 09:00, Menor que la Mínima 6.8 12-04-1966 12:00 6.3 -- 6.8 2013-07-09 05:22:00
2 1966-05-11 12:00:00 Temperatura 0.7 del 11-05-1966 09:00, Menor que la Mínima 0.8 11-05-1966 12:00 0.7 -- 0.8 2013-07-09 05:22:00
2 1966-05-14 12:00:00 Temperatura 8.2 del 14-05-1966 09:00, Menor que la Mínima 8.3 14-05-1966 12:00 8.2 -- 8.3 2013-07-09 05:22:00
2 1966-05-19 12:00:00 Temperatura 4.4 del 19-05-1966 12:00, Menor que la Mínima 7.2 19-05-1966 12:00 4.4 -- 7.2 2013-07-09 05:22:00
2 1966-07-21 12:00:00 Temperatura 7.6 del 21-07-1966 12:00, Menor que la Mínima 8.2 21-07-1966 12:00 7.6 -- 8.2 2013-07-09 05:22:00
2 1966-07-25 12:00:00 Temperatura 6.8 del 25-07-1966 12:00, Menor que la Mínima 7.8 25-07-1966 12:00 6.8 -- 7.8 2013-07-09 05:22:00
2 1966-09-20 12:00:00 Temperatura 2.7 del 20-09-1966 09:00, Menor que la Mínima 3.2 20-09-1966 12:00 2.7 -- 3.2 2013-07-09 05:22:00
2 1966-12-09 12:00:00 Temperatura 8.0 del 09-12-1966 09:00, Menor que la Mínima 9.2 09-12-1966 12:00 8.0 -- 9.2 2013-07-09 05:22:00
2 1967-02-27 12:00:00 Temperatura 7.3 del 27-02-1967 09:00, Menor que la Mínima 9.4 27-02-1967 12:00 7.3 -- 9.4 2013-07-09 05:22:00
2 1967-03-24 12:00:00 Temperatura 5.0 del 24-03-1967 12:00, Menor que la Mínima 6.2 24-03-1967 12:00 5.0 -- 6.2 2013-07-09 05:22:00
2 1967-04-24 12:00:00 Temperatura 3.0 del 24-04-1967 09:00, Menor que la Mínima 3.2 24-04-1967 12:00 3.0 -- 3.2 2013-07-09 05:22:00
2 1967-07-10 12:00:00 Temperatura 1.0 del 10-07-1967 12:00, Menor que la Mínima 8.0 10-07-1967 12:00 1.0 -- 8.0 2013-07-09 05:22:00
2 1967-07-14 12:00:00 Temperatura 1.0 del 14-07-1967 09:00, Menor que la Mínima 9.0 14-07-1967 12:00 1.0 -- 9.0 2013-07-09 05:22:00
2 1967-07-25 12:00:00 Temperatura 2.6 del 25-07-1967 09:00, Menor que la Mínima 2.9 25-07-1967 12:00 2.6 -- 2.9 2013-07-09 05:22:00
2 1967-08-15 12:00:00 Temperatura 9.2 del 15-08-1967 09:00, Menor que la Mínima 9.4 15-08-1967 12:00 9.2 -- 9.4 2013-07-09 05:22:00
2 1967-08-20 12:00:00 Temperatura 0.0 del 20-08-1967 09:00, Menor que la Mínima 2.0 20-08-1967 12:00 0.0 -- 2.0 2013-07-09 05:22:00
2 1967-08-28 12:00:00 Temperatura 0.5 del 28-08-1967 09:00, Menor que la Mínima 5.9 28-08-1967 12:00 0.5 -- 5.9 2013-07-09 05:22:00
2 1967-09-07 12:00:00 Temperatura 0.8 del 07-09-1967 12:00, Menor que la Mínima 6.0 07-09-1967 12:00 0.8 -- 6.0 2013-07-09 05:22:00
2 1967-09-15 12:00:00 Temperatura 0.8 del 15-09-1967 09:00, Menor que la Mínima 6.4 15-09-1967 12:00 0.8 -- 6.4 2013-07-09 05:22:00
2 1967-09-29 12:00:00 Temperatura 0.5 del 29-09-1967 12:00, Menor que la Mínima 4.2 29-09-1967 12:00 0.5 -- 4.2 2013-07-09 05:22:00
2 1967-10-29 12:00:00 Temperatura 0.5 del 29-10-1967 12:00, Menor que la Mínima 5.5 29-10-1967 12:00 0.5 -- 5.5 2013-07-09 05:22:00
2 1967-12-01 12:00:00 Temperatura 0.8 del 01-12-1967 12:00, Menor que la Mínima 7.0 01-12-1967 12:00 0.8 -- 7.0 2013-07-09 05:22:00
2 1967-12-13 12:00:00 Temperatura 12.0 del 13-12-1967 12:00, Menor que la Mínima 20.4 13-12-1967 12:00 12.0 -- 20.4 2013-07-09 05:22:00
2 1969-04-07 12:00:00 Temperatura 5.7 del 07-04-1969 09:00, Menor que la Mínima 6.2 07-04-1969 12:00 5.7 -- 6.2 2013-07-09 05:22:00
2 1969-06-08 12:00:00 Temperatura 3.2 del 08-06-1969 09:00, Menor que la Mínima 3.3 08-06-1969 12:00 3.2 -- 3.3 2013-07-09 05:22:00
2 1969-06-12 12:00:00 Temperatura 0.0 del 12-06-1969 10:00, Menor que la Mínima 1.5 12-06-1969 12:00 0.0 -- 1.5 2013-07-09 05:22:00
2 1969-07-09 12:00:00 Temperatura -0.1 del 09-07-1969 10:00, Menor que la Mínima 1.2 09-07-1969 12:00 -0.1 -- 1.2 2013-07-09 05:22:00
2 1969-09-13 12:00:00 Temperatura 5.4 del 13-09-1969 09:00, Menor que la Mínima 5.5 13-09-1969 12:00 5.4 -- 5.5 2013-07-09 05:22:00
2 1969-10-26 12:00:00 Temperatura 3.1 del 26-10-1969 09:00, Menor que la Mínima 5.7 26-10-1969 12:00 3.1 -- 5.7 2013-07-09 05:23:00
2 1970-02-24 12:00:00 Temperatura 8.8 del 24-02-1970 09:00, Menor que la Mínima 9.4 24-02-1970 12:00 8.8 -- 9.4 2013-07-09 05:23:00
2 1970-03-16 12:00:00 Temperatura 1.0 del 16-03-1970 09:00, Menor que la Mínima 4.3 16-03-1970 12:00 1.0 -- 4.3 2013-07-09 05:23:00
2 1970-05-24 12:00:00 Temperatura 1.3 del 24-05-1970 09:00, Menor que la Mínima 11.7 24-05-1970 12:00 1.3 -- 11.7 2013-07-09 05:23:00
2 1970-06-01 12:00:00 Temperatura 1.4 del 01-06-1970 09:00, Menor que la Mínima 2.0 01-06-1970 12:00 1.4 -- 2.0 2013-07-09 05:23:00
2 1970-06-28 12:00:00 Temperatura 3.0 del 28-06-1970 10:00, Menor que la Mínima 3.2 28-06-1970 12:00 3.0 -- 3.2 2013-07-09 05:23:00
2 1970-06-30 12:00:00 Temperatura -1.0 del 30-06-1970 10:00, Menor que la Mínima 5.4 30-06-1970 12:00 -1.0 -- 5.4 2013-07-09 05:23:00
2 1970-07-11 12:00:00 Temperatura 4.1 del 11-07-1970 09:00, Menor que la Mínima 4.6 11-07-1970 12:00 4.1 -- 4.6 2013-07-09 05:23:00
2 1970-08-12 12:00:00 Temperatura 1.9 del 12-08-1970 10:00, Menor que la Mínima 2.5 12-08-1970 12:00 1.9 -- 2.5 2013-07-09 05:23:00
2 1970-08-29 12:00:00 Temperatura 5.8 del 29-08-1970 11:00, Menor que la Mínima 5.9 29-08-1970 12:00 5.8 -- 5.9 2013-07-09 05:23:00
2 1970-09-04 12:00:00 Temperatura 5.2 del 04-09-1970 11:00, Menor que la Mínima 5.3 04-09-1970 12:00 5.2 -- 5.3 2013-07-09 05:23:00
2 1970-09-06 12:00:00 Temperatura 6.9 del 06-09-1970 11:00, Menor que la Mínima 7.4 06-09-1970 12:00 6.9 -- 7.4 2013-07-09 05:23:00
2 1970-09-20 12:00:00 Temperatura 6.5 del 20-09-1970 09:00, Menor que la Mínima 6.6 20-09-1970 12:00 6.5 -- 6.6 2013-07-09 05:23:00
2 1970-09-25 12:00:00 Temperatura 8.3 del 25-09-1970 09:00, Menor que la Mínima 8.5 25-09-1970 12:00 8.3 -- 8.5 2013-07-09 05:23:00
2 1970-09-27 12:00:00 Temperatura 7.1 del 27-09-1970 09:00, Menor que la Mínima 7.4 27-09-1970 12:00 7.1 -- 7.4 2013-07-09 05:23:00
2 1970-09-30 12:00:00 Temperatura 4.0 del 30-09-1970 11:00, Menor que la Mínima 6.3 30-09-1970 12:00 4.0 -- 6.3 2013-07-09 05:23:00
2 1970-10-26 12:00:00 Temperatura 5.7 del 26-10-1970 10:00, Menor que la Mínima 6.0 26-10-1970 12:00 5.7 -- 6.0 2013-07-09 05:23:00
2 1970-11-03 12:00:00 Temperatura 8.5 del 03-11-1970 09:00, Menor que la Mínima 8.7 03-11-1970 12:00 8.5 -- 8.7 2013-07-09 05:23:00
2 1970-11-04 12:00:00 Temperatura 9.0 del 04-11-1970 11:00, Menor que la Mínima 9.2 04-11-1970 12:00 9.0 -- 9.2 2013-07-09 05:23:00
2 1970-12-03 12:00:00 Temperatura 10.3 del 03-12-1970 09:00, Menor que la Mínima 10.5 03-12-1970 12:00 10.3 -- 10.5 2013-07-09 05:23:00
2 1970-12-16 12:00:00 Temperatura 7.6 del 16-12-1970 09:00, Menor que la Mínima 8.0 16-12-1970 12:00 7.6 -- 8.0 2013-07-09 05:23:00
2 1970-12-26 12:00:00 Temperatura 8.9 del 26-12-1970 11:00, Menor que la Mínima 9.8 26-12-1970 12:00 8.9 -- 9.8 2013-07-09 05:23:00
2 1971-01-09 12:00:00 Temperatura 6.1 del 09-01-1971 10:00, Menor que la Mínima 6.2 09-01-1971 12:00 6.1 -- 6.2 2013-07-09 05:23:00